[[{"header":{"parameterUnit":"m.s-1","parameterCategory":1,"la1":30.6,"la2":29.2853,"lo1":-89.7004,"lo2":-87.6739,"dy":0.0162,"dx":0.0183,"nx":112,"ny":82,"refTime":"2023-05-13T12:00:00:Z","depth":0,"parameterNumber":2,"parameterNumberName":"U-component_of_WINDS"},"data":[0.0,0.0,0.0,0.0,0.0,0.0,0.0,0.0,0.0,0.0,0.0,0.0,0.0,0.0,0.0,0.0,0.0,0.0,0.0,0.0,0.0,0.0,0.0,0.0,0.0,0.0,0.0,0.0,0.0,0.0,0.0,0.0,0.0,0.0,0.0,0.0,0.0,0.0,0.0,0.0,0.0,0.0,0.0,0.0,0.0,0.0,0.0,0.0,0.0,0.0,0.0,0.0,0.0,0.0,0.0,0.0,0.0,0.0,0.0,0.0,0.0,0.0,0.0,0.0,0.0,0.0,0.0,0.0,0.0,0.0,0.0,0.0,0.0,0.0,0.0,0.0,0.0,0.0,0.0,0.0,0.0,0.0,0.0,0.0,0.0,0.0,0.0,0.0,0.0,0.0,-3.4294,-3.6053,-3.7753,-3.8525,-3.7806,-3.7381,-3.6222,-3.3895,0.0,0.0,0.0,0.0,0.0,0.0,0.0,0.0,0.0,0.0,0.0,0.0,0.0,0.0,0.0,0.0,0.0,0.0,0.0,0.0,0.0,0.0,0.0,0.0,0.0,0.0,0.0,0.0,0.0,0.0,0.0,0.0,0.0,0.0,0.0,0.0,0.0,0.0,0.0,0.0,0.0,0.0,0.0,0.0,0.0,0.0,0.0,0.0,0.0,0.0,0.0,0.0,0.0,0.0,0.0,0.0,0.0,0.0,0.0,0.0,0.0,0.0,0.0,0.0,0.0,0.0,0.0,0.0,0.0,0.0,0.0,0.0,0.0,0.0,0.0,0.0,0.0,0.0,0.0,0.0,0.0,0.0,0.0,0.0,0.0,0.0,0.0,0.0,0.0,0.0,0.0,0.0,0.0,0.0,0.0,0.0,0.0,0.0,0.0,0.0,0.0,0.0,0.0,0.0,-3.6345,-3.8868,-3.9146,-3.8957,-3.858,-3.7905,-3.6401,-3.3713,0.0,0.0,0.0,0.0,0.0,0.0,0.0,0.0,0.0,0.0,0.0,0.0,0.0,0.0,0.0,0.0,0.0,0.0,0.0,0.0,0.0,0.0,0.0,0.0,0.0,0.0,0.0,0.0,0.0,0.0,0.0,0.0,0.0,0.0,0.0,0.0,0.0,0.0,0.0,0.0,0.0,0.0,0.0,0.0,0.0,0.0,0.0,0.0,0.0,0.0,0.0,0.0,0.0,0.0,0.0,0.0,0.0,0.0,0.0,0.0,0.0,0.0,0.0,0.0,0.0,0.0,0.0,0.0,0.0,0.0,0.0,0.0,0.0,0.0,0.0,0.0,0.0,0.0,0.0,0.0,0.0,0.0,0.0,0.0,0.0,0.0,0.0,0.0,0.0,0.0,0.0,0.0,0.0,0.0,0.0,0.0,0.0,0.0,0.0,0.0,0.0,0.0,0.0,-3.6391,-3.777,-3.9733,-4.0153,-3.9868,-3.8799,-3.8213,-3.6722,-3.3864,-3.3362,0.0,0.0,0.0,0.0,0.0,0.0,0.0,0.0,0.0,0.0,0.0,0.0,0.0,0.0,0.0,0.0,0.0,0.0,0.0,0.0,0.0,0.0,0.0,0.0,0.0,0.0,0.0,0.0,0.0,0.0,0.0,0.0,0.0,0.0,0.0,0.0,0.0,0.0,0.0,0.0,0.0,0.0,0.0,0.0,0.0,0.0,0.0,0.0,0.0,0.0,0.0,0.0,0.0,0.0,0.0,0.0,0.0,0.0,0.0,0.0,0.0,0.0,0.0,0.0,0.0,0.0,0.0,0.0,0.0,0.0,0.0,0.0,0.0,0.0,0.0,0.0,0.0,0.0,0.0,0.0,0.0,0.0,0.0,0.0,0.0,0.0,0.0,0.0,0.0,0.0,0.0,0.0,0.0,0.0,0.0,0.0,0.0,0.0,0.0,0.0,0.0,0.0,-3.7862,-3.8973,-4.0084,-4.0772,-4.0546,-3.9016,-3.8476,-3.702,-3.409,-3.3561,0.0,0.0,0.0,0.0,0.0,0.0,0.0,0.0,0.0,0.0,0.0,0.0,0.0,0.0,0.0,0.0,0.0,0.0,0.0,0.0,0.0,0.0,0.0,0.0,0.0,0.0,0.0,0.0,0.0,0.0,0.0,0.0,0.0,0.0,0.0,0.0,0.0,0.0,0.0,0.0,0.0,0.0,0.0,0.0,0.0,0.0,0.0,0.0,0.0,0.0,0.0,0.0,0.0,0.0,0.0,0.0,0.0,0.0,0.0,0.0,0.0,0.0,0.0,0.0,0.0,0.0,0.0,0.0,0.0,0.0,0.0,0.0,0.0,0.0,0.0,0.0,0.0,0.0,0.0,0.0,0.0,0.0,0.0,0.0,0.0,0.0,0.0,0.0,0.0,0.0,0.0,0.0,0.0,0.0,0.0,0.0,0.0,0.0,0.0,0.0,0.0,0.0,-3.902,-4.0101,-4.0758,-4.0982,-4.0662,-3.9662,-3.8821,-3.7215,-3.4515,-3.3804,0.0,0.0,0.0,0.0,0.0,0.0,0.0,0.0,0.0,0.0,0.0,0.0,0.0,0.0,0.0,0.0,0.0,0.0,0.0,0.0,0.0,0.0,0.0,0.0,0.0,0.0,0.0,0.0,0.0,0.0,0.0,0.0,0.0,0.0,0.0,0.0,0.0,0.0,0.0,0.0,0.0,0.0,0.0,0.0,0.0,0.0,0.0,0.0,0.0,0.0,0.0,0.0,0.0,0.0,0.0,0.0,0.0,0.0,0.0,0.0,0.0,0.0,0.0,0.0,0.0,0.0,0.0,0.0,0.0,0.0,0.0,0.0,0.0,0.0,0.0,0.0,0.0,0.0,0.0,0.0,0.0,0.0,0.0,0.0,0.0,0.0,0.0,0.0,0.0,0.0,0.0,0.0,0.0,0.0,0.0,0.0,0.0,0.0,0.0,0.0,0.0,0.0,-3.9365,-4.0366,0.0,-4.1152,-4.0819,-3.9697,-3.9069,-3.7471,-3.4574,0.0,0.0,0.0,0.0,0.0,0.0,0.0,0.0,0.0,0.0,0.0,0.0,0.0,0.0,0.0,0.0,0.0,0.0,0.0,0.0,0.0,0.0,0.0,0.0,0.0,0.0,0.0,0.0,0.0,0.0,0.0,0.0,0.0,0.0,0.0,0.0,0.0,0.0,0.0,0.0,0.0,0.0,0.0,0.0,0.0,0.0,0.0,0.0,0.0,0.0,0.0,0.0,0.0,0.0,0.0,0.0,0.0,0.0,0.0,0.0,0.0,0.0,0.0,0.0,0.0,0.0,0.0,0.0,0.0,0.0,0.0,0.0,0.0,0.0,0.0,0.0,0.0,0.0,0.0,0.0,0.0,0.0,0.0,0.0,0.0,0.0,0.0,0.0,0.0,0.0,0.0,0.0,0.0,0.0,0.0,0.0,0.0,0.0,0.0,0.0,0.0,0.0,-3.8508,-3.97,-4.0579,0.0,-4.1152,-4.0913,-3.9969,-3.9299,-3.7708,-3.4873,0.0,0.0,0.0,0.0,0.0,0.0,0.0,0.0,0.0,0.0,0.0,0.0,0.0,0.0,0.0,0.0,0.0,0.0,0.0,0.0,0.0,0.0,0.0,0.0,0.0,0.0,0.0,0.0,0.0,0.0,0.0,0.0,0.0,0.0,0.0,0.0,0.0,0.0,0.0,0.0,0.0,0.0,0.0,0.0,0.0,0.0,0.0,0.0,0.0,0.0,0.0,0.0,0.0,0.0,0.0,0.0,0.0,0.0,0.0,0.0,0.0,0.0,0.0,0.0,0.0,0.0,0.0,0.0,0.0,0.0,0.0,0.0,0.0,0.0,0.0,0.0,0.0,0.0,0.0,0.0,0.0,0.0,0.0,0.0,0.0,0.0,0.0,0.0,0.0,0.0,0.0,0.0,0.0,0.0,0.0,0.0,0.0,0.0,0.0,0.0,0.0,0.0,-3.8921,-4.0123,-4.0935,-4.1111,-4.1093,-4.0953,-4.0534,-3.9525,-3.7872,0.0,0.0,0.0,0.0,0.0,0.0,0.0,0.0,0.0,0.0,0.0,0.0,0.0,0.0,0.0,0.0,0.0,0.0,0.0,0.0,0.0,0.0,0.0,0.0,0.0,0.0,0.0,0.0,0.0,0.0,0.0,0.0,0.0,0.0,0.0,0.0,0.0,0.0,0.0,0.0,0.0,0.0,0.0,0.0,0.0,0.0,0.0,0.0,0.0,0.0,0.0,0.0,0.0,0.0,0.0,0.0,0.0,0.0,0.0,0.0,0.0,0.0,0.0,0.0,0.0,0.0,0.0,0.0,0.0,0.0,0.0,0.0,0.0,0.0,0.0,0.0,0.0,0.0,0.0,0.0,0.0,0.0,0.0,0.0,0.0,0.0,0.0,0.0,0.0,0.0,0.0,0.0,0.0,0.0,0.0,0.0,0.0,0.0,0.0,0.0,0.0,0.0,0.0,-3.8851,-4.0197,-4.1105,-4.1093,-4.1152,-4.1059,-4.0697,-4.0104,-3.8631,-3.5964,0.0,0.0,0.0,0.0,0.0,0.0,0.0,0.0,0.0,0.0,0.0,0.0,0.0,0.0,0.0,0.0,0.0,0.0,0.0,0.0,0.0,0.0,0.0,0.0,0.0,0.0,0.0,0.0,0.0,0.0,0.0,0.0,0.0,0.0,0.0,0.0,0.0,0.0,0.0,0.0,0.0,0.0,0.0,0.0,0.0,0.0,0.0,0.0,0.0,0.0,0.0,0.0,0.0,0.0,0.0,0.0,0.0,0.0,0.0,0.0,0.0,0.0,0.0,0.0,0.0,0.0,0.0,0.0,0.0,0.0,0.0,0.0,0.0,0.0,0.0,0.0,0.0,0.0,0.0,0.0,0.0,0.0,0.0,0.0,0.0,0.0,0.0,0.0,0.0,0.0,0.0,0.0,0.0,0.0,0.0,0.0,0.0,0.0,0.0,0.0,0.0,0.0,-3.8833,-4.0242,-4.1163,-4.1152,-4.1152,-4.1059,-4.0745,-4.0337,-3.9091,-3.6739,0.0,0.0,0.0,0.0,0.0,0.0,0.0,0.0,0.0,0.0,0.0,0.0,0.0,0.0,0.0,0.0,0.0,0.0,0.0,0.0,0.0,0.0,0.0,0.0,0.0,0.0,0.0,0.0,0.0,0.0,0.0,0.0,0.0,0.0,0.0,0.0,0.0,0.0,0.0,0.0,0.0,0.0,0.0,0.0,0.0,0.0,0.0,0.0,0.0,0.0,0.0,0.0,0.0,0.0,0.0,0.0,0.0,0.0,0.0,0.0,0.0,0.0,0.0,0.0,0.0,0.0,0.0,0.0,0.0,0.0,0.0,0.0,0.0,0.0,0.0,0.0,0.0,0.0,0.0,0.0,0.0,0.0,0.0,0.0,0.0,0.0,0.0,0.0,0.0,0.0,0.0,0.0,0.0,0.0,0.0,0.0,0.0,0.0,0.0,0.0,0.0,0.0,-3.8964,-4.0287,-4.1209,-4.1209,-4.1169,-4.1,-4.0745,-4.0387,-3.9412,-3.7711,0.0,0.0,0.0,0.0,0.0,0.0,0.0,0.0,0.0,0.0,0.0,0.0,0.0,0.0,0.0,0.0,0.0,0.0,0.0,0.0,0.0,0.0,0.0,0.0,0.0,0.0,0.0,0.0,0.0,0.0,0.0,0.0,0.0,0.0,0.0,0.0,0.0,0.0,0.0,0.0,0.0,0.0,0.0,0.0,0.0,0.0,0.0,0.0,0.0,0.0,0.0,0.0,0.0,0.0,0.0,0.0,0.0,0.0,0.0,0.0,-4.1657,0.0,0.0,0.0,0.0,0.0,0.0,0.0,0.0,0.0,0.0,0.0,0.0,0.0,0.0,0.0,0.0,0.0,0.0,0.0,0.0,0.0,0.0,0.0,0.0,0.0,0.0,0.0,0.0,0.0,0.0,0.0,0.0,0.0,0.0,0.0,0.0,0.0,0.0,0.0,0.0,0.0,-3.8964,-4.0376,-4.1318,-4.1209,-4.1163,-4.1088,-4.0888,-4.0583,-3.9832,-3.8438,-3.7494,0.0,0.0,0.0,0.0,0.0,0.0,0.0,0.0,0.0,0.0,0.0,0.0,0.0,0.0,0.0,0.0,0.0,0.0,0.0,0.0,0.0,0.0,0.0,0.0,0.0,0.0,0.0,0.0,0.0,0.0,0.0,0.0,0.0,0.0,0.0,0.0,0.0,0.0,0.0,0.0,0.0,0.0,0.0,0.0,0.0,0.0,0.0,0.0,0.0,0.0,0.0,0.0,0.0,0.0,0.0,0.0,0.0,0.0,0.0,0.0,-4.2094,0.0,0.0,0.0,0.0,0.0,0.0,0.0,0.0,0.0,0.0,0.0,0.0,0.0,0.0,0.0,0.0,0.0,0.0,0.0,0.0,0.0,0.0,0.0,0.0,0.0,0.0,0.0,0.0,0.0,0.0,0.0,0.0,0.0,0.0,0.0,0.0,0.0,0.0,0.0,0.0,-3.9033,-4.042,-4.1363,-4.1209,-4.118,-4.1105,-4.0982,-4.068,-4.015,-3.9345,-3.8051,0.0,0.0,0.0,0.0,0.0,0.0,0.0,0.0,0.0,0.0,0.0,0.0,0.0,0.0,0.0,0.0,0.0,0.0,0.0,0.0,0.0,0.0,0.0,0.0,0.0,0.0,0.0,0.0,0.0,0.0,0.0,0.0,0.0,0.0,0.0,0.0,0.0,0.0,0.0,0.0,0.0,0.0,0.0,0.0,0.0,0.0,0.0,0.0,0.0,0.0,0.0,0.0,0.0,-4.2445,-4.29,-4.3604,-4.3832,-4.4803,-4.6177,-4.3926,-4.3131,-4.3302,0.0,0.0,0.0,0.0,0.0,0.0,0.0,0.0,0.0,0.0,0.0,0.0,0.0,0.0,0.0,0.0,0.0,0.0,0.0,0.0,0.0,0.0,0.0,0.0,0.0,-4.4244,-4.4112,0.0,0.0,0.0,0.0,0.0,0.0,0.0,0.0,0.0,0.0,0.0,0.0,-3.9207,-4.0463,-4.1335,-4.1209,-4.1169,-4.1093,-4.1093,-4.0745,-4.0436,-4.0188,-3.854,-3.7213,0.0,0.0,0.0,0.0,0.0,0.0,0.0,0.0,0.0,0.0,0.0,0.0,0.0,0.0,0.0,0.0,0.0,0.0,0.0,0.0,0.0,0.0,0.0,0.0,0.0,0.0,0.0,0.0,0.0,0.0,0.0,0.0,-3.828,-3.944,0.0,0.0,0.0,0.0,0.0,0.0,0.0,0.0,0.0,0.0,0.0,0.0,0.0,-4.2857,-4.234,-4.3041,-4.3902,-4.4919,-4.5624,-4.6527,-4.7531,-4.7587,-4.7736,-4.7976,-4.7584,0.0,-4.5271,-4.5242,0.0,0.0,0.0,0.0,0.0,0.0,0.0,0.0,0.0,0.0,0.0,0.0,0.0,0.0,0.0,0.0,0.0,0.0,0.0,0.0,0.0,0.0,-4.6641,-4.6597,-4.6149,-4.5561,0.0,-4.2626,-4.0053,-3.8866,-3.8553,0.0,0.0,0.0,0.0,0.0,0.0,0.0,-3.9718,-4.0585,-4.1169,-4.1209,-4.1169,-4.1093,-4.1093,-4.084,-4.06,-4.0485,-3.946,-3.8586,-3.7903,-3.7399,0.0,0.0,0.0,0.0,0.0,0.0,0.0,0.0,0.0,0.0,0.0,0.0,0.0,0.0,0.0,0.0,0.0,0.0,0.0,0.0,0.0,0.0,0.0,0.0,0.0,0.0,0.0,0.0,0.0,-3.8087,-3.9727,-4.0289,-4.0236,-4.0102,0.0,0.0,0.0,0.0,0.0,0.0,0.0,0.0,0.0,-4.3989,-4.4272,-4.4437,-4.4547,-4.4857,-4.526,-4.5737,-4.6065,-4.6525,-4.7132,-4.7574,-4.785,-4.7995,-4.8439,-4.8181,-4.737,-4.6468,-4.5111,-4.3576,0.0,0.0,0.0,0.0,-4.2189,-4.2391,-4.3833,-4.4596,0.0,0.0,0.0,0.0,0.0,0.0,0.0,0.0,0.0,0.0,0.0,0.0,0.0,-4.6912,-4.687,-4.64,-4.5196,-4.3696,-4.2253,0.0,-3.9814,-3.8971,-3.8453,0.0,0.0,0.0,0.0,-3.9579,-3.9971,-4.0654,-4.1093,-4.1059,-4.0935,-4.0905,-4.0982,-4.0745,-4.0583,-4.0583,-3.9749,-3.906,-3.8586,-3.7639,-3.6793,0.0,0.0,0.0,0.0,0.0,0.0,0.0,0.0,0.0,0.0,0.0,0.0,0.0,0.0,0.0,0.0,0.0,0.0,0.0,0.0,0.0,0.0,0.0,0.0,0.0,0.0,0.0,0.0,-3.9663,-4.0624,-4.073,-4.0712,-4.0453,0.0,0.0,0.0,0.0,0.0,0.0,-4.2978,-4.308,-4.3493,-4.432,-4.4702,-4.5278,-4.6027,-4.5941,-4.5965,-4.6133,-4.61,-4.6135,-4.6292,-4.6903,-4.7249,-4.7423,-4.8036,-4.8296,-4.8221,-4.7235,-4.6557,-4.6024,-4.4875,-4.4136,-4.3789,-4.4247,-4.4395,-4.4601,-4.6173,-4.6709,-4.658,-4.5732,0.0,-4.4727,-4.3643,0.0,0.0,0.0,0.0,-4.4948,-4.6579,-4.6599,-4.6305,-4.6635,-4.6746,-4.6356,-4.4821,-4.418,-4.3561,0.0,-4.1172,-4.0024,-3.9488,0.0,0.0,0.0,0.0,-4.0263,-4.0446,-4.0822,-4.0982,-4.0935,-4.0793,-4.0745,-4.0888,-4.068,-4.0583,-4.0697,-4.0087,-3.9594,-3.9193,-3.8199,-3.7622,-3.7497,0.0,0.0,0.0,0.0,0.0,0.0,0.0,0.0,0.0,0.0,0.0,0.0,0.0,0.0,0.0,0.0,0.0,0.0,0.0,0.0,0.0,0.0,0.0,0.0,0.0,0.0,0.0,0.0,0.0,-4.1991,-4.3111,0.0,0.0,0.0,0.0,-4.3825,-4.3286,-4.3378,-4.4355,-4.3624,-4.3568,-4.4364,-4.4552,-4.4956,-4.5615,-4.5615,-4.5947,-4.6573,-4.6494,-4.6461,-4.6494,-4.6531,-4.655,-4.655,-4.6605,-4.6624,-4.6735,-4.8184,-4.7782,-4.6271,-4.6128,-4.5065,-4.3818,-4.5383,-4.5972,-4.6193,-4.7813,-4.8384,-4.8089,-4.6397,-4.498,-4.414,-4.5629,-4.5119,0.0,0.0,-4.6424,-4.6539,-4.7286,-4.7437,-4.7233,-4.641,-4.5653,-4.5097,-4.4989,-4.3818,-4.2732,0.0,-4.2149,-4.1886,-4.1831,0.0,-4.1301,-4.1651,-4.1281,-4.1049,-4.1376,-4.1146,-4.0935,-4.0888,-4.0793,-4.0745,-4.0888,-4.0793,-4.0697,-4.0697,-4.0648,-4.0436,-4.007,-3.9969,-3.9429,-3.8334,-3.8284,0.0,0.0,0.0,0.0,0.0,0.0,0.0,0.0,0.0,0.0,0.0,0.0,0.0,0.0,0.0,0.0,0.0,0.0,0.0,0.0,0.0,0.0,0.0,0.0,0.0,0.0,0.0,0.0,-4.2137,-4.2462,0.0,-4.1848,-4.2598,-4.2769,-4.1875,-4.2706,-4.3133,-4.2837,-4.2482,-4.2716,-4.3586,-4.3642,-4.4027,-4.4813,-4.4832,-4.4923,-4.5133,-4.5102,-4.5072,-4.509,-4.5612,-4.5854,-4.5892,-4.6395,-4.6605,-4.6629,-4.7173,-4.7029,-4.6442,-4.6409,-4.6023,-4.5619,-4.6662,-4.7052,-4.72,-4.82,-4.8532,-4.8421,-4.7795,-4.7242,-4.6965,-4.7696,-4.7173,-4.6446,-4.7107,-4.6917,-4.6615,-4.6795,-4.6903,-4.668,-4.5853,-4.5393,-4.5041,-4.4485,-4.3923,-4.3558,-4.359,-4.2721,-4.2014,-4.201,-4.2031,-4.1967,-4.1668,-4.1511,-4.146,-4.1481,-4.1163,-4.0888,-4.0793,-4.0631,-4.0648,-4.0745,-4.0631,-4.0631,-4.084,-4.0745,-4.0648,-4.0485,-4.0337,-4.0019,-3.9648,-3.9548,-3.8841,0.0,0.0,0.0,0.0,0.0,0.0,0.0,0.0,0.0,0.0,0.0,0.0,0.0,0.0,0.0,0.0,0.0,0.0,0.0,0.0,0.0,0.0,0.0,0.0,0.0,0.0,-4.284,-4.2286,-4.2777,-4.2815,-4.1879,-4.2797,-4.3085,-4.2221,-4.2724,-4.2943,-4.2678,-4.1989,-4.2039,-4.3013,-4.2919,-4.3227,-4.4036,-4.3774,-4.3718,-4.3855,-4.3855,-4.3855,-4.3893,-4.4715,-4.5088,-4.5107,-4.5649,-4.5861,-4.5817,-4.5817,-4.5786,-4.5778,-4.6271,-4.6409,-4.6468,-4.6937,-4.7141,-4.718,-4.7644,-4.7757,-4.7721,-4.7794,-4.783,-4.783,-4.7972,-4.767,-4.7244,-4.7326,-4.7001,-4.6549,-4.6206,-4.6164,-4.5959,-4.5077,-4.4859,-4.4692,-4.4116,-4.4005,-4.4036,-4.4184,-4.3287,-4.2582,-4.2735,-4.2865,-4.2614,-4.1701,-4.1971,-4.1966,-4.1078,-4.1041,-4.0995,-4.0745,-4.0648,-4.0583,-4.0697,-4.012,-4.0083,-4.0853,-4.0311,-4.0117,-4.0534,-4.0099,-3.9832,-3.9732,-3.9665,-3.9175,-3.8115,0.0,0.0,0.0,0.0,0.0,0.0,0.0,0.0,0.0,0.0,0.0,0.0,0.0,0.0,0.0,0.0,0.0,0.0,0.0,0.0,0.0,0.0,0.0,-4.2733,-4.33,-4.3444,-4.2607,-4.4269,-4.5036,-4.3855,-4.4708,-4.5285,-4.5165,-4.349,-4.2961,-4.4093,-4.2292,-4.1711,-4.2718,-4.2547,-4.2735,-4.3307,-4.2535,-4.2431,-4.2978,-4.2978,-4.2978,-4.3015,-4.3837,-4.424,-4.424,-4.4277,-4.4277,-4.4277,-4.4296,-4.4314,-4.4434,-4.5718,-4.6181,-4.6149,-4.6168,-4.6205,-4.6223,-4.6274,-4.6274,-4.6239,-4.6428,-4.6494,-4.6494,-4.6494,-4.6475,-4.649,-4.6536,-4.6549,-4.6345,-4.5562,-4.5357,-4.5121,-4.4222,-4.4005,-4.4005,-4.4005,-4.4005,-4.4055,-4.4184,-4.3878,-4.3763,-4.4207,-4.4017,-4.3336,-4.1965,-4.2696,0.0,-4.038,-4.0908,-4.1293,-4.0724,-4.0628,-4.0628,-4.0628,-3.9272,-3.9112,-4.0784,-3.9353,-3.9012,-4.0237,-3.951,-3.8923,-3.869,-3.8757,-3.8889,-3.8988,0.0,0.0,0.0,0.0,0.0,0.0,0.0,0.0,0.0,0.0,0.0,0.0,0.0,0.0,0.0,0.0,0.0,0.0,0.0,0.0,0.0,0.0,-4.3687,-4.3618,-4.4423,-4.4993,-4.4939,-4.531,-4.5433,-4.5109,-4.5515,-4.5418,-4.4474,-4.4061,-4.3705,-4.3343,-4.2712,-4.2811,-4.3818,-4.3616,-4.3542,-4.3658,-4.3296,-4.2836,-4.2256,-4.2256,-4.2256,-4.2275,-4.2519,-4.2612,-4.265,-4.3296,-4.3549,-4.3549,-4.4129,-4.4325,-4.4341,-4.471,-4.4836,-4.4879,-4.5393,-4.5871,-4.6357,-4.639,-4.6338,-4.6357,-4.6461,-4.6494,-4.6494,-4.6494,-4.6085,-4.5621,-4.5653,-4.5188,-4.4699,-4.4575,-4.447,-4.4333,-4.4191,-4.4055,-4.4005,-4.4005,-4.4085,-4.4165,-4.4274,-4.4177,-4.4147,-4.4285,-4.4097,-4.3806,-4.3367,-4.3183,0.0,-4.2192,-4.1766,-4.1025,-3.9809,-3.9306,-3.9095,-3.9187,-3.8608,-3.8973,-4.0642,-4.0302,-4.0155,-4.0419,-4.0297,-4.0129,-3.9982,-3.9406,-3.9103,0.0,0.0,0.0,0.0,0.0,0.0,0.0,0.0,0.0,0.0,0.0,0.0,0.0,0.0,0.0,0.0,0.0,0.0,0.0,0.0,0.0,0.0,-4.3522,-4.4575,-4.4773,-4.5301,-4.5723,-4.588,-4.5815,-4.5777,-4.577,-4.5914,-4.57,-4.4949,-4.4608,-4.4389,-4.4305,-4.3747,-4.3894,-4.4906,-4.472,-4.4518,-4.429,-4.3852,-4.3258,-4.2543,-4.2187,-4.1991,-4.1991,-4.1991,-4.1991,0.0,-4.2919,-4.3267,-4.3315,-4.4121,-4.443,0.0,0.0,0.0,0.0,0.0,-4.5008,-4.5352,-4.5352,-4.5338,-4.5338,-4.5421,-4.5421,-4.5389,-4.5389,-4.4832,-4.4202,-4.4202,-4.3621,-4.3002,-4.3081,-4.3292,-4.3503,-4.3583,-4.3794,-4.4005,-4.4005,-4.4055,-4.4165,-4.4285,0.0,0.0,-4.4373,-4.4266,-4.3904,-4.3125,-4.3254,-4.3082,-4.2141,-4.1868,-4.14,-4.0348,-3.9753,-3.9468,-3.956,-3.882,0.0,0.0,0.0,-3.989,-4.0055,-4.012,0.0,0.0,0.0,-3.945,-3.9659,0.0,0.0,0.0,-3.8904,-3.8828,0.0,0.0,0.0,0.0,0.0,0.0,0.0,0.0,0.0,0.0,0.0,0.0,0.0,0.0,0.0,0.0,-4.4631,-4.5465,-4.5732,-4.5686,-4.5686,-4.5912,-4.5883,-4.5878,-4.5889,-4.5783,-4.5726,-4.5726,-4.4905,-4.4808,-4.5774,0.0,0.0,0.0,0.0,-4.5312,-4.4954,-4.4131,-4.3498,-4.3107,-4.219,-4.1769,-4.1769,-4.1736,-4.1736,-4.1792,-4.2637,-4.3013,-4.3069,-4.3895,-4.4289,-4.4355,-4.4335,-4.4314,-4.4314,-4.4116,-4.3992,-4.3929,-4.3929,0.0,0.0,-4.3942,-4.3961,-4.3897,-4.3897,-4.3397,-4.2841,-4.2841,-4.231,-4.1739,-4.175,-4.2184,-4.2686,-4.2809,-4.3336,-4.3893,-4.3986,-4.4005,-4.4085,-4.4255,-4.4314,-4.4344,-4.4458,-4.4411,-4.3849,-4.2305,-4.3167,-4.3291,-4.1412,-4.1829,-4.2068,-4.1445,0.0,0.0,-4.0676,-3.937,-3.9295,-4.096,-3.9658,-3.9009,-3.9525,-3.9512,-3.9399,-3.9156,-3.9457,-3.9795,-4.0169,-4.0218,-4.0366,-4.059,-3.9115,-3.8951,0.0,0.0,0.0,0.0,0.0,0.0,0.0,0.0,0.0,0.0,0.0,0.0,0.0,0.0,0.0,-4.2699,-4.3833,-4.4717,-4.4987,-4.4404,-4.4501,-4.5881,-4.5501,-4.5118,-4.5114,-4.4483,-4.4067,-4.4067,-4.3884,-4.3864,-4.407,-4.3856,-4.415,-4.5043,-4.4885,-4.4724,-4.4597,-4.358,-4.2694,-4.1915,0.0,0.0,-4.0287,-4.0131,-4.0046,-4.0103,-4.0929,-4.1285,-4.1342,-4.2168,-4.29,-4.3595,-4.4224,-4.4458,-4.4458,-4.4314,-4.4226,-4.4195,-4.4055,-4.3974,-4.3961,-4.3929,-4.3897,-4.3897,-4.3897,-4.3786,0.0,-4.3751,-4.3188,-4.2586,-4.2627,-4.2244,-4.201,-4.272,-4.2969,-4.3206,-4.3856,-4.4085,-4.4214,-4.4285,-4.4344,-4.4383,-4.4411,-4.4354,-4.4202,-4.3855,-4.3942,-4.3844,-4.3415,-4.3256,-4.2487,-4.0666,-4.0055,-3.9578,-3.9071,-3.8677,-3.9112,-4.0659,-4.0357,-4.0223,-4.0426,-4.0329,-4.0263,-4.0214,-3.9682,-3.9491,-3.9597,-3.9628,-3.98,-4.0049,-4.0048,-4.0271,0.0,0.0,0.0,0.0,0.0,0.0,0.0,0.0,0.0,0.0,0.0,-3.6949,0.0,0.0,-4.1784,-4.2489,-4.3376,-4.3993,-4.4132,-4.3794,-4.3868,-4.4748,-4.4479,-4.424,-4.4253,-4.3851,-4.3598,-4.3603,-4.3603,-4.3591,-4.3598,-4.3591,-4.3805,-4.4233,-4.4159,-4.4024,-4.3846,-4.3316,-4.2761,-4.2136,-4.117,-4.0692,-4.0673,-4.0152,-3.9897,-3.9954,-4.065,-4.0957,-4.099,-4.1713,-4.228,-4.2731,-4.3576,-4.4158,-4.4487,-4.4344,-4.4285,-4.4285,-4.4067,-4.4005,-4.4005,-4.4005,-4.3974,-4.3868,-4.3478,-4.3348,-4.3274,-4.2866,-4.2192,-4.159,-4.1649,-4.1322,-4.1118,-4.1556,-4.2203,-4.2878,-4.333,-4.3788,-4.4116,-4.4207,-4.4325,-4.4383,-4.4373,-4.4344,-4.4344,-4.4314,-4.4207,-4.4147,-4.4048,-4.3693,-4.2755,-4.1089,-4.0495,-4.0011,-3.9388,-3.9589,-4.0077,-4.0853,-4.0776,-4.0728,-4.0793,-4.0745,-4.0631,-4.0485,-4.0271,-3.9894,-3.9375,-3.9405,-3.9404,-3.9271,-3.9753,-4.0444,0.0,0.0,0.0,0.0,0.0,0.0,0.0,0.0,-3.0145,-3.5111,-3.6372,-3.7514,-4.0554,-4.1261,-4.1666,-4.2488,-4.2983,-4.3264,-4.3283,-4.3182,-4.3111,-4.3111,-4.3266,-4.337,-4.3376,-4.3202,-4.3111,-4.3111,-4.3091,-4.3098,-4.3117,-4.3117,-4.3195,-4.3344,-4.3344,-4.3319,-4.3275,-4.3125,-4.2899,-4.2618,-4.1747,-4.133,-4.1294,-4.0534,-4.0192,-4.0232,-4.0726,-4.0903,-4.0912,-4.1569,-4.18,-4.1841,-4.2685,-4.3483,-4.4233,-4.4288,-4.4285,-4.4285,-4.4067,-4.4005,-4.4005,-4.4079,-4.3924,-4.3621,-4.3002,-4.2767,-4.2607,-4.1915,-4.1278,-4.0789,-4.0789,-4.0677,-4.0603,-4.0752,-4.1809,-4.2792,-4.3044,-4.3602,-4.4067,-4.414,-4.4277,-4.4345,-4.4138,-4.4158,-4.4214,-4.4325,-4.4314,-4.4266,-4.417,-4.3855,-4.3109,-4.1796,-4.1443,-4.1055,-4.0339,-4.073,-4.1047,-4.1047,-4.0935,-4.0888,-4.0888,-4.0888,-4.0776,-4.0583,-4.0638,-4.0191,-3.9247,-3.9247,-3.8992,-3.8476,-3.9129,-4.0117,-1.2469,-1.4837,-1.7356,-1.9165,-2.0825,-2.2902,0.0,0.0,-3.0615,-3.4393,-3.6648,-3.8455,-4.0018,-4.1477,-4.2488,-4.267,-4.2497,-4.2393,-4.2499,-4.1861,-4.1379,-4.1374,-4.2056,-4.2534,-4.2534,-4.1822,-4.1373,-4.1379,-4.1318,-4.1311,-4.1382,-4.137,-4.1714,-4.2416,-4.2455,-4.2799,-4.3545,-4.2786,-4.2391,-4.2325,-4.1241,-4.0698,-4.0698,-4.0345,-4.0189,-4.0211,-4.0272,-4.0194,-4.0081,-4.087,-4.1089,-4.0997,-4.1696,-4.2464,-4.3239,-4.4005,-4.4285,-4.4285,-4.4067,-4.4005,-4.4005,-4.4005,-4.3491,-4.2854,-4.2804,-4.2656,-4.2543,-4.2551,-4.2408,-4.2253,-4.2253,-4.1717,-4.1366,-4.2087,-4.2526,-4.3002,-4.3708,-4.4072,-4.4285,-4.4354,-4.4383,-4.4186,-4.353,-4.3426,-4.3642,-4.427,-4.4383,-4.4383,-4.4383,-4.4383,-4.3725,-4.2026,-4.2232,-4.2029,-4.092,-4.0884,-4.0935,-4.0935,-4.0935,-4.0888,-4.0888,-4.0888,-4.0888,-4.0888,-4.0181,-3.9457,-3.867,-3.8839,-3.8512,-3.792,-3.8746,-3.9599,-1.4171,-1.5878,-1.7433,-1.941,-2.115,-2.316,-2.6165,-2.8355,-3.085,-3.4426,-3.6863,-3.859,-3.9556,-4.0921,-4.1807,0.0,-4.15,-4.1583,-4.1642,-4.1335,-4.1094,-4.1097,-4.1429,-4.1635,-4.1647,-4.1316,-4.1101,-4.1106,-4.1076,-4.1076,-4.1106,-4.11,-4.1251,-4.1582,-4.1602,-4.1777,-4.2148,-4.174,-4.1536,-4.1536,-4.1024,-4.0776,-4.0773,-4.063,-4.0487,-4.037,-4.0372,-4.0269,-4.0099,-4.0441,-4.0469,-4.0339,-4.1103,-4.1525,-4.1873,-4.3013,-4.3737,-4.4097,-4.4036,-4.4005,-4.4005,-4.4005,-4.3751,-4.3367,-4.2903,-4.3008,-4.3222,-4.2709,-4.253,-4.2479,-4.2479,-4.1889,-4.1372,-4.1704,-4.2292,-4.2878,-4.3286,-4.3871,-4.4314,-4.4344,-4.4383,-4.4346,-4.3952,-4.382,-4.3885,-4.4192,-4.3971,-4.3718,-4.3596,-4.3804,-4.3305,-4.1577,-4.127,-4.0961,-4.0492,-4.0723,-4.0792,-4.0435,-4.0418,-4.0283,-3.9948,-4.0249,-4.0193,-3.9742,-3.9692,-3.9129,-3.7939,-3.8,-3.7733,-3.7172,-3.7878,-3.8611,-1.4773,-1.5883,-1.6935,-1.9124,-2.0977,-2.2877,-2.5185,-2.7611,-3.0186,-3.3115,-3.5844,-3.7916,-3.8634,-4.0081,-4.1027,-4.0623,-4.0864,-4.1097,-4.1101,-4.1103,-4.1092,-4.1092,-4.1093,-4.1091,-4.1091,-4.1107,-4.1107,-4.1101,-4.1091,-4.1094,-4.1097,-4.1109,-4.1105,-4.1105,-4.1096,-4.1091,-4.1091,-4.1039,-4.0993,-4.0993,-4.0952,-4.0927,-4.0927,-4.0848,-4.0706,-4.0579,-4.0583,-4.0473,-4.0286,-4.0286,-4.0177,-4.0015,-4.0495,-4.0887,-4.1267,-4.2135,-4.2995,-4.3751,-4.3992,-4.4036,-4.4005,-4.4005,-4.3825,-4.3497,-4.2878,-4.3069,-4.3338,-4.2664,-4.2631,-4.2765,-4.2765,-4.2207,-4.1654,-4.1843,-4.2321,-4.278,-4.3137,-4.3748,-4.4237,-4.4285,-4.4325,-4.425,-4.3938,-4.3793,-4.3669,-4.3427,-4.3258,-4.3184,-4.3245,-4.3116,-4.2629,-4.1522,-4.0602,-4.0172,-4.0336,-4.0671,-4.074,-4.0342,-4.019,-3.9896,-3.9476,-3.9722,-3.9565,-3.8903,-3.9292,-3.8839,-3.756,-3.756,-3.7307,-3.6806,-3.7224,-3.7732,-1.2988,-1.4041,-1.5579,-1.8031,-1.9898,-2.1641,-2.352,-2.6038,-2.8287,-2.9508,-3.3042,-3.6141,-3.7014,-3.8999,-4.0551,-4.0691,-4.0925,-4.1108,-4.1091,-4.1093,-4.1094,-4.1092,-4.111,-4.1108,0.0,-4.1093,-4.1094,-4.1093,-4.1093,-4.1091,-4.1091,-4.1099,-4.1108,-4.1108,-4.1109,-4.1091,-4.1091,-4.1025,-4.0994,-4.1007,-4.0996,-4.1002,-4.0982,-4.0868,-4.0804,-4.0788,-4.0784,-4.0673,-4.0489,-4.0489,-4.0372,-4.0139,-3.9794,-4.0637,-4.2033,-4.1745,-4.2217,-4.3135,-4.4005,-4.4177,-4.4005,-4.4005,-4.3423,-4.273,-4.2712,-4.2585,-4.2423,-4.2404,-4.2923,-4.3461,-4.3461,-4.2923,-4.2551,-4.3256,-4.3056,-4.2946,-4.3769,-4.3986,-4.4067,-4.4255,-4.4147,-4.3763,-4.2965,-4.2835,-4.2556,-4.1709,-4.2277,-4.3064,-4.3799,-4.2571,-4.183,-4.2304,-4.1029,-4.029,-4.0832,-4.0871,-4.0871,-4.0901,-4.0394,-4.0068,-4.0095,-3.952,-3.9143,-3.8886,-3.8921,-3.8538,-3.7773,-3.7773,-3.7563,-3.7108,-3.7027,-3.7238,-1.3918,-1.4812,-1.5936,-1.8142,-1.9124,-2.002,-2.1652,-2.4015,-2.6427,-2.8441,-3.1118,-3.3799,-3.6217,-3.7874,-3.9138,-3.9857,-4.0615,-4.1108,-4.1092,-4.1105,-4.1074,-4.1046,-4.1039,0.0,0.0,0.0,0.0,-4.1108,-4.1107,-4.1108,-4.1093,-4.1094,-4.1091,-4.1103,-4.1099,-4.1091,-4.1097,-4.1076,-4.1061,-4.1081,-4.0991,-4.0924,-4.0924,-4.0849,-4.0804,-4.08,-4.0808,-4.0771,-4.0706,-4.0706,-4.0583,-4.0447,-4.0842,-4.1166,-4.1539,-4.2453,-4.281,-4.2999,-4.3818,-4.4067,-4.4005,-4.4005,-4.3775,-4.3508,-4.3444,-4.3314,-4.3195,-4.3162,-4.2959,-4.2757,-4.2757,-4.2607,-4.2459,-4.2702,-4.3125,-4.3564,-4.3809,-4.3974,-4.4079,-4.4097,-4.4036,-4.3912,-4.3633,-4.3521,-4.3319,-4.2908,-4.2696,-4.2775,-4.3296,-4.2159,-4.1403,-4.1782,-4.0158,-3.9582,-4.0814,-4.0405,-4.0205,-4.0377,-4.0179,-3.9748,-3.8995,-3.9111,-3.876,-3.7857,-3.8211,-3.8006,-3.7253,-3.7253,-3.7273,-3.7203,-3.7048,-3.7164,-1.3846,-1.4421,-1.5191,-1.7005,-1.7617,-1.8087,-1.9304,-2.1378,-2.355,-2.5297,-2.8103,-3.1005,-3.3563,-3.6047,-3.7825,-3.8216,-3.9587,-4.0496,-4.0213,-4.068,-4.1042,-4.0967,-4.1188,-4.119,0.0,0.0,0.0,-4.1062,-4.1097,-4.1101,-4.1099,-4.1105,-4.1091,-4.1094,-4.1091,-4.1105,-4.1097,-4.1094,-4.1096,-4.1106,-4.102,-4.0957,-4.0904,-4.0859,-4.0828,-4.0792,-4.08,-4.0808,-4.0803,-4.0803,-4.0893,-4.108,-4.152,-4.1893,-4.2286,-4.3213,-4.3495,-4.345,-4.3806,-4.3878,-4.3814,-4.3814,-4.3781,-4.3734,-4.3719,-4.3634,-4.3548,-4.3513,-4.3146,-4.2794,-4.2794,-4.2607,-4.2478,-4.272,-4.3111,-4.3449,-4.3763,-4.3846,-4.3892,-4.3942,-4.3878,-4.3814,-4.3814,-4.3734,-4.3652,-4.3532,-4.314,-4.2941,-4.3211,-4.2356,-4.1743,-4.1768,-4.0464,-3.9891,-4.0562,-4.0147,-3.9822,-3.9783,-3.9608,-3.9164,-3.8443,-3.8563,-3.821,-3.7314,-3.7619,-3.758,-3.7105,-3.7048,-3.7126,-3.7334,-3.7126,-3.7164,-1.2862,-1.2977,-1.3376,-1.4877,-1.5536,-1.5964,-1.6501,-1.8238,-1.986,-2.0414,-2.4183,-2.7843,0.0,0.0,-3.6637,-3.594,-3.7995,-3.9413,-3.8658,-3.9877,-4.0867,0.0,0.0,0.0,0.0,0.0,0.0,-4.0889,0.0,-4.11,-4.1091,-4.1081,-4.1097,-4.1099,-4.1094,-4.1108,-4.1108,-4.1091,-4.1105,-4.11,-4.11,-4.1026,-4.0913,-4.0913,-4.0869,-4.0818,-4.0812,-4.08,-4.08,-4.0803,-4.1274,-4.1996,-4.1836,-4.2727,-4.4097,-4.3916,-4.4132,-4.4449,-4.3961,-4.3686,-4.3532,-4.3532,-4.3513,-4.3532,-4.3532,-4.3532,-4.3479,-4.3497,-4.3461,-4.3424,-4.3424,-4.2923,-4.2588,-4.3293,-4.2941,-4.2728,-4.3666,-4.3701,-4.36,-4.3851,-4.3701,-4.3497,-4.3497,-4.3497,-4.3497,-4.3497,-4.3461,-4.3442,-4.3479,-4.3105,-4.2675,-4.2239,-4.1672,-4.0981,-4.0182,-4.006,-3.9783,-3.9228,-3.873,-3.8443,-3.839,-3.7929,-3.7557,-3.7297,-3.7297,-3.7297,-3.7297,-3.7185,-3.7223,-3.7392,-3.7223,-3.7223,-1.3053,-1.3293,-1.3638,-1.4472,-1.4185,-1.3837,-1.443,-1.5797,-1.741,-1.9195,-2.2169,-2.5265,-2.7892,0.0,0.0,-3.4808,-3.7467,0.0,-3.9341,-3.9034,0.0,-4.032,0.0,-3.9753,-3.9947,-4.006,0.0,0.0,-4.0461,-4.1032,-4.1019,-4.1037,-4.1061,-4.1091,-4.1101,-4.1108,-4.1094,-4.1091,-4.1103,-4.1097,-4.1097,-4.1072,-4.1045,-4.0999,-4.0932,-4.0878,-4.0868,-4.0856,-4.0796,-4.08,-4.1311,-4.2131,-4.2679,-4.3412,-4.4226,-4.4729,-4.4868,-4.4719,-4.4204,-4.3949,-4.3878,-4.3878,-4.3846,-4.38,-4.3753,-4.3634,-4.3548,-4.3513,-4.3091,-4.2665,-4.2665,-4.2551,-4.2441,-4.2662,-4.2993,-4.3376,-4.3612,-4.3701,-4.3753,-4.3818,-4.3701,-4.3513,-4.3304,-4.3358,-4.3376,-4.3286,-4.2757,-4.2662,-4.3406,-4.2339,-4.1733,-4.2144,-4.0134,-3.9112,-3.9998,-3.918,-3.8783,-3.9175,-3.9059,-3.883,-3.8426,-3.8291,-3.7978,-3.7521,-3.7503,-3.7503,-3.7503,-3.7392,-3.7337,-3.7392,-3.7354,-3.7337,-1.3058,-1.3083,-1.3185,-1.347,-1.3094,-1.2768,-1.3195,-1.4111,-1.528,-1.664,-1.9531,-2.2462,-2.4573,-2.9476,-3.3095,0.0,0.0,0.0,-3.7837,-3.7978,-3.8344,0.0,-3.9235,0.0,-3.9113,-3.9472,-3.9618,0.0,-4.025,-4.0674,-4.0446,-4.0799,-4.1019,-4.1052,-4.1074,-4.1097,-4.1091,-4.1094,-4.1092,-4.111,-4.1097,-4.1097,-4.11,-4.1064,-4.1006,-4.0941,0.0,-4.0878,-4.0837,-4.0815,-4.1296,-4.2187,-4.2995,-4.3714,-4.4418,-4.5199,-4.5265,-4.4931,-4.4632,-4.4436,-4.4194,-4.3873,-4.3749,-4.3734,-4.3686,-4.36,-4.3566,-4.3532,-4.3133,-4.275,-4.275,-4.2681,-4.2627,-4.2627,-4.2957,-4.3339,-4.341,-4.3463,-4.3481,-4.355,-4.3463,-4.3375,-4.3251,-4.3251,-4.3177,-4.2722,-4.2338,-4.2205,-4.2448,-4.1684,-4.127,-4.1594,-4.0006,-3.9102,-3.9547,-3.8765,-3.8307,-3.8475,-3.8514,-3.8359,-3.8067,-3.8049,-3.7911,-3.7594,-3.7577,-3.7613,-3.7649,-3.754,-3.7503,-3.7522,-3.7503,-3.7503,-1.2926,-1.2668,-1.2475,-1.2323,-1.2285,-1.2362,-1.2534,-1.3058,-1.3596,-1.3948,-1.7019,-1.9938,-2.0884,-2.6605,-3.1002,-3.0455,0.0,-3.6241,-3.5733,-3.6922,-3.7713,-3.7468,-3.861,-3.9069,-3.8075,-3.8625,-3.9091,-3.9188,-3.9804,-4.0005,-3.9636,-4.026,-4.0699,-4.0824,-4.1003,-4.1081,-4.1086,-4.1091,-4.1094,-4.1093,-4.1108,-4.1097,-4.1097,-4.1105,-4.107,-4.1011,0.0,0.0,-4.0917,-4.0848,-4.133,-4.2183,-4.2865,-4.3705,-4.4568,-4.5272,-4.5377,-4.5161,-4.5123,-4.489,-4.453,-4.3881,-4.3612,-4.3563,-4.3563,-4.3513,-4.3463,-4.3463,-4.3322,-4.3178,-4.3178,-4.305,-4.2882,-4.2882,-4.2882,-4.2957,-4.3123,-4.3142,-4.3123,-4.3178,-4.3196,-4.3178,-4.3032,-4.3014,-4.2741,-4.1956,-4.1827,-4.1653,-4.1098,-4.1098,-4.1071,-4.0918,-4.0539,-3.9914,-3.8996,-3.8556,-3.814,-3.7667,-3.7631,-3.7667,-3.7649,-3.7649,-3.7649,-3.7649,-3.7649,-3.7649,-3.7721,-3.7649,-3.7649,-3.7703,-3.7649,-3.7631,-1.2733,-1.2596,-1.2513,-1.2208,-1.199,-1.1943,-1.2419,-1.2776,-1.3228,-1.3945,-1.659,-1.9139,-2.0192,-2.4811,-2.8865,-3.0049,-3.2631,-3.4957,-3.6301,-3.6417,-3.6538,0.0,-3.7031,-3.6859,-3.6434,-3.6573,0.0,0.0,0.0,-3.8651,-3.9166,-3.8933,-3.912,-3.991,-4.0636,-4.1013,-4.1025,-4.107,-4.1091,-4.1099,-4.1091,-4.1093,-4.1103,-4.1091,-4.109,-4.1075,-4.0999,0.0,-4.0971,-4.0908,-4.1401,-4.2197,-4.228,-4.3215,-4.451,-4.4665,-4.5054,-4.5476,-4.514,-4.4988,-4.4877,-4.4581,-4.4186,-4.3819,-4.3819,-4.3539,-4.3232,-4.3232,-4.3196,-4.3141,-4.3141,-4.2994,-4.2882,-4.2882,-4.2882,-4.292,-4.3032,-4.3178,-4.325,-4.3196,-4.325,-4.2995,-4.2105,-4.205,-4.185,-4.105,-4.0377,-4.0039,-4.0184,-4.0569,-4.0836,-4.0899,-4.0112,-3.9385,-3.8942,-3.8455,-3.8059,-3.7864,-3.7864,-3.7916,-3.8,-3.7949,-3.7915,-3.7915,-3.7881,-3.7864,-3.7864,-3.7757,-3.7703,-3.7703,-3.781,-3.7864,-1.2692,-1.2346,-1.2032,-1.1882,-1.1792,-1.193,-1.2605,-1.3091,-1.3793,-1.5038,-1.7144,-1.9058,-2.0017,-2.3938,-2.7426,-2.8643,-3.1369,-3.3754,-3.4909,-3.5249,-3.5367,-3.5347,-3.5518,-3.556,-3.5314,-3.5678,-3.5841,0.0,0.0,-3.6829,-3.7648,-3.8022,-3.8421,-3.8899,-3.977,-4.0252,-4.031,-4.0811,-4.1076,-4.1101,-4.1099,-4.1091,-4.1093,-4.1108,-4.1097,-4.1101,-4.1072,0.0,-4.0991,-4.098,-4.1178,-4.1568,-4.1983,-4.2869,-4.3963,-4.4312,-4.4935,-4.5565,-4.5303,-4.518,-4.514,-4.5036,-4.4625,-4.4128,-4.3986,-4.3772,-4.3563,-4.341,-4.3233,-4.3104,-4.3104,-4.2899,-4.2541,-4.1934,-4.1368,-4.1092,-4.1794,-4.1602,-4.1335,-4.1353,-4.1504,-4.1487,-4.0978,-4.1035,-4.0907,-4.0127,-3.9726,-3.941,-3.9245,-3.9239,-3.9407,-3.9717,-3.9177,-3.8676,-3.8383,-3.8095,-3.788,-3.7899,-3.7985,-3.8018,-3.8101,-3.8068,-3.8052,-3.7984,-3.8088,-3.8072,-3.7933,-3.8052,-3.8101,-3.8086,-3.8256,-3.8307,-1.2786,-1.2289,-1.179,-1.1834,-1.1902,-1.2182,-1.3006,-1.3552,-1.4387,-1.6075,-1.7617,-1.9044,-2.0256,-2.3247,-2.5984,-2.7374,-3.0013,-3.2232,-3.3165,-3.4092,-3.4445,-3.3854,-3.4458,0.0,-3.4395,-3.4896,0.0,0.0,0.0,0.0,-3.6031,-3.7123,-3.7771,-3.7923,-3.875,-3.9248,-3.9369,-4.0069,-4.0435,-4.0476,-4.0699,-4.0798,-4.0812,-4.1015,-4.1093,-4.1105,-4.1099,0.0,0.0,-4.1,-4.0964,-4.0993,-4.1655,-4.2518,-4.3443,-4.3974,-4.4774,-4.5577,-4.5189,-4.5035,-4.4937,-4.4681,-4.4521,-4.4411,-4.4192,-4.3999,-4.3828,-4.3563,-4.3251,-4.303,-4.303,-4.2763,-4.2208,-4.1044,-3.9922,-3.935,-4.0377,-3.9858,-3.9247,-3.9509,-3.9637,-3.9703,-3.9741,-3.9911,-3.9788,-3.9031,-3.8975,-3.8844,-3.8405,-3.8047,-3.7977,-3.8373,-3.8245,-3.808,-3.7893,-3.7826,-3.788,-3.7985,-3.8086,-3.8168,-3.8219,-3.8038,-3.7914,-3.7866,-3.8016,-3.8016,-3.7866,-3.8323,-3.851,-3.8465,-3.8609,-3.8689,-1.3001,-1.2789,-1.2464,-1.2572,-1.2558,-1.2763,-1.3622,-1.3859,-1.4382,-1.613,-1.7243,-1.8601,-2.0953,-2.228,-2.4032,-2.7102,-2.8521,-2.998,-3.2032,-3.3435,-3.4134,-3.3828,0.0,0.0,-3.3592,-3.3533,0.0,0.0,0.0,0.0,-3.4999,-3.5954,-3.6642,-3.7023,-3.7808,-3.8268,-3.8343,-3.8423,-3.8462,-3.8491,-3.9393,-3.9825,-3.9867,-4.0714,-4.1103,-4.1093,-4.1091,0.0,0.0,-4.1022,-4.1007,-4.0993,-4.1012,-4.1964,-4.3318,-4.337,-4.438,-4.5533,-4.4346,-4.3939,-4.3762,-4.2673,-4.3372,-4.4657,-4.4572,-4.4028,-4.344,-4.3406,-4.3142,-4.284,-4.284,-4.2645,-4.2167,-4.0901,-3.9771,-3.9058,-3.9221,-3.8643,-3.8327,-3.9317,-3.8899,-3.8422,-3.8557,-3.8578,-3.8312,-3.7534,-3.741,-3.7522,-3.7826,-3.7524,-3.734,-3.7505,-3.7771,-3.7923,-3.7893,-3.8047,-3.8198,-3.835,-3.835,-3.8465,-3.8627,-3.7894,-3.7473,-3.7442,-3.7473,-3.7473,-3.7442,-3.8236,-3.8621,-3.8658,-3.8621,-3.8634,-1.2359,-1.232,-1.224,-1.236,-1.2657,-1.3107,-1.3895,-1.4542,-1.5429,-1.6953,-1.7942,-1.9118,-2.1085,-2.2067,-2.3351,-2.5717,-2.7708,0.0,-3.0487,-3.2287,-3.3324,-3.293,-3.3298,0.0,0.0,0.0,0.0,0.0,0.0,0.0,-3.4096,-3.4843,-3.5361,-3.5575,-3.6592,-3.7156,-3.7224,-3.779,-3.809,-3.8156,-3.8598,-3.8827,-3.8877,-3.9285,-3.9765,-4.0265,-4.0296,0.0,0.0,-4.1009,-4.0999,-4.1,-4.098,-4.1653,-4.2702,-4.309,-4.3987,-4.4515,-4.1259,-4.1223,-4.2006,-3.8334,-3.8765,-4.0929,-4.2084,-4.2041,-4.1557,-4.1343,-4.1155,-4.0978,-4.0978,-4.0263,-3.9533,-3.9656,-3.8252,-3.7117,-3.794,-3.7413,-3.6938,-3.7419,-3.7458,-3.7391,-3.7431,-3.6856,-3.6597,-3.7135,-3.6408,-3.619,-3.725,-3.6939,-3.658,-3.6381,-3.7157,-3.7631,-3.7487,-3.7948,-3.8285,-3.8382,-3.8496,-3.8627,-3.8707,-3.793,-3.747,-3.7393,-3.708,-3.684,-3.6677,-3.769,-3.8153,-3.8122,-3.8652,-3.8884,-1.2162,-1.2171,-1.2195,-1.2618,-1.2992,-1.3459,-1.4243,-1.5139,-1.6163,-1.7514,-1.8634,-1.9846,-2.1474,-2.2399,-2.3372,0.0,0.0,-2.8455,-2.9117,-3.0806,-3.1945,-3.1974,0.0,-3.2553,0.0,-3.2978,0.0,0.0,0.0,0.0,0.0,-3.3901,-3.4349,-3.4559,-3.5363,-3.5832,-3.588,-3.6396,-3.6661,-3.6699,-3.6877,-3.7003,-3.7075,-3.7383,-3.7887,-3.8455,0.0,0.0,0.0,-3.9373,-3.9366,-3.9374,-3.9346,-3.9552,-3.9886,-4.0101,-4.0405,-4.0192,-3.6366,-3.6311,-3.7294,-3.3512,-3.3872,-3.6087,-3.7582,-3.8615,-3.9211,-3.878,-3.8576,-3.8468,-3.8427,-3.7369,-3.6437,-3.717,-3.5774,-3.4568,-3.5493,-3.4931,-3.4387,-3.4817,-3.4908,-3.5042,-3.5324,-3.4719,-3.4514,-3.5469,-3.4668,-3.4106,-3.4488,-3.4592,-3.4583,-3.4432,-3.571,-3.6688,-3.6985,-3.7827,-3.8354,-3.8465,-3.8627,-3.8628,-3.8401,-3.7687,-3.7145,-3.6822,-3.6472,-3.6194,-3.6012,-3.7025,-3.7617,-3.7766,-3.8433,-3.8859,-1.2827,-1.2692,-1.256,-1.3704,-1.3799,-1.3854,-1.4772,-1.5516,-1.635,-1.7558,-1.9065,-2.0694,-2.238,-2.3297,-2.4075,-2.4968,-2.585,0.0,-2.8144,-2.8951,-2.9866,0.0,0.0,-3.1501,-3.2125,0.0,0.0,0.0,0.0,0.0,0.0,-3.3202,-3.3652,-3.418,-3.4153,-3.4157,-3.4217,-3.371,-3.345,-3.345,-3.3837,-3.4074,-3.4173,-3.5114,-3.5549,0.0,0.0,0.0,0.0,-3.5565,-3.5561,-3.5548,-3.5474,-3.5018,-3.4284,-3.3425,-3.2602,-3.1632,-2.9518,-2.8812,-2.8787,-2.853,-2.9322,-3.0468,-3.0945,-3.3731,-3.6612,-3.6,-3.5591,-3.5294,-3.5178,-3.4313,-3.3403,-3.3219,-3.2288,-3.1438,-3.1438,-3.0784,-3.0497,-3.1611,-3.1144,-3.0903,-3.186,-3.202,-3.1974,-3.188,-3.1834,-3.105,-2.8883,-2.9867,-3.0891,-3.1284,-3.3124,-3.4949,-3.6496,-3.7649,-3.8405,-3.8676,-3.8707,-3.8401,-3.7747,-3.6953,-3.6176,-3.5454,-3.5479,-3.5497,-3.5497,-3.6315,-3.7113,-3.7894,-3.7912,-3.8339,-1.3058,-1.3382,-1.3626,-1.404,-1.4359,-1.4638,-1.4992,-1.6226,-1.7379,-1.7723,-1.9541,-2.1385,-2.2373,-2.3236,-2.4094,-2.4968,-2.5874,0.0,0.0,0.0,0.0,-3.1034,-3.1888,-3.2517,0.0,0.0,0.0,0.0,0.0,0.0,0.0,-3.2429,-3.2606,-3.3561,-3.3817,-3.3969,-3.3981,-3.332,-3.2978,-3.2982,-3.2613,-3.2468,-3.2541,-3.2444,0.0,0.0,0.0,0.0,0.0,-3.3837,-3.3863,-3.3852,-3.3846,-3.3324,-3.2552,-3.2271,-3.1631,-3.0308,-2.6062,-2.5837,-2.6801,-2.3162,-2.4011,-2.6394,-2.6084,-3.0091,-3.4347,-3.2584,-3.0933,-2.9672,-2.9629,-2.8854,-2.8057,-2.8116,-2.7365,-2.6635,-2.672,-2.6656,-2.6684,-2.7073,-2.6985,-2.6929,-2.7276,-2.6475,-2.605,-2.6902,-2.6069,-2.531,-2.5172,-2.5484,-2.5518,-2.5017,-2.9034,-3.33,-3.7167,-3.815,-3.8614,-3.8707,-3.8287,-3.7913,-3.7711,-3.6582,-3.582,-3.5473,-3.4982,-3.4703,-3.4606,-3.546,-3.6575,-3.7894,-3.7894,-3.8321,-1.319,-1.3578,-1.3967,-1.421,-1.4552,-1.4954,-1.551,-1.6763,-1.789,-1.8126,-1.9915,-2.154,-2.1931,-2.2697,-2.3563,-2.4436,-2.505,-2.595,0.0,0.0,0.0,-3.0883,0.0,0.0,0.0,0.0,0.0,0.0,0.0,0.0,0.0,-3.1435,-3.1457,-3.2164,-3.2407,-3.2557,-3.2557,-3.1887,-3.1568,-3.1624,-3.096,-3.0683,-3.0735,-3.0227,0.0,0.0,0.0,0.0,0.0,-3.0642,-3.0558,-3.054,-3.0246,-2.942,-2.8318,-2.7648,-2.6651,-2.51,-2.1133,-2.0883,-2.184,-1.8981,-2.022,-2.2937,-2.3553,-2.6799,-2.9898,-2.8003,-2.6688,-2.567,-2.5164,-2.4541,-2.4032,-2.3773,-2.3243,-2.2862,-2.297,-2.3117,-2.3277,-2.3396,-2.3436,-2.3499,-2.3554,-2.2772,-2.2382,-2.312,-2.2164,-2.1197,-2.0687,-2.0983,-2.1034,-2.042,-2.4181,-2.9126,-3.4954,-3.7453,-3.8707,-3.8707,-3.8098,-3.7662,-3.7418,-3.6334,-3.5567,-3.5244,-3.4757,-3.4431,-3.434,-3.515,-3.6031,-3.7002,-3.7359,-3.7962,0.0,-1.3453,-1.3826,-1.4362,-1.4525,-1.491,-1.6229,-1.7138,0.0,-1.8665,-2.0152,-2.1291,-2.1214,-2.1865,-2.2678,-2.3556,-2.3689,-2.4733,0.0,-2.8153,0.0,0.0,-3.1505,0.0,0.0,0.0,0.0,0.0,0.0,0.0,0.0,-3.0338,-3.0272,-3.0198,-3.0145,-3.0181,-3.0287,-2.9737,-2.9521,-2.9638,-2.9101,-2.8824,-2.8819,-2.8347,0.0,0.0,0.0,0.0,0.0,-2.6537,-2.6216,-2.6151,-2.5417,-2.4121,-2.25,-2.0751,-1.9122,-1.7514,-1.564,-1.4993,-1.5178,-1.6172,-1.7871,-2.0,-2.2605,-2.3769,-2.3948,-2.2893,-2.2834,-2.2829,-2.1585,-2.1197,-2.0854,-1.9977,-1.981,-1.981,-1.981,-1.9936,-2.0076,-2.0296,-2.0337,-2.0337,-2.0419,-2.0419,-2.0364,-2.0146,-1.9589,-1.8296,-1.5743,-1.6459,-1.7134,-1.704,-1.8889,-2.2996,-3.0053,-3.5266,-3.831,-3.8609,-3.8118,-3.7529,-3.6892,-3.6148,-3.5447,-3.4812,-3.4689,-3.4604,-3.4602,-3.5221,-3.5515,-3.5547,-3.6427,-3.7261,-1.3184,0.0,-1.4935,-1.5121,-1.5176,-1.5444,0.0,-1.7317,-1.8113,-1.8814,-2.0284,-2.1402,-2.1221,-2.1859,-2.2691,-2.3619,-2.3733,-2.4733,-2.7699,0.0,0.0,-3.1488,-3.2197,0.0,0.0,0.0,0.0,0.0,0.0,0.0,0.0,-2.9733,-2.9324,-2.9294,-2.8652,-2.8916,-3.0207,-2.952,-2.9189,-2.9171,-2.8447,-2.7852,-2.7307,-2.6783,0.0,0.0,0.0,0.0,-2.6091,-2.5582,-2.5057,-2.4551,-2.4361,-2.3294,-2.1748,-2.0653,-1.9587,-1.8438,-1.6599,-1.5971,-1.6022,-1.6386,-1.7079,-1.798,-1.9052,-2.0027,-2.0901,-2.1605,-2.0102,-1.8264,-1.8113,-1.7082,-1.6027,-1.5819,-1.5375,-1.5059,-1.5167,-1.5287,-1.5456,-1.5723,-1.5661,-1.5647,-1.5744,-1.5696,-1.5578,-1.5421,-1.4803,-1.3922,-1.2716,-1.2307,-1.1951,-1.1521,-1.5177,-1.9197,-2.3046,-2.9341,-3.4524,-3.7885,-3.7499,-3.6896,-3.6385,-3.5704,-3.519,-3.487,-3.4733,-3.4649,-3.4602,-3.4816,-3.5187,-3.5731,-3.6017,-3.6517,-1.3887,-1.4653,-1.5271,-1.5331,-1.5675,-1.621,-1.701,-1.7872,-1.8687,-1.9326,-2.0175,-2.0747,-2.0577,-2.123,-2.2047,-2.2911,-2.335,0.0,0.0,0.0,-3.1516,-3.1732,-3.1791,0.0,0.0,0.0,0.0,0.0,0.0,0.0,0.0,-2.8788,-2.8488,-2.8488,-2.7988,-2.8135,-2.9039,-2.8664,-2.847,-2.8488,-2.8082,-2.7494,-2.6755,-2.6591,-2.6129,0.0,0.0,0.0,-2.4655,-2.4125,-2.3535,-2.2919,-2.2533,-2.1862,-2.0993,-2.0117,-1.9506,-1.8818,-1.6954,-1.5996,-1.5624,-1.5729,-1.5936,-1.6291,-1.7065,-1.758,-1.8201,-1.9584,-1.8608,-1.7055,-1.6615,-1.5498,-1.4369,-1.3935,-1.3607,-1.3459,-1.3581,-1.3708,-1.3888,-1.4138,-1.4157,-1.4111,-1.4235,-1.4189,-1.3961,-1.3415,-1.2801,-1.2074,-1.1208,-1.0493,-0.9957,-0.9632,-1.1939,-1.5493,-2.0424,-2.4361,-2.9363,-3.6001,-3.5873,-3.576,-3.6266,-3.5643,-3.5207,-3.5037,-3.5,-3.4926,-3.4773,-3.4851,-3.5078,-3.539,-3.5474,-3.5929,-1.452,-1.5111,-1.541,-1.5479,-1.6208,-1.7093,-1.7852,-1.8597,-1.9292,-1.9928,-2.0031,-2.0039,-2.0009,-2.0539,0.0,-2.222,0.0,0.0,-2.7512,-2.9743,-3.1236,-3.1565,0.0,0.0,0.0,0.0,0.0,0.0,0.0,0.0,0.0,-2.79,-2.7888,-2.7888,-2.7748,-2.7701,-2.7701,-2.7701,-2.7695,-2.7683,-2.7712,-2.7236,-2.6364,-2.6647,-2.5996,0.0,0.0,0.0,-2.3663,-2.2981,-2.2345,-2.1759,-2.0987,-2.0607,-2.0408,-1.9664,-1.9306,-1.8927,-1.6992,-1.5651,-1.4831,-1.4877,-1.4953,-1.5216,-1.6183,-1.6169,-1.613,-1.7517,-1.7558,-1.6942,-1.5792,-1.488,-1.4046,-1.331,-1.3259,-1.3433,-1.3511,-1.3598,-1.3749,-1.3915,-1.4033,-1.41,-1.4164,-1.4168,-1.3857,-1.3021,-1.2319,-1.1572,-1.0728,-1.0084,-0.9684,-0.9632,-0.9617,-1.2531,-1.9728,-2.0331,-2.4154,-3.3149,-3.3838,-3.4606,-3.6197,-3.5605,-3.5211,-3.5223,-3.5155,-3.5105,-3.5051,-3.5119,-3.5105,-3.4963,-3.5086,-3.552,-1.3584,-1.5129,-1.6322,-1.6378,-1.7108,-1.8024,-1.8888,-1.9172,-1.9461,-2.0125,-2.0203,-2.0344,-2.0874,-2.0948,-2.1423,0.0,0.0,-2.8017,0.0,0.0,-3.2094,0.0,0.0,0.0,0.0,0.0,0.0,0.0,0.0,0.0,0.0,-2.7795,-2.773,-2.773,-2.7701,-2.7701,-2.7701,-2.7701,-2.7356,-2.6731,-2.6817,-2.6143,-2.4759,-2.486,-2.4743,0.0,0.0,-2.4386,-2.4705,-2.386,-2.311,-2.2387,-2.176,-2.1101,-2.0483,-2.0351,-1.9824,-1.8926,-1.7046,-1.5757,-1.4961,-1.4919,-1.5215,-1.5679,-1.6248,-1.5973,-1.564,-1.6439,-1.5818,-1.4717,-1.3973,-1.3372,-1.2942,-1.2801,-1.3147,-1.3419,-1.3216,-1.3205,-1.3151,-1.2976,-1.329,-1.3615,-1.3615,-1.3584,-1.3491,-1.3343,-1.2235,-1.135,-1.1206,-1.0346,-0.9776,-0.9788,-0.971,-1.1984,-1.7693,-1.8189,-2.1327,-2.8723,-3.2164,-3.4462,-3.5669,-3.4866,-3.4693,-3.5364,-3.47,-3.4661,-3.5251,-3.5388,-3.5364,-3.5239,-3.5372,-3.5416,-1.4124,-1.5594,-1.6719,-1.7184,-1.8305,-1.9504,-2.0313,-2.082,-2.1088,-2.093,0.0,0.0,0.0,0.0,-2.2545,-2.3735,0.0,-2.7354,-2.7414,0.0,0.0,0.0,0.0,0.0,0.0,0.0,0.0,0.0,0.0,0.0,0.0,0.0,-2.7479,-2.7005,-2.6988,-2.6749,-2.6243,-2.6225,-2.6365,-2.6595,-2.6184,-2.542,-2.4423,-2.4829,-2.4564,-2.377,0.0,-2.419,-2.3786,-2.354,-2.2848,-2.1914,-2.1648,-2.084,-1.9784,-1.9316,-1.8547,-1.761,-1.6755,-1.5824,-1.4995,-1.4968,-1.5111,-1.5412,-1.5962,-1.5745,-1.5275,-1.5267,-1.4576,-1.3734,-1.3477,-1.3116,-1.274,-1.2446,-1.2949,-1.3369,-1.2884,-1.2968,-1.3021,-1.2801,-1.2911,-1.3075,-1.3075,-1.2997,-1.2833,-1.2488,-1.1784,-1.1161,-1.0767,-1.0217,-0.9828,-0.9802,-0.9788,-1.1338,-1.5274,-1.688,-2.0696,-2.7765,-3.07,-3.2604,-3.3557,-3.3188,-3.3344,-3.4195,-3.3848,-3.3829,-3.416,-3.4225,-3.4163,-3.4013,-3.4615,-3.4526,-1.5099,-1.6392,-1.7464,-1.826,-1.9314,-2.0386,-2.1313,0.0,0.0,0.0,0.0,0.0,0.0,-2.2664,0.0,-2.4265,-2.5434,0.0,0.0,0.0,0.0,0.0,0.0,0.0,0.0,0.0,0.0,0.0,0.0,0.0,0.0,0.0,-2.6679,-2.5831,-2.5814,-2.5461,-2.4741,-2.4389,-2.484,-2.6079,-2.5437,-2.4778,-2.4134,-2.4715,-2.4327,-2.3259,-2.4193,-2.3997,-2.3033,-2.3112,-2.2521,-2.1552,-2.1204,-2.0218,-1.8867,-1.8001,-1.7212,-1.6518,-1.6285,-1.568,-1.5037,-1.5015,-1.5,-1.5136,-1.5676,-1.5336,-1.4651,-1.4281,-1.3526,-1.2859,-1.2942,-1.2804,-1.2565,-1.2161,-1.272,-1.315,-1.258,-1.2688,-1.2781,-1.255,-1.2538,-1.2526,-1.2526,-1.2466,-1.2222,-1.1673,-1.1296,-1.087,-1.0283,-1.0017,-0.988,-0.9828,-0.9828,-1.0995,-1.3879,-1.6725,-2.0823,-2.6634,-2.933,-3.0969,-3.1584,-3.1629,-3.2039,-3.2905,-3.2934,-3.3031,-3.3215,-3.3218,-3.3134,-3.3015,-3.3779,-3.3674,-1.6027,-1.764,-1.9127,-1.9921,-1.974,-1.9775,-2.1254,-2.1651,0.0,-2.2485,0.0,0.0,0.0,-2.3899,-2.4284,-2.4229,-2.5493,0.0,0.0,0.0,0.0,0.0,0.0,0.0,0.0,0.0,0.0,0.0,0.0,0.0,0.0,0.0,0.0,-2.4005,-2.4033,-2.4043,-2.3991,-2.2539,-2.2651,-2.4295,-2.4279,-2.3936,-2.3305,-2.3406,-2.3395,-2.3313,-2.3575,-2.3656,-2.3584,-2.3198,-2.2675,-2.2009,-2.0647,-1.9249,-1.789,-1.7083,-1.6743,-1.6542,-1.5625,-1.5246,-1.5173,-1.5028,-1.5049,-1.5179,-1.5588,-1.4596,-1.3415,-1.374,-1.2686,-1.1459,-1.1589,-1.1816,-1.1986,-1.2006,-1.2387,-1.2678,-1.2377,-1.2238,-1.2056,-1.1661,-1.1846,-1.2057,-1.2057,-1.1942,-1.1789,-1.1625,-1.0946,-1.0386,-1.0225,-1.0017,-0.9905,-0.9905,-0.9905,-1.1312,-1.4802,-1.8288,-2.1201,-2.332,-2.8028,-3.0728,-3.0784,-3.0841,-3.1265,-3.2077,-3.2153,-3.2543,-3.3297,-3.329,-3.3295,-3.327,-3.3359,-3.3334,-1.6121,-1.7804,-1.9247,-1.9585,-1.9862,-2.056,0.0,-2.3394,-2.3716,-2.3487,-2.3755,0.0,0.0,0.0,-2.5652,-2.5153,-2.5805,0.0,0.0,0.0,0.0,0.0,0.0,0.0,0.0,0.0,0.0,0.0,0.0,0.0,0.0,0.0,0.0,-2.3035,-2.2581,-2.2064,-2.1481,-2.0901,-2.0993,-2.1746,-2.2314,-2.2223,-2.1622,-2.2656,-2.2904,-2.2535,-2.3267,-2.3307,-2.2826,-2.2786,-2.2078,-2.0848,-1.9021,-1.7825,-1.6992,-1.6133,-1.5853,-1.584,-1.5416,-1.5235,-1.5187,-1.5146,-1.5106,-1.5133,-1.5285,-1.4793,-1.415,-1.3918,-1.321,-1.2323,-1.1571,-1.1727,-1.2025,-1.1746,-1.232,-1.2775,-1.2173,-1.2214,-1.2192,-1.1666,-1.1626,-1.1665,-1.1583,-1.1503,-1.1415,-1.1423,-1.0976,-1.0597,-1.0456,-1.0247,-1.004,-0.9905,-0.9905,-1.1343,-1.4894,-1.6423,-1.8436,-2.1305,-2.4313,-2.6694,-2.8336,-2.7902,-2.8028,-2.8876,-2.9418,-2.9825,-3.0136,-3.1162,-3.1638,-3.1554,-3.1598,-3.1263,-1.6598,-1.8203,-1.9666,-1.9971,-2.0683,-2.1747,-2.3473,-2.4341,-2.4771,-2.47,-2.519,-2.5495,-2.5024,0.0,0.0,0.0,0.0,0.0,0.0,0.0,0.0,0.0,0.0,0.0,0.0,0.0,0.0,0.0,0.0,0.0,0.0,0.0,0.0,0.0,-2.1199,-2.0543,-1.9647,-1.941,-1.9501,-1.9894,-2.047,-2.0711,-2.0628,-2.1749,-2.2036,-2.1655,-2.2411,-2.2432,-2.1914,-2.2096,-2.1171,-1.9508,-1.7947,-1.6861,-1.6112,-1.5524,-1.5349,-1.5382,-1.5316,-1.5268,-1.5201,-1.5176,-1.5127,-1.5076,-1.5076,-1.4854,-1.4519,-1.4108,-1.3526,-1.2821,-1.1943,-1.185,-1.196,-1.1704,-1.2209,-1.2604,-1.213,-1.2215,-1.2283,-1.1865,-1.1636,-1.1499,-1.1413,-1.1291,-1.1244,-1.1209,-1.0967,-1.0708,-1.0564,-1.0312,-1.0104,-0.9956,-1.0374,-1.1678,-1.4172,-1.4779,-1.6319,-1.9395,-2.0618,-2.2489,-2.5234,-2.529,-2.5556,-2.6161,-2.6988,-2.7413,-2.7413,-2.8554,-2.9063,-2.8985,-2.9026,-2.866,-1.7593,-1.9029,-2.0627,-2.1476,0.0,0.0,-2.3844,-2.4072,-2.454,-2.6067,-2.6811,-2.6881,-2.5869,-2.6303,0.0,0.0,0.0,0.0,0.0,0.0,0.0,0.0,0.0,0.0,0.0,0.0,0.0,0.0,0.0,0.0,0.0,0.0,0.0,0.0,-1.9976,-1.963,-1.8894,-1.8166,-1.8206,-1.8981,-1.8917,-1.9474,-2.0576,-2.065,-2.074,-2.0789,-2.0872,-2.098,-2.1084,-2.1149,-2.0022,-1.8221,-1.7632,-1.6535,-1.5293,-1.5304,-1.5331,-1.5399,-1.5316,-1.5268,-1.5187,-1.512,-1.5061,-1.5008,-1.5011,-1.4635,-1.4198,-1.419,-1.3432,-1.2604,-1.2586,-1.2106,-1.1681,-1.1949,-1.1949,-1.1976,-1.2246,-1.2257,-1.2195,-1.2205,-1.1873,-1.1595,-1.1609,-1.1424,-1.1236,-1.1022,-1.0845,-1.0645,-1.0432,-1.0219,-1.0072,-0.9995,-1.1362,-1.2373,-1.2557,-1.381,-1.5435,-1.7435,-1.7329,-1.8556,-2.1668,-2.3374,-2.4286,-2.4369,-2.5222,-2.5671,-2.5671,-2.569,-2.571,-2.571,-2.5697,-2.5648,-1.7719,-1.9476,-2.1312,-2.1621,0.0,0.0,0.0,-2.4516,0.0,0.0,-2.5901,-2.5944,-2.5091,0.0,0.0,0.0,0.0,0.0,0.0,0.0,0.0,0.0,0.0,0.0,0.0,0.0,0.0,0.0,0.0,0.0,0.0,0.0,0.0,0.0,-1.9478,-1.8877,-1.8132,-1.7957,-1.798,-1.8223,-1.8245,-1.8449,-1.8795,-1.9918,-2.02,-1.9865,-2.0539,-2.053,-2.0005,-1.9558,-1.8449,-1.7041,-1.7046,-1.6255,-1.5101,-1.5193,-1.5307,-1.5397,-1.5383,-1.5297,-1.5193,-1.5182,-1.5082,-1.4992,-1.5003,-1.482,-1.4518,-1.4101,-1.3622,-1.3109,-1.2638,-1.2276,-1.2024,-1.2133,-1.2159,-1.2241,-1.2399,-1.2419,-1.2379,-1.2226,-1.2026,-1.1827,-1.168,-1.153,-1.1427,-1.134,-1.1137,-1.0824,-1.0459,-1.0205,-0.9919,-0.9427,-1.0239,-1.0929,-1.1156,-1.2031,-1.3241,-1.4837,-1.4943,-1.6663,-2.046,-2.1126,-2.1461,-2.1572,-2.3034,-2.3805,-2.38,-2.5031,-2.5634,-2.5615,-2.5002,-2.4701,-1.8095,-1.9464,-2.0889,-2.1929,-2.2939,-2.3847,-2.444,0.0,0.0,0.0,-2.6308,-2.6467,-2.5227,-2.6077,0.0,0.0,0.0,0.0,0.0,0.0,0.0,0.0,0.0,0.0,0.0,0.0,0.0,0.0,0.0,0.0,0.0,0.0,0.0,0.0,-1.913,-1.8555,-1.7811,-1.7856,-1.7861,-1.7905,-1.79,-1.8114,-1.8466,-1.9116,-1.9413,-1.9386,-1.9716,-1.9608,-1.9193,-1.8813,-1.786,-1.6602,-1.6877,-1.6177,-1.5022,-1.5156,-1.5272,-1.5409,-1.5402,-1.5329,-1.5245,-1.5244,-1.5143,-1.5015,-1.486,-1.4728,-1.4534,-1.4075,-1.3672,-1.3291,-1.288,-1.2537,-1.2307,-1.2241,-1.2282,-1.2363,-1.2514,-1.2534,-1.2439,-1.2056,-1.1874,-1.171,-1.1507,-1.1345,-1.1312,-1.1476,-1.1225,-1.0856,-1.042,-1.0224,-0.9957,-0.9516,-1.0162,-1.0703,-1.0894,-1.1315,-1.1956,-1.294,-1.2761,-1.3831,-1.6574,-1.7985,-1.8736,-1.8818,-2.0206,-2.0939,-2.0939,-2.2333,-2.2838,-2.2466,-2.2303,-2.2039,-1.8496,-1.9146,-1.9881,-2.2301,-2.3003,0.0,-2.4974,-2.5909,-2.6456,-2.6403,0.0,-2.7554,-2.5798,-2.6614,0.0,0.0,0.0,0.0,0.0,0.0,0.0,0.0,0.0,0.0,0.0,0.0,0.0,0.0,0.0,0.0,0.0,0.0,0.0,-1.9046,-1.8971,-1.8576,-1.7811,-1.7833,-1.7879,0.0,-1.7856,-1.8268,-1.9081,-1.8459,-1.8594,-1.928,-1.8673,-1.8448,-1.8603,-1.8715,-1.7926,-1.6684,-1.6966,-1.6205,-1.4984,-1.5117,-1.5273,-1.5406,-1.5408,-1.5369,-1.5293,-1.5294,-1.5202,-1.5021,-1.4624,-1.4453,-1.4338,-1.4018,-1.3599,-1.3225,-1.3193,-1.2862,-1.2506,-1.2368,-1.2383,-1.2439,-1.2574,-1.2609,-1.2423,-1.1822,-1.1537,-1.1322,-1.1085,-1.0958,-1.1018,-1.1417,-1.1171,-1.0762,-1.0392,-1.0263,-1.0162,-1.005,-1.0727,-1.1212,-1.1222,-1.1185,-1.1285,-1.1597,-1.0809,-1.0656,-1.1353,-1.4495,-1.6234,-1.627,-1.73,-1.7819,-1.7799,-1.8591,-1.8542,-1.7721,-1.8584,-1.8509,-1.8041,-1.9127,0.0,-2.245,-2.385,-2.4876,-2.5226,-2.5437,-2.5572,-2.5562,-2.5614,-2.5456,-2.4765,0.0,0.0,0.0,0.0,0.0,0.0,0.0,0.0,0.0,0.0,0.0,0.0,0.0,0.0,0.0,0.0,0.0,0.0,0.0,0.0,-1.9765,-1.9451,-1.8793,-1.7805,-1.8109,-1.8157,0.0,-1.7939,-1.8375,-1.9098,-1.8898,-1.9001,-1.9263,-1.8614,-1.8368,-1.8465,-1.8584,-1.7719,-1.6351,-1.6664,-1.593,-1.4718,-1.4903,-1.516,-1.5404,-1.539,-1.5362,-1.5299,-1.531,-1.5217,-1.5021,-1.4624,-1.4453,-1.4293,-1.3689,-1.3482,-1.3373,-1.3108,-1.2891,-1.2724,-1.27,-1.2581,-1.2499,-1.2581,-1.26,-1.2412,-1.1806,-1.1586,-1.1304,-1.0737,-1.0792,-1.0969,-1.1216,-1.1062,-1.0804,-1.0563,-1.0405,-1.0268,-1.0239,-1.0355,-1.0304,-1.0019,-0.9977,-1.0036,-1.0216,-0.956,-0.9559,-1.0435,-1.3222,-1.4955,-1.537,-1.7015,-1.7849,-1.7806,-1.8032,-1.8037,-1.7777,-1.798,-1.798,-1.8687,-1.9161,0.0,-2.2271,0.0,-2.5303,-2.5303,-2.5303,-2.5303,-2.5303,-2.5432,-2.5378,0.0,0.0,0.0,0.0,0.0,0.0,0.0,0.0,0.0,0.0,0.0,0.0,0.0,0.0,0.0,0.0,0.0,0.0,0.0,-2.0857,-2.0174,-1.9578,-1.9372,-1.8904,-1.8205,-1.8405,-1.8432,-1.8334,-1.8552,-1.8966,-1.9532,-1.9239,-1.9178,-1.9258,-1.8568,-1.8304,-1.8406,-1.8408,-1.7517,-1.6185,-1.6453,-1.5729,-1.4579,-1.4821,-1.5062,-1.5307,-1.5338,-1.5332,-1.5305,-1.5344,-1.5271,-1.5094,-1.4528,-1.4311,-1.4113,-1.3454,-1.3311,-1.3328,-1.314,-1.3087,-1.307,-1.3015,-1.2757,-1.2558,-1.2597,-1.2616,-1.2356,-1.1527,-1.1283,-1.1052,-1.0549,-1.0865,-1.1171,-1.1064,-1.0958,-1.0786,-1.0499,-1.0082,-0.9842,-0.9876,-0.9626,-0.9411,-0.924,-0.903,-0.8992,-0.9134,-0.847,-0.8494,-0.9395,-1.1245,-1.2743,-1.3786,-1.5655,-1.6598,-1.6554,-1.7002,-1.6977,-1.653,-1.6938,-1.6913,-1.9499,-1.9445,-1.9289,-2.2363,-2.4129,0.0,-2.5274,-2.5303,-2.5303,-2.5303,-2.5734,0.0,0.0,0.0,0.0,0.0,0.0,0.0,0.0,0.0,0.0,0.0,0.0,0.0,0.0,0.0,0.0,0.0,0.0,0.0,-2.11,-2.0833,-2.0301,-1.9329,-1.9273,-1.9036,-1.8645,-1.8682,-1.8742,-1.8795,-1.9123,-1.9551,-1.9993,-1.9498,-1.9252,-1.9195,-1.8478,-1.8236,-1.8325,-1.8225,-1.7413,-1.622,-1.6331,-1.5669,-1.4672,-1.4831,-1.5012,-1.5205,-1.5287,-1.5295,-1.5306,-1.537,-1.5356,-1.5177,-1.4502,-1.4211,-1.398,-1.3388,-1.3227,-1.3244,-1.3244,-1.3312,-1.3346,-1.321,-1.2889,-1.2639,-1.2652,-1.2562,-1.2179,-1.1193,-1.08,-1.056,-1.0421,-1.0909,-1.1209,-1.0976,-1.0904,-1.0756,-1.0366,-0.9736,-0.9378,-0.95,-0.8985,-0.8663,-0.8769,-0.836,-0.8142,-0.8242,-0.7671,-0.7694,-0.8483,-0.9469,-1.0661,-1.2034,-1.3819,-1.4724,-1.4724,-1.5451,-1.5389,-1.4646,-1.5376,-1.5325,-1.9322,0.0,-2.1655,0.0,-2.4147,-2.4443,0.0,0.0,-2.5303,0.0,-2.537,0.0,0.0,0.0,0.0,0.0,0.0,0.0,0.0,0.0,0.0,0.0,0.0,0.0,0.0,0.0,0.0,0.0,0.0,0.0,-2.1745,-2.0621,-2.0019,-2.0234,-1.9897,-1.9399,-1.8765,-1.9014,-1.9014,-1.8795,-1.885,-1.9285,-2.0085,-1.9653,-1.932,-1.9011,-1.8374,-1.8091,-1.8048,-1.8113,-1.7559,-1.6664,-1.636,-1.5839,-1.5245,-1.4935,-1.4992,-1.522,-1.5284,-1.5299,-1.5302,-1.5371,-1.5359,-1.5231,-1.484,-1.446,-1.411,-1.3733,-1.3489,-1.3396,-1.3446,-1.3396,-1.3278,-1.3138,-1.2942,-1.2781,-1.285,-1.2404,-1.18,-1.1125,-1.0133,-0.9631,-1.0287,-1.0441,-1.0609,-1.1002,-1.0925,-1.0694,-1.0432,-0.9848,-0.9602,-0.996,-0.8955,-0.8388,-0.869,-0.8086,-0.7666,-0.762,-0.7524,-0.768,-0.8146,-0.9342,-1.0231,-1.0739,-1.2087,-1.2775,-1.2761,-1.2888,-1.2875,-1.2768,-1.2877,-1.2832,-1.9236,-2.0441,-2.1989,0.0,-2.3786,-2.4316,-2.5155,-2.5351,-2.5351,-2.5361,0.0,0.0,0.0,0.0,0.0,0.0,0.0,0.0,0.0,0.0,0.0,0.0,0.0,0.0,0.0,0.0,0.0,0.0,0.0,-2.1311,-2.1807,-2.1271,-2.0883,-2.0789,-2.0401,-1.9937,-1.9431,-1.9353,-1.9339,-1.9413,-1.9648,-1.986,-2.0052,-2.0267,-1.9857,-1.8981,-1.8682,-1.8314,-1.7944,-1.7856,-1.7393,-1.6689,-1.6049,-1.5617,-1.528,-1.4722,-1.4764,-1.5108,-1.5216,-1.5241,-1.5268,-1.5368,-1.5371,-1.5288,-1.4904,-1.4563,-1.4232,-1.3858,-1.3601,-1.3462,-1.3479,-1.3478,-1.3444,-1.3379,-1.2932,-1.2514,-1.2568,-1.2182,-1.1577,-1.0729,-1.0054,-0.9759,-1.011,-1.0307,-1.0371,-1.026,-1.0182,-0.9972,-0.9543,-0.8945,-0.8601,-0.8733,-0.791,-0.7484,-0.7766,-0.7541,-0.7429,-0.7556,-0.7559,-0.7738,-0.8138,-0.8697,-0.923,-0.9753,-1.1536,-1.2464,-1.2458,-1.2458,-1.247,-1.2456,-1.2416,-1.2275,-1.9887,0.0,-2.166,-2.2664,-2.338,-2.4042,0.0,0.0,-2.5406,0.0,0.0,0.0,0.0,0.0,0.0,0.0,0.0,0.0,0.0,0.0,0.0,0.0,0.0,0.0,0.0,0.0,0.0,0.0,0.0,-2.1377,-2.1777,-2.1797,-2.1584,-2.115,-2.067,-2.0249,-1.9863,-1.9582,-1.9774,-2.03,-2.0511,-2.0499,-2.0322,-2.087,-2.0401,-1.9198,-1.894,-1.8535,-1.8019,-1.7679,-1.7271,-1.6824,-1.62,-1.5784,-1.5474,-1.4934,-1.4827,-1.4992,-1.5146,-1.5193,-1.5211,-1.5356,-1.5406,-1.5331,-1.4953,-1.4654,-1.434,-1.3987,-1.3713,-1.3528,-1.3528,-1.3559,-1.3573,-1.3493,-1.2865,-1.2199,-1.1826,-1.1576,-1.1119,-1.0196,-0.9924,-0.988,-0.998,-1.0136,-1.0064,-0.9623,-0.9495,-0.9262,-0.8778,-0.8171,-0.7753,-0.7589,-0.7018,-0.6715,-0.6859,-0.6914,-0.7098,-0.7488,-0.7495,-0.7661,-0.8032,-0.8,-0.8204,-0.8716,-1.0286,-1.1336,-1.1793,-1.1793,-1.1746,-1.1633,-1.1584,-1.1364,0.0,-2.1222,0.0,-2.2596,-2.302,-2.326,0.0,0.0,0.0,0.0,0.0,0.0,0.0,0.0,0.0,0.0,0.0,0.0,0.0,0.0,0.0,0.0,0.0,0.0,0.0,0.0,0.0,0.0,0.0,-2.1377,-2.1777,-2.1797,-2.1631,-2.1309,-2.0584,-2.0031,-1.972,-1.9704,-2.0288,-2.1397,-2.1054,-2.0977,-2.1143,-2.1383,-2.0834,-1.9729,-1.8943,-1.856,-1.8402,-1.7706,-1.7401,-1.7342,-1.7255,-1.6781,-1.6128,-1.5973,-1.547,-1.4928,-1.5138,-1.5197,-1.5226,-1.5366,-1.5402,-1.5349,-1.5061,-1.4752,-1.4444,-1.4169,-1.3854,-1.3589,-1.3589,-1.3605,-1.3509,-1.3191,-1.2697,-1.1943,-1.0607,-1.0294,-1.0146,-0.9632,-0.9485,-0.9544,-0.995,-0.9698,-0.9445,-0.942,-0.9202,-0.8915,-0.8563,-0.8096,-0.7656,-0.7277,-0.6811,-0.6432,-0.6258,-0.6251,-0.6528,-0.7186,-0.7219,-0.7341,-0.762,-0.7446,-0.7359,-0.7387,-0.7325,-0.8136,-0.9835,-0.9835,-0.9652,-0.9275,-0.9275,-0.9054,0.0,0.0,0.0,-2.2929,-2.2648,-2.2586,-2.3892,-2.4413,-2.4774,0.0,0.0,0.0,0.0,0.0,0.0,0.0,0.0,0.0,0.0,0.0,0.0,0.0,0.0,0.0,0.0,0.0,0.0,0.0,0.0,0.0,-2.1383,-2.1678,-2.1721,-2.1601,-2.1079,-2.0399,-1.9562,-1.9443,-1.9612,-2.0086,-2.0768,-2.1139,-2.1211,-2.1595,-2.1541,-2.1111,-2.0157,-1.9235,-1.8332,-1.8102,-1.7823,-1.7595,-1.7574,-1.7097,-1.6384,-1.5861,-1.5332,-1.4859,-1.4958,-1.5044,-1.5094,-1.5223,-1.5264,-1.5249,-1.5163,-1.4775,-1.4345,-1.4257,-1.3922,-1.3605,-1.3605,-1.3605,-1.3361,-1.2367,-1.1638,-1.0888,-0.9957,-0.9738,-0.9698,-0.9538,-0.9485,-0.9518,-0.9655,-0.9568,-0.9475,-0.957,-0.9036,-0.8622,-0.861,-0.799,-0.7442,-0.7166,-0.6807,-0.6584,-0.6629,-0.6367,-0.6268,-0.6487,-0.6607,-0.6578,-0.6329,-0.6456,-0.6619,-0.6782,-0.6759,-0.7137,-0.7969,-0.8348,-0.8454,-0.8274,-0.8666,-0.861,-2.4826,0.0,0.0,0.0,-2.2656,-2.2512,-2.3591,0.0,-2.4424,0.0,0.0,0.0,0.0,0.0,0.0,0.0,0.0,0.0,0.0,0.0,0.0,0.0,0.0,0.0,0.0,0.0,0.0,0.0,0.0,0.0,-2.1242,-2.1511,-2.1602,-2.1537,-2.1223,-2.0708,-1.9997,-1.9854,-1.9965,-2.0268,-2.1061,-2.145,-2.1467,-2.174,-2.184,-2.1748,-2.0832,-1.9894,-1.8947,-1.8463,-1.8145,-1.8007,-1.7895,-1.7303,-1.6515,-1.6128,-1.5459,-1.4775,-1.4873,-1.4957,-1.5034,-1.5109,-1.5154,-1.5167,-1.5004,-1.4654,-1.4286,-1.4162,-1.3878,-1.3556,-1.3377,-1.3143,-1.2669,-1.1502,-1.0819,-1.0268,-0.9607,-0.9485,-0.9497,-0.9497,-0.9497,-0.9491,-0.9482,-0.938,-0.9304,-0.9337,-0.8664,-0.8195,-0.8342,-0.7788,-0.7308,-0.7113,-0.6867,-0.6632,-0.6428,-0.6089,-0.5835,-0.5734,-0.5856,-0.5839,-0.5624,-0.5663,-0.5778,-0.5961,-0.5854,-0.5866,-0.6032,-0.7089,-0.7504,-0.7326,-0.7709,-0.7709,0.0,0.0,0.0,0.0,0.0,0.0,-2.3105,0.0,-2.4452,0.0,0.0,0.0,0.0,0.0,0.0,0.0,0.0,0.0,0.0,0.0,0.0,0.0,0.0,0.0,0.0,0.0,0.0,0.0,0.0,-2.0481,-2.1312,-2.1386,-2.1267,-2.1005,-2.0994,-2.0994,-2.0994,-2.0994,-2.1373,-2.2152,-2.1986,-2.194,-2.1998,-2.1869,-2.1708,-2.1556,-2.0836,-2.0482,-2.0326,-1.8762,-1.8374,-1.8663,-1.8271,-1.7448,-1.655,-1.6789,-1.5975,-1.4714,-1.4847,-1.4983,-1.5085,-1.5023,-1.5074,-1.5093,-1.4638,-1.4399,-1.4228,-1.3892,-1.3713,-1.3492,-1.2935,-1.2246,-1.1461,-1.068,-1.0376,-1.0121,-0.9516,-0.9446,-0.9497,-0.9482,-0.9494,-0.9474,-0.9407,-0.9116,-0.8853,-0.8662,-0.8061,-0.7679,-0.775,-0.7501,-0.7256,-0.7136,-0.6947,-0.6469,-0.5569,-0.5302,-0.5118,-0.4996,-0.4978,-0.5157,-0.5515,-0.5103,-0.4885,-0.4885,-0.4434,-0.4176,-0.4103,-0.6009,-0.6735,-0.6356,-0.6319,-0.6208,-2.8417,0.0,0.0,0.0,0.0,0.0,0.0,0.0,0.0,0.0,0.0,0.0,0.0,0.0,0.0,0.0,0.0,0.0,0.0,0.0,0.0,0.0,0.0,0.0,0.0,0.0,0.0,0.0,-1.9933,-2.0209,-2.045,-2.1063,-2.1379,-2.1293,-2.1097,-2.0994,-2.0994,-2.1032,-2.1105,-2.1206,-2.1735,-2.194,-2.184,-2.1724,-2.165,-2.1573,-2.1238,-2.1064,-2.092,-1.938,-1.8861,-1.8961,-1.8751,-1.7887,-1.6807,-1.6863,-1.5975,-1.4712,-1.4736,-1.4811,-1.4882,-1.4866,-1.4857,-1.4806,-1.4567,-1.4335,-1.41,-1.3874,-1.3713,-1.3492,-1.2935,-1.1882,-1.0908,-1.0698,-1.017,-0.9672,-0.9499,-0.9446,-0.9407,-0.9374,-0.9412,-0.94,-0.935,-0.9266,-0.9335,-0.9702,-0.9066,-0.8734,-0.9238,-0.8184,-0.7379,-0.7374,-0.6401,-0.5683,-0.5594,-0.4945,-0.45,-0.4354,-0.4412,-0.4337,-0.4176,-0.4247,-0.4327,-0.4305,-0.4251,-0.4171,-0.409,-0.5088,-0.5468,-0.5323,-0.5742,-0.5889,0.0,0.0,0.0,0.0,0.0,0.0,-2.3968,-2.398,0.0,0.0,0.0,0.0,0.0,0.0,0.0,0.0,0.0,0.0,0.0,0.0,0.0,0.0,0.0,0.0,0.0,-1.8821,0.0,-1.8715,-1.9186,-1.9687,-2.0154,-2.0852,-2.1312,-2.1487,-2.1319,-2.1295,-2.1412,-2.1468,-2.1396,-2.1226,-2.1641,-2.1797,-2.1724,-2.1542,-2.1481,-2.145,-2.1356,-2.1277,-2.1149,-1.9829,-1.9349,-1.9469,-1.9092,-1.8097,-1.6867,-1.6849,-1.5913,-1.4683,-1.4726,-1.4799,-1.4862,-1.4827,-1.4807,-1.4779,-1.453,-1.4307,-1.4109,-1.3891,-1.3358,-1.2691,-1.2013,-1.1107,-1.0343,-1.0233,-0.988,-0.9538,-0.9538,-0.9439,-0.9351,-0.934,-0.9354,-0.9327,-0.9249,-0.9219,-0.933,-0.9666,-0.9169,-0.8919,-0.9335,-0.8219,-0.7399,-0.7463,-0.635,-0.547,-0.5208,-0.4543,-0.3966,-0.3563,-0.3637,-0.3614,-0.3458,-0.3754,-0.3952,-0.3923,-0.402,-0.4054,-0.3966,-0.4404,-0.4563,-0.4489,-0.4989,-0.5189,0.0,0.0,0.0,0.0,0.0,0.0,-2.5323,-2.4756,-2.4442,0.0,0.0,0.0,0.0,0.0,0.0,0.0,0.0,0.0,0.0,0.0,0.0,0.0,0.0,0.0,-1.7694,-1.7592,-1.7542,-1.7587,-1.816,-1.896,-2.0044,-2.0535,-2.0983,-2.1429,-2.1461,-2.1593,-2.1815,-2.1888,-2.1852,-2.1694,-2.1615,-2.1589,-2.1559,-2.1388,-2.1309,-2.1309,-2.1309,-2.1245,-2.1083,-2.0113,-1.9857,-2.0013,-1.9218,-1.8064,-1.6798,-1.6793,-1.5857,-1.4616,-1.4747,-1.4877,-1.4953,-1.4824,-1.4857,-1.4886,-1.4471,-1.4275,-1.4119,-1.3827,-1.2784,-1.1544,-1.0736,-1.0207,-0.9828,-0.9591,-0.9548,-0.9584,-0.9584,-0.9431,-0.9301,-0.9345,-0.9348,-0.9294,-0.9096,-0.9123,-0.9109,-0.9053,-0.882,-0.868,-0.8662,-0.7943,-0.7371,-0.73,-0.6431,-0.5507,-0.4675,-0.4105,-0.3559,-0.289,-0.2923,-0.306,-0.3204,-0.3461,-0.366,-0.3716,-0.3794,-0.3817,-0.3796,-0.3958,-0.3984,-0.3886,-0.4188,-0.4306,0.0,0.0,0.0,0.0,0.0,0.0,-2.7927,-2.7692,-2.7245,0.0,0.0,0.0,0.0,0.0,0.0,0.0,0.0,0.0,0.0,0.0,0.0,0.0,0.0,0.0,-1.7713,-1.7672,-1.7624,-1.7528,-1.7696,-1.8132,-1.8896,-1.9224,-1.9702,-2.036,-2.0605,-2.0731,-2.0791,-2.1173,-2.1248,-2.1083,-2.1427,-2.1528,-2.1356,-2.1325,-2.1309,-2.1309,-2.1309,-2.1108,-2.0772,-2.0588,-2.0307,-1.9913,-1.8841,-1.7773,-1.6783,-1.6737,-1.5845,-1.4678,-1.4698,-1.4807,-1.4874,-1.4639,-1.4602,-1.4604,-1.4206,-1.4068,-1.3891,-1.3143,-1.2069,-1.1076,-1.0745,-1.0208,-0.9736,-0.9658,-0.9552,-0.9428,-0.9428,-0.9318,-0.9204,-0.9162,-0.941,-0.9487,-0.9107,-0.9284,-0.9414,-0.9212,-0.9116,-0.8896,-0.8431,-0.7834,-0.7285,-0.6718,-0.561,-0.4793,-0.4636,-0.3823,-0.3344,-0.3297,-0.3039,-0.3068,-0.3349,-0.3222,-0.3309,-0.3671,-0.3672,-0.3643,-0.3649,-0.3569,-0.3603,-0.374,-0.3871,-0.3893,0.0,0.0,0.0,-3.0841,0.0,0.0,0.0,-2.8241,-2.7945,-2.6127,0.0,0.0,0.0,0.0,0.0,0.0,0.0,0.0,0.0,0.0,0.0,0.0,0.0,0.0,-1.6541,-1.6499,-1.6605,-1.6971,-1.7023,-1.7343,-1.8031,-1.8181,-1.8656,-1.9523,-1.9682,-1.9967,-2.0437,-2.0641,-2.0789,-2.0866,-2.1069,-2.1212,-2.1309,-2.1309,-2.116,-2.0986,-2.1393,-2.1262,-2.0833,-2.1164,-2.1096,-2.0666,-1.9475,-1.8628,-1.798,-1.7109,-1.6183,-1.529,-1.4931,-1.4882,-1.4953,-1.474,-1.468,-1.4622,-1.418,-1.3889,-1.3526,-1.2724,-1.1814,-1.1001,-1.0574,-1.0081,-0.9666,-0.958,-0.954,-0.9511,-0.9507,-0.9484,-0.9494,-0.9573,-0.9944,-1.0004,-0.9417,-0.9014,-0.8838,-0.8906,-0.8486,-0.8072,-0.7694,-0.7157,-0.6649,-0.6217,-0.512,-0.4369,-0.4146,-0.3523,-0.3099,-0.2993,-0.2932,-0.2968,-0.3159,-0.3182,-0.313,-0.3016,-0.2526,-0.2306,-0.2334,-0.2145,-0.2347,-0.2958,-0.2986,-0.28,0.0,0.0,0.0,0.0,0.0,-3.0932,0.0,0.0,0.0,0.0,0.0,0.0,0.0,0.0,0.0,0.0,0.0,0.0,0.0,0.0,0.0,0.0,0.0,0.0,0.0,-1.4979,-1.5298,-1.6162,-1.6103,-1.6386,-1.7227,-1.739,-1.7922,-1.888,-1.9034,-1.9435,-2.0149,-2.0188,-2.0316,-2.0538,-2.0571,-2.0825,-2.1266,-2.1105,-2.0927,-2.0716,-2.1226,-2.1228,-2.0891,-2.1422,-2.1709,-2.168,-2.0347,-1.9632,-1.9139,-1.7514,-1.6427,-1.5687,-1.4911,-1.4736,-1.4801,-1.4574,-1.457,-1.4534,-1.411,-1.3632,-1.3094,-1.2314,-1.1609,-1.0951,-1.0228,-0.9857,-0.9627,-0.9436,-0.9516,-0.9627,-0.9633,-0.9638,-0.9756,-0.9977,-1.0187,-1.0157,-0.9567,-0.8802,-0.8286,-0.8386,-0.7744,-0.7197,-0.6946,-0.6512,-0.6107,-0.5802,-0.4998,-0.4353,-0.3939,-0.3342,-0.2797,-0.2423,-0.2392,-0.2416,-0.2481,-0.2742,-0.2637,-0.2025,-0.1271,-0.0938,-0.107,-0.08,-0.1118,-0.198,-0.1958,-0.1646,0.0,0.0,0.0,0.0,-3.1121,0.0,0.0,0.0,-2.9723,-2.9244,0.0,0.0,0.0,0.0,0.0,0.0,0.0,0.0,0.0,0.0,0.0,0.0,0.0,0.0,0.0,-1.3895,-1.4325,-1.519,-1.4645,-1.4918,-1.6366,-1.7055,-1.7758,-1.8526,-1.9122,-1.9368,-1.9247,-1.9648,-1.9762,-1.9554,-1.9979,-2.05,-2.1097,-2.0456,-2.049,-2.1002,-2.0387,-2.0305,-2.0628,-2.0737,-2.1454,-2.2431,-2.0916,-1.9823,-1.8961,-1.7458,-1.6105,-1.4908,-1.4033,-1.3803,-1.3822,-1.3561,-1.3719,-1.3941,-1.36,-1.3113,-1.2515,-1.1638,-1.1094,-1.0557,-0.9711,-0.9559,-0.956,-0.9369,-0.9508,-0.9676,-0.9675,-0.9631,-0.9623,-0.9666,-0.94,-0.914,-0.9012,-0.9118,-0.8901,-0.7849,-0.7649,-0.7348,-0.67,-0.6743,-0.6484,-0.5645,-0.5352,-0.5027,-0.4713,-0.3396,-0.2314,-0.1671,-0.1038,-0.0759,-0.0935,-0.1088,-0.1122,-0.1082,-0.0828,-0.0827,-0.1028,-0.0751,-0.084,-0.1206,-0.1096,-0.1052,0.0,0.0,0.0,0.0,0.0,0.0,-3.036,0.0,-2.9772,0.0,0.0,0.0,0.0,0.0,0.0,0.0,-1.1008,0.0,0.0,0.0,0.0,0.0,0.0,0.0,0.0,0.0,0.0,0.0,0.0,-1.4801,-1.556,-1.5907,-1.6594,-1.7763,-1.8105,-1.8609,-1.9335,-1.9419,-1.9507,-1.9646,-2.0192,-2.0467,-2.0475,-2.1061,-2.1105,-2.0721,-2.1285,-2.1502,-2.152,-2.2091,-2.2678,-2.3127,-2.2209,-2.1383,-2.0473,-1.8364,-1.7079,-1.6189,-1.4647,-1.4243,-1.4345,-1.4035,-1.3702,-1.3442,-1.3441,-1.3028,-1.243,-1.1911,-1.1425,-1.0875,-1.0083,-0.9807,-0.9633,-0.9254,-0.9497,-0.9746,-0.9487,-0.9656,-0.9773,-0.9355,-0.9252,-0.8974,-0.8217,-0.8159,-0.8017,-0.7468,-0.6835,-0.6315,-0.6034,-0.6115,-0.5922,-0.5275,-0.5042,-0.4745,-0.4323,-0.3511,-0.2424,-0.1004,-0.0368,-0.0252,-0.0703,-0.0302,-0.01,-0.0147,0.0349,0.0599,0.0491,0.0639,0.0623,0.0455,0.0044,0.0043,-2.8624,0.0,0.0,0.0,0.0,0.0,0.0,0.0,0.0,0.0,0.0,0.0,0.0,0.0,0.0,0.0,0.0,-0.9929,0.0,0.0,0.0,0.0,0.0,0.0,0.0,0.0,0.0,0.0,0.0,0.0,-1.4958,-1.5278,-1.6048,-1.7375,-1.7658,-1.8381,-1.9569,-1.959,-1.9693,-1.9919,-2.0516,-2.072,-2.059,-2.1507,-2.1531,-2.0893,-2.1794,-2.2164,-2.2211,-2.2954,-2.3436,-2.3646,-2.332,-2.2535,-2.1321,-1.9041,-1.761,-1.6532,-1.4842,-1.4266,-1.4283,-1.4178,-1.3688,-1.3123,-1.322,-1.2941,-1.2438,-1.188,-1.1472,-1.1002,-1.0135,-0.9799,-0.9573,-0.9152,-0.946,-0.9672,-0.9153,-0.9374,-0.9473,-0.8777,-0.8732,-0.8505,-0.7447,-0.729,-0.723,-0.6973,-0.6278,-0.5678,-0.5466,-0.5466,-0.528,-0.4821,-0.4621,-0.4376,-0.4106,-0.3468,-0.2208,-0.0226,0.0384,0.0429,-0.0,0.0524,0.0834,0.0789,0.1358,0.1708,0.1893,0.1895,0.1985,0.2161,0.1188,0.0966,0.0,0.0,0.0,-2.9372,0.0,0.0,0.0,0.0,-2.8429,0.0,0.0,0.0,0.0,0.0,0.0,0.0,0.0,0.0,0.0,0.0,0.0,0.0,0.0,0.0,0.0,0.0,0.0,0.0,0.0,0.0,-1.4623,-1.5699,-1.6696,-1.7653,-1.8442,-1.9144,-1.979,-2.0313,-2.0436,-2.0191,-2.0791,-2.1405,-2.1907,-2.1256,-2.1299,-2.1908,-2.1171,-2.1392,-2.2285,-2.2386,-2.3022,-2.3896,-2.386,-2.2627,-2.0639,-1.9063,-1.7003,-1.4843,-1.3943,-1.3248,-1.2855,-1.3357,-1.3336,-1.3041,-1.2722,-1.2658,-1.2406,-1.1106,-1.0858,-1.0727,-0.9452,-0.9215,-0.9272,-0.9046,-0.9298,-0.9444,-0.8755,-0.864,-0.8429,-0.7767,-0.7513,-0.7198,-0.6721,-0.7098,-0.7202,-0.6376,-0.6213,-0.5928,-0.5202,-0.5093,-0.4882,-0.4307,-0.4207,-0.4274,-0.4494,-0.3111,-0.1348,0.0706,0.1427,0.1731,0.1716,0.1737,0.1762,0.176,0.1765,0.2033,0.2592,0.2548,0.2965,0.3701,0.2257,0.1528,0.0,0.0,-2.952,-2.8634,0.0,0.0,0.0,0.0,0.0,0.0,0.0,0.0,0.0,0.0,0.0,0.0,0.0,0.0,0.0,0.0,0.0,0.0,0.0,0.0,0.0,0.0,0.0,0.0,-1.244,0.0,0.0,-1.4844,-1.5616,-1.6733,-1.7591,-1.8413,-1.9204,-1.9768,-2.027,-2.0667,-2.1606,-2.2106,-2.2289,-2.2923,-2.3052,-2.2716,-2.2387,-2.2565,-2.3088,-2.3066,-2.3151,-2.3254,-2.2665,-2.1204,-1.9381,-1.9126,-1.7303,-1.4765,-1.3317,-1.2992,-1.3206,-1.307,-1.2901,-1.2707,-1.2787,-1.2707,-1.2355,-1.1319,-1.1102,-1.0876,-0.9561,-0.927,-0.9179,-0.8657,-0.8735,-0.8735,-0.793,-0.7842,-0.7719,-0.7046,-0.6895,-0.675,-0.6411,-0.6109,-0.5982,-0.6273,-0.5832,-0.5386,-0.5277,-0.4994,-0.4472,-0.3462,-0.2888,-0.273,-0.2954,-0.1245,0.0185,0.1064,0.1284,0.145,0.1451,0.1534,0.158,0.1484,0.1694,0.184,0.1872,0.309,0.3733,0.3845,0.2974,0.2722,-2.8664,-2.9012,0.0,-2.8466,-2.8274,0.0,-2.7068,0.0,0.0,0.0,0.0,0.0,0.0,0.0,0.0,0.0,0.0,0.0,0.0,-0.7013,0.0,0.0,0.0,0.0,0.0,0.0,0.0,-1.0619,-1.1737,0.0,0.0,0.0,-1.4897,-1.6114,-1.6755,-1.7635,-1.8816,-1.945,-2.027,-2.1307,-2.2191,-2.2709,-2.2955,-2.3845,-2.3922,-2.3353,-2.3005,-2.3008,-2.3225,-2.2898,-2.2513,-2.2087,-2.1469,-1.9812,-1.7776,-1.8022,-1.6416,-1.3915,-1.2796,-1.2706,-1.3025,-1.2747,-1.2557,-1.2478,-1.2659,-1.2481,-1.2019,-1.1188,-1.0859,-1.049,-0.9385,-0.9,-0.8793,-0.8351,-0.8238,-0.8042,-0.723,-0.7144,-0.7056,-0.6385,-0.6085,-0.593,-0.5743,-0.5128,-0.4999,-0.5828,-0.5218,-0.4666,-0.445,-0.432,-0.3675,-0.2331,-0.1967,-0.1782,-0.1783,-0.0126,0.1194,0.1832,0.179,0.1768,0.177,0.1998,0.2029,0.1884,0.2143,0.2298,0.2296,0.3535,0.4209,0.4369,0.3965,0.3923]},{"header":{"parameterUnit":"m.s-1","parameterCategory":1,"la1":30.6,"la2":29.2853,"lo1":-89.7004,"lo2":-87.6739,"dy":0.0162,"dx":0.0183,"nx":112,"ny":82,"refTime":"2023-05-13T12:00:00:Z","depth":0,"parameterNumber":3,"parameterNumberName":"V-component_of_WINDS"},"data":[0.0,0.0,0.0,0.0,0.0,0.0,0.0,0.0,0.0,0.0,0.0,0.0,0.0,0.0,0.0,0.0,0.0,0.0,0.0,0.0,0.0,0.0,0.0,0.0,0.0,0.0,0.0,0.0,0.0,0.0,0.0,0.0,0.0,0.0,0.0,0.0,0.0,0.0,0.0,0.0,0.0,0.0,0.0,0.0,0.0,0.0,0.0,0.0,0.0,0.0,0.0,0.0,0.0,0.0,0.0,0.0,0.0,0.0,0.0,0.0,0.0,0.0,0.0,0.0,0.0,0.0,0.0,0.0,0.0,0.0,0.0,0.0,0.0,0.0,0.0,0.0,0.0,0.0,0.0,0.0,0.0,0.0,0.0,0.0,0.0,0.0,0.0,0.0,0.0,0.0,-2.6914,-2.5127,-2.4988,-2.5378,-2.6472,-2.7035,-2.7419,-2.7817,0.0,0.0,0.0,0.0,0.0,0.0,0.0,0.0,0.0,0.0,0.0,0.0,0.0,0.0,0.0,0.0,0.0,0.0,0.0,0.0,0.0,0.0,0.0,0.0,0.0,0.0,0.0,0.0,0.0,0.0,0.0,0.0,0.0,0.0,0.0,0.0,0.0,0.0,0.0,0.0,0.0,0.0,0.0,0.0,0.0,0.0,0.0,0.0,0.0,0.0,0.0,0.0,0.0,0.0,0.0,0.0,0.0,0.0,0.0,0.0,0.0,0.0,0.0,0.0,0.0,0.0,0.0,0.0,0.0,0.0,0.0,0.0,0.0,0.0,0.0,0.0,0.0,0.0,0.0,0.0,0.0,0.0,0.0,0.0,0.0,0.0,0.0,0.0,0.0,0.0,0.0,0.0,0.0,0.0,0.0,0.0,0.0,0.0,0.0,0.0,0.0,0.0,0.0,0.0,-2.4979,-2.3819,-2.4224,-2.4819,-2.5294,-2.6295,-2.7182,-2.7914,0.0,0.0,0.0,0.0,0.0,0.0,0.0,0.0,0.0,0.0,0.0,0.0,0.0,0.0,0.0,0.0,0.0,0.0,0.0,0.0,0.0,0.0,0.0,0.0,0.0,0.0,0.0,0.0,0.0,0.0,0.0,0.0,0.0,0.0,0.0,0.0,0.0,0.0,0.0,0.0,0.0,0.0,0.0,0.0,0.0,0.0,0.0,0.0,0.0,0.0,0.0,0.0,0.0,0.0,0.0,0.0,0.0,0.0,0.0,0.0,0.0,0.0,0.0,0.0,0.0,0.0,0.0,0.0,0.0,0.0,0.0,0.0,0.0,0.0,0.0,0.0,0.0,0.0,0.0,0.0,0.0,0.0,0.0,0.0,0.0,0.0,0.0,0.0,0.0,0.0,0.0,0.0,0.0,0.0,0.0,0.0,0.0,0.0,0.0,0.0,0.0,0.0,0.0,-2.3859,-2.2919,-2.3172,-2.2833,-2.325,-2.4957,-2.5775,-2.668,-2.7792,-2.8243,0.0,0.0,0.0,0.0,0.0,0.0,0.0,0.0,0.0,0.0,0.0,0.0,0.0,0.0,0.0,0.0,0.0,0.0,0.0,0.0,0.0,0.0,0.0,0.0,0.0,0.0,0.0,0.0,0.0,0.0,0.0,0.0,0.0,0.0,0.0,0.0,0.0,0.0,0.0,0.0,0.0,0.0,0.0,0.0,0.0,0.0,0.0,0.0,0.0,0.0,0.0,0.0,0.0,0.0,0.0,0.0,0.0,0.0,0.0,0.0,0.0,0.0,0.0,0.0,0.0,0.0,0.0,0.0,0.0,0.0,0.0,0.0,0.0,0.0,0.0,0.0,0.0,0.0,0.0,0.0,0.0,0.0,0.0,0.0,0.0,0.0,0.0,0.0,0.0,0.0,0.0,0.0,0.0,0.0,0.0,0.0,0.0,0.0,0.0,0.0,0.0,0.0,-2.2192,-2.1826,-2.2678,-2.1793,-2.2129,-2.4617,-2.5346,-2.6163,-2.7483,-2.8036,0.0,0.0,0.0,0.0,0.0,0.0,0.0,0.0,0.0,0.0,0.0,0.0,0.0,0.0,0.0,0.0,0.0,0.0,0.0,0.0,0.0,0.0,0.0,0.0,0.0,0.0,0.0,0.0,0.0,0.0,0.0,0.0,0.0,0.0,0.0,0.0,0.0,0.0,0.0,0.0,0.0,0.0,0.0,0.0,0.0,0.0,0.0,0.0,0.0,0.0,0.0,0.0,0.0,0.0,0.0,0.0,0.0,0.0,0.0,0.0,0.0,0.0,0.0,0.0,0.0,0.0,0.0,0.0,0.0,0.0,0.0,0.0,0.0,0.0,0.0,0.0,0.0,0.0,0.0,0.0,0.0,0.0,0.0,0.0,0.0,0.0,0.0,0.0,0.0,0.0,0.0,0.0,0.0,0.0,0.0,0.0,0.0,0.0,0.0,0.0,0.0,0.0,-2.2415,-2.2688,-2.19,-2.1562,-2.2078,-2.3714,-2.4851,-2.5817,-2.6725,-2.7619,0.0,0.0,0.0,0.0,0.0,0.0,0.0,0.0,0.0,0.0,0.0,0.0,0.0,0.0,0.0,0.0,0.0,0.0,0.0,0.0,0.0,0.0,0.0,0.0,0.0,0.0,0.0,0.0,0.0,0.0,0.0,0.0,0.0,0.0,0.0,0.0,0.0,0.0,0.0,0.0,0.0,0.0,0.0,0.0,0.0,0.0,0.0,0.0,0.0,0.0,0.0,0.0,0.0,0.0,0.0,0.0,0.0,0.0,0.0,0.0,0.0,0.0,0.0,0.0,0.0,0.0,0.0,0.0,0.0,0.0,0.0,0.0,0.0,0.0,0.0,0.0,0.0,0.0,0.0,0.0,0.0,0.0,0.0,0.0,0.0,0.0,0.0,0.0,0.0,0.0,0.0,0.0,0.0,0.0,0.0,0.0,0.0,0.0,0.0,0.0,0.0,0.0,-2.1151,-2.135,0.0,-2.1195,-2.1704,-2.3617,-2.4532,-2.5513,-2.6649,0.0,0.0,0.0,0.0,0.0,0.0,0.0,0.0,0.0,0.0,0.0,0.0,0.0,0.0,0.0,0.0,0.0,0.0,0.0,0.0,0.0,0.0,0.0,0.0,0.0,0.0,0.0,0.0,0.0,0.0,0.0,0.0,0.0,0.0,0.0,0.0,0.0,0.0,0.0,0.0,0.0,0.0,0.0,0.0,0.0,0.0,0.0,0.0,0.0,0.0,0.0,0.0,0.0,0.0,0.0,0.0,0.0,0.0,0.0,0.0,0.0,0.0,0.0,0.0,0.0,0.0,0.0,0.0,0.0,0.0,0.0,0.0,0.0,0.0,0.0,0.0,0.0,0.0,0.0,0.0,0.0,0.0,0.0,0.0,0.0,0.0,0.0,0.0,0.0,0.0,0.0,0.0,0.0,0.0,0.0,0.0,0.0,0.0,0.0,0.0,0.0,0.0,-2.0475,-2.0557,-2.0899,0.0,-2.1195,-2.1526,-2.3193,-2.42,-2.5196,-2.6159,0.0,0.0,0.0,0.0,0.0,0.0,0.0,0.0,0.0,0.0,0.0,0.0,0.0,0.0,0.0,0.0,0.0,0.0,0.0,0.0,0.0,0.0,0.0,0.0,0.0,0.0,0.0,0.0,0.0,0.0,0.0,0.0,0.0,0.0,0.0,0.0,0.0,0.0,0.0,0.0,0.0,0.0,0.0,0.0,0.0,0.0,0.0,0.0,0.0,0.0,0.0,0.0,0.0,0.0,0.0,0.0,0.0,0.0,0.0,0.0,0.0,0.0,0.0,0.0,0.0,0.0,0.0,0.0,0.0,0.0,0.0,0.0,0.0,0.0,0.0,0.0,0.0,0.0,0.0,0.0,0.0,0.0,0.0,0.0,0.0,0.0,0.0,0.0,0.0,0.0,0.0,0.0,0.0,0.0,0.0,0.0,0.0,0.0,0.0,0.0,0.0,0.0,-1.9938,-2.0887,-2.1651,-2.1401,-2.1392,-2.166,-2.2353,-2.3867,-2.4949,0.0,0.0,0.0,0.0,0.0,0.0,0.0,0.0,0.0,0.0,0.0,0.0,0.0,0.0,0.0,0.0,0.0,0.0,0.0,0.0,0.0,0.0,0.0,0.0,0.0,0.0,0.0,0.0,0.0,0.0,0.0,0.0,0.0,0.0,0.0,0.0,0.0,0.0,0.0,0.0,0.0,0.0,0.0,0.0,0.0,0.0,0.0,0.0,0.0,0.0,0.0,0.0,0.0,0.0,0.0,0.0,0.0,0.0,0.0,0.0,0.0,0.0,0.0,0.0,0.0,0.0,0.0,0.0,0.0,0.0,0.0,0.0,0.0,0.0,0.0,0.0,0.0,0.0,0.0,0.0,0.0,0.0,0.0,0.0,0.0,0.0,0.0,0.0,0.0,0.0,0.0,0.0,0.0,0.0,0.0,0.0,0.0,0.0,0.0,0.0,0.0,0.0,0.0,-2.0117,-2.0703,-2.1284,-2.1392,-2.1195,-2.1374,-2.2097,-2.3038,-2.3906,-2.4602,0.0,0.0,0.0,0.0,0.0,0.0,0.0,0.0,0.0,0.0,0.0,0.0,0.0,0.0,0.0,0.0,0.0,0.0,0.0,0.0,0.0,0.0,0.0,0.0,0.0,0.0,0.0,0.0,0.0,0.0,0.0,0.0,0.0,0.0,0.0,0.0,0.0,0.0,0.0,0.0,0.0,0.0,0.0,0.0,0.0,0.0,0.0,0.0,0.0,0.0,0.0,0.0,0.0,0.0,0.0,0.0,0.0,0.0,0.0,0.0,0.0,0.0,0.0,0.0,0.0,0.0,0.0,0.0,0.0,0.0,0.0,0.0,0.0,0.0,0.0,0.0,0.0,0.0,0.0,0.0,0.0,0.0,0.0,0.0,0.0,0.0,0.0,0.0,0.0,0.0,0.0,0.0,0.0,0.0,0.0,0.0,0.0,0.0,0.0,0.0,0.0,0.0,-2.0108,-2.0615,-2.1087,-2.1195,-2.1195,-2.1374,-2.2008,-2.2706,-2.3488,-2.4432,0.0,0.0,0.0,0.0,0.0,0.0,0.0,0.0,0.0,0.0,0.0,0.0,0.0,0.0,0.0,0.0,0.0,0.0,0.0,0.0,0.0,0.0,0.0,0.0,0.0,0.0,0.0,0.0,0.0,0.0,0.0,0.0,0.0,0.0,0.0,0.0,0.0,0.0,0.0,0.0,0.0,0.0,0.0,0.0,0.0,0.0,0.0,0.0,0.0,0.0,0.0,0.0,0.0,0.0,0.0,0.0,0.0,0.0,0.0,0.0,0.0,0.0,0.0,0.0,0.0,0.0,0.0,0.0,0.0,0.0,0.0,0.0,0.0,0.0,0.0,0.0,0.0,0.0,0.0,0.0,0.0,0.0,0.0,0.0,0.0,0.0,0.0,0.0,0.0,0.0,0.0,0.0,0.0,0.0,0.0,0.0,0.0,0.0,0.0,0.0,0.0,0.0,-1.9853,-2.0527,-2.0997,-2.0997,-2.1203,-2.1571,-2.2008,-2.2618,-2.3448,-2.4373,0.0,0.0,0.0,0.0,0.0,0.0,0.0,0.0,0.0,0.0,0.0,0.0,0.0,0.0,0.0,0.0,0.0,0.0,0.0,0.0,0.0,0.0,0.0,0.0,0.0,0.0,0.0,0.0,0.0,0.0,0.0,0.0,0.0,0.0,0.0,0.0,0.0,0.0,0.0,0.0,0.0,0.0,0.0,0.0,0.0,0.0,0.0,0.0,0.0,0.0,0.0,0.0,0.0,0.0,0.0,0.0,0.0,0.0,0.0,0.0,-2.0317,0.0,0.0,0.0,0.0,0.0,0.0,0.0,0.0,0.0,0.0,0.0,0.0,0.0,0.0,0.0,0.0,0.0,0.0,0.0,0.0,0.0,0.0,0.0,0.0,0.0,0.0,0.0,0.0,0.0,0.0,0.0,0.0,0.0,0.0,0.0,0.0,0.0,0.0,0.0,0.0,0.0,-1.9853,-2.0351,-2.0826,-2.0997,-2.1087,-2.1275,-2.1741,-2.2264,-2.2766,-2.3324,-2.4349,0.0,0.0,0.0,0.0,0.0,0.0,0.0,0.0,0.0,0.0,0.0,0.0,0.0,0.0,0.0,0.0,0.0,0.0,0.0,0.0,0.0,0.0,0.0,0.0,0.0,0.0,0.0,0.0,0.0,0.0,0.0,0.0,0.0,0.0,0.0,0.0,0.0,0.0,0.0,0.0,0.0,0.0,0.0,0.0,0.0,0.0,0.0,0.0,0.0,0.0,0.0,0.0,0.0,0.0,0.0,0.0,0.0,0.0,0.0,0.0,-1.9629,0.0,0.0,0.0,0.0,0.0,0.0,0.0,0.0,0.0,0.0,0.0,0.0,0.0,0.0,0.0,0.0,0.0,0.0,0.0,0.0,0.0,0.0,0.0,0.0,0.0,0.0,0.0,0.0,0.0,0.0,0.0,0.0,0.0,0.0,0.0,0.0,0.0,0.0,0.0,0.0,-1.9674,-2.0263,-2.0736,-2.0997,-2.1096,-2.1284,-2.1562,-2.2087,-2.26,-2.3061,-2.4241,0.0,0.0,0.0,0.0,0.0,0.0,0.0,0.0,0.0,0.0,0.0,0.0,0.0,0.0,0.0,0.0,0.0,0.0,0.0,0.0,0.0,0.0,0.0,0.0,0.0,0.0,0.0,0.0,0.0,0.0,0.0,0.0,0.0,0.0,0.0,0.0,0.0,0.0,0.0,0.0,0.0,0.0,0.0,0.0,0.0,0.0,0.0,0.0,0.0,0.0,0.0,0.0,0.0,-1.9567,-1.8988,-1.7728,-1.7156,-1.6863,-1.6921,-1.8533,-1.9429,-1.962,0.0,0.0,0.0,0.0,0.0,0.0,0.0,0.0,0.0,0.0,0.0,0.0,0.0,0.0,0.0,0.0,0.0,0.0,0.0,0.0,0.0,0.0,0.0,0.0,0.0,-2.0047,-2.0336,0.0,0.0,0.0,0.0,0.0,0.0,0.0,0.0,0.0,0.0,0.0,0.0,-1.9762,-2.0395,-2.0835,-2.0997,-2.1203,-2.1392,-2.1392,-2.2008,-2.253,-2.2969,-2.42,-2.5337,0.0,0.0,0.0,0.0,0.0,0.0,0.0,0.0,0.0,0.0,0.0,0.0,0.0,0.0,0.0,0.0,0.0,0.0,0.0,0.0,0.0,0.0,0.0,0.0,0.0,0.0,0.0,0.0,0.0,0.0,0.0,0.0,-2.5217,-2.5005,0.0,0.0,0.0,0.0,0.0,0.0,0.0,0.0,0.0,0.0,0.0,0.0,0.0,-1.8302,-1.7972,-1.827,-1.8185,-1.7807,-1.8202,-1.8094,-1.7653,-1.7556,-1.7492,-1.7462,-1.7791,0.0,-1.7605,-1.6915,0.0,0.0,0.0,0.0,0.0,0.0,0.0,0.0,0.0,0.0,0.0,0.0,0.0,0.0,0.0,0.0,0.0,0.0,0.0,0.0,0.0,0.0,-2.028,-2.0382,-2.0186,-2.0166,0.0,-2.0104,-1.9861,-2.034,-2.0391,0.0,0.0,0.0,0.0,0.0,0.0,0.0,-2.0566,-2.1015,-2.1203,-2.0997,-2.1203,-2.1392,-2.1392,-2.183,-2.2274,-2.2441,-2.371,-2.4346,-2.4147,-2.4637,0.0,0.0,0.0,0.0,0.0,0.0,0.0,0.0,0.0,0.0,0.0,0.0,0.0,0.0,0.0,0.0,0.0,0.0,0.0,0.0,0.0,0.0,0.0,0.0,0.0,0.0,0.0,0.0,0.0,-2.2885,-2.1795,-2.1535,-2.0281,-1.9451,0.0,0.0,0.0,0.0,0.0,0.0,0.0,0.0,0.0,-1.7661,-1.6994,-1.6725,-1.6766,-1.6995,-1.7035,-1.6873,-1.7223,-1.7164,-1.669,-1.6847,-1.671,-1.6409,-1.6561,-1.659,-1.6542,-1.6341,-1.6308,-1.6184,0.0,0.0,0.0,0.0,-1.5879,-1.6061,-1.7046,-1.7455,0.0,0.0,0.0,0.0,0.0,0.0,0.0,0.0,0.0,0.0,0.0,0.0,0.0,-1.8716,-1.8344,-1.8044,-1.8375,-1.8323,-1.8372,0.0,-1.9418,-1.9007,-1.8238,0.0,0.0,0.0,0.0,-2.0494,-2.0586,-2.1051,-2.1392,-2.1374,-2.1651,-2.175,-2.1562,-2.2008,-2.2264,-2.2264,-2.3531,-2.4289,-2.4346,-2.4913,-2.5051,0.0,0.0,0.0,0.0,0.0,0.0,0.0,0.0,0.0,0.0,0.0,0.0,0.0,0.0,0.0,0.0,0.0,0.0,0.0,0.0,0.0,0.0,0.0,0.0,0.0,0.0,0.0,0.0,-1.9238,-1.8943,-1.8669,-1.7702,-1.7067,0.0,0.0,0.0,0.0,0.0,0.0,-1.6713,-1.5893,-1.5615,-1.5912,-1.5174,-1.493,-1.54,-1.5595,-1.5827,-1.5998,-1.6212,-1.6111,-1.5714,-1.5921,-1.5809,-1.5409,-1.5608,-1.5692,-1.5668,-1.6034,-1.6145,-1.6072,-1.5452,-1.5197,-1.5185,-1.5236,-1.5286,-1.5466,-1.6238,-1.654,-1.6609,-1.7441,0.0,-1.7281,-1.7633,0.0,0.0,0.0,0.0,-1.7141,-1.7299,-1.6961,-1.6625,-1.7089,-1.6668,-1.6188,-1.6535,-1.6409,-1.6831,0.0,-1.8546,-1.824,-1.7478,0.0,0.0,0.0,0.0,-2.0184,-2.0386,-2.1025,-2.1562,-2.1651,-2.1919,-2.2008,-2.1741,-2.2087,-2.2264,-2.2097,-2.3028,-2.379,-2.4372,-2.4807,-2.4902,-2.4701,0.0,0.0,0.0,0.0,0.0,0.0,0.0,0.0,0.0,0.0,0.0,0.0,0.0,0.0,0.0,0.0,0.0,0.0,0.0,0.0,0.0,0.0,0.0,0.0,0.0,0.0,0.0,0.0,0.0,-1.6014,-1.4634,0.0,0.0,0.0,0.0,-1.4345,-1.3856,-1.3366,-1.3033,-1.2819,-1.2802,-1.3141,-1.2775,-1.2997,-1.3729,-1.3729,-1.4048,-1.4796,-1.5107,-1.5208,-1.5107,-1.5119,-1.5125,-1.5125,-1.5143,-1.5149,-1.5185,-1.5656,-1.5756,-1.5594,-1.5771,-1.5738,-1.5517,-1.6071,-1.628,-1.6358,-1.6932,-1.7134,-1.7147,-1.6887,-1.6039,-1.5306,-1.56,-1.5097,0.0,0.0,-1.5196,-1.5346,-1.5822,-1.5987,-1.5919,-1.6094,-1.5831,-1.5528,-1.5601,-1.4981,-1.5132,0.0,-1.8656,-1.843,-1.6267,0.0,-1.7319,-1.6407,-1.7417,-1.8816,-2.018,-2.1078,-2.1651,-2.1741,-2.1919,-2.2008,-2.1741,-2.1919,-2.2097,-2.2097,-2.2185,-2.253,-2.3135,-2.3193,-2.3342,-2.3606,-2.3576,0.0,0.0,0.0,0.0,0.0,0.0,0.0,0.0,0.0,0.0,0.0,0.0,0.0,0.0,0.0,0.0,0.0,0.0,0.0,0.0,0.0,0.0,0.0,0.0,0.0,0.0,0.0,0.0,-1.2883,-1.2477,0.0,-1.2894,-1.1714,-1.146,-1.3003,-1.2549,-1.2267,-1.2587,-1.2685,-1.2653,-1.2601,-1.2617,-1.2833,-1.3274,-1.328,-1.352,-1.3906,-1.4005,-1.4103,-1.4109,-1.4272,-1.4348,-1.436,-1.4517,-1.4695,-1.4814,-1.51,-1.5167,-1.5202,-1.5303,-1.5288,-1.5264,-1.584,-1.6087,-1.6137,-1.6714,-1.7067,-1.7147,-1.7042,-1.6729,-1.6401,-1.6075,-1.5669,-1.5316,-1.5306,-1.5131,-1.4922,-1.5318,-1.524,-1.5167,-1.512,-1.5078,-1.4961,-1.4777,-1.4484,-1.4469,-1.5222,-1.6292,-1.6762,-1.6021,-1.6982,-1.7598,-1.6941,-1.8265,-1.9554,-2.0232,-2.1087,-2.1741,-2.1919,-2.2176,-2.2185,-2.2008,-2.2176,-2.2176,-2.183,-2.2008,-2.2185,-2.2441,-2.2706,-2.2989,-2.3006,-2.3179,-2.2993,0.0,0.0,0.0,0.0,0.0,0.0,0.0,0.0,0.0,0.0,0.0,0.0,0.0,0.0,0.0,0.0,0.0,0.0,0.0,0.0,0.0,0.0,0.0,0.0,0.0,0.0,-1.2082,-1.0837,-1.0566,-1.0576,-1.0928,-0.9979,-0.9947,-1.1313,-1.1248,-1.1106,-1.1037,-1.1645,-1.1757,-1.1224,-1.1802,-1.2293,-1.2731,-1.2655,-1.2846,-1.3408,-1.3408,-1.3408,-1.3419,-1.3671,-1.3785,-1.3791,-1.3956,-1.413,-1.4336,-1.4336,-1.4436,-1.4654,-1.5034,-1.5303,-1.5435,-1.5819,-1.5888,-1.6015,-1.6289,-1.6561,-1.6782,-1.6573,-1.6469,-1.6469,-1.6051,-1.5719,-1.5579,-1.5263,-1.4932,-1.4677,-1.4791,-1.4666,-1.4601,-1.4538,-1.4576,-1.4521,-1.4334,-1.4298,-1.4202,-1.3931,-1.4905,-1.5604,-1.5238,-1.6133,-1.6679,-1.6008,-1.7385,-1.8684,-1.9264,-2.0462,-2.1454,-2.2008,-2.2185,-2.2264,-2.2097,-2.2011,-2.1876,-2.1722,-2.166,-2.1895,-2.2353,-2.2572,-2.2766,-2.2939,-2.3016,-2.2732,-2.234,0.0,0.0,0.0,0.0,0.0,0.0,0.0,0.0,0.0,0.0,0.0,0.0,0.0,0.0,0.0,0.0,0.0,0.0,0.0,0.0,0.0,0.0,0.0,-0.9376,-0.9798,-1.013,-0.9935,-0.9007,-0.8754,-0.9823,-0.9198,-0.8905,-0.9497,-0.9841,-0.9524,-0.8172,-0.9473,-0.9822,-0.8983,-1.0019,-1.1052,-1.201,-1.1796,-1.2167,-1.314,-1.314,-1.314,-1.3151,-1.3402,-1.342,-1.342,-1.3431,-1.3431,-1.3431,-1.3437,-1.3443,-1.3585,-1.4965,-1.5676,-1.589,-1.5897,-1.591,-1.5916,-1.5708,-1.5708,-1.5809,-1.531,-1.5107,-1.5107,-1.5107,-1.5101,-1.4993,-1.4784,-1.4677,-1.4612,-1.4366,-1.4301,-1.4335,-1.4262,-1.4298,-1.4298,-1.4298,-1.4298,-1.4208,-1.3931,-1.4682,-1.4962,-1.3727,-1.4196,-1.4395,-1.3433,-1.4701,0.0,-1.714,-1.9076,-2.0701,-2.1882,-2.2059,-2.2059,-2.2059,-2.1323,-2.1126,-2.1686,-2.1256,-2.1514,-2.2765,-2.2582,-2.2699,-2.3133,-2.2944,-2.268,-2.251,0.0,0.0,0.0,0.0,0.0,0.0,0.0,0.0,0.0,0.0,0.0,0.0,0.0,0.0,0.0,0.0,0.0,0.0,0.0,0.0,0.0,0.0,-0.9585,-0.8973,-0.8735,-0.8136,-0.6917,-0.7075,-0.7298,-0.7346,-0.6498,-0.6484,-0.8042,-0.7571,-0.7216,-0.7253,-0.8013,-0.8225,-0.7825,-0.9172,-1.0052,-1.0582,-1.1298,-1.188,-1.2417,-1.2417,-1.2417,-1.2422,-1.2494,-1.2521,-1.2532,-1.262,-1.2797,-1.3003,-1.3177,-1.334,-1.3556,-1.3883,-1.4137,-1.4258,-1.464,-1.5126,-1.5398,-1.5297,-1.5392,-1.5398,-1.5208,-1.5107,-1.5107,-1.5107,-1.4974,-1.4823,-1.4724,-1.4574,-1.4308,-1.4054,-1.4128,-1.4298,-1.4039,-1.4208,-1.4298,-1.4298,-1.4112,-1.3925,-1.3642,-1.3823,-1.3919,-1.3539,-1.401,-1.4339,-1.43,-1.5611,0.0,-1.7261,-1.9034,-2.0231,-1.9957,-2.068,-2.1117,-2.0946,-2.1072,-2.1381,-2.1952,-2.1882,-2.203,-2.252,-2.2337,-2.2358,-2.2621,-2.2409,-2.2349,0.0,0.0,0.0,0.0,0.0,0.0,0.0,0.0,0.0,0.0,0.0,0.0,0.0,0.0,0.0,0.0,0.0,0.0,0.0,0.0,0.0,0.0,-0.9052,-0.8463,-0.7693,-0.7378,-0.6833,-0.5837,-0.6032,-0.6027,-0.5924,-0.5231,-0.5207,-0.6317,-0.6071,-0.5942,-0.5833,-0.6831,-0.7149,-0.6611,-0.7885,-0.9057,-1.0022,-1.0528,-1.1288,-1.2199,-1.2097,-1.214,-1.214,-1.214,-1.214,0.0,-1.2307,-1.2509,-1.2625,-1.286,-1.3055,0.0,0.0,0.0,0.0,0.0,-1.4624,-1.4955,-1.4955,-1.506,-1.506,-1.4868,-1.4868,-1.4967,-1.4967,-1.4783,-1.4576,-1.4576,-1.4279,-1.3972,-1.379,-1.3962,-1.4135,-1.3951,-1.4124,-1.4298,-1.4298,-1.4208,-1.3925,-1.3539,0.0,0.0,-1.3249,-1.3534,-1.3843,-1.3908,-1.4999,-1.6001,-1.6494,-1.8422,-1.9636,-1.957,-2.0584,-2.1207,-2.1034,-2.0968,0.0,0.0,0.0,-2.1658,-2.2089,-2.2011,0.0,0.0,0.0,-2.2093,-2.2438,0.0,0.0,0.0,-2.1787,-2.1523,0.0,0.0,0.0,0.0,0.0,0.0,0.0,0.0,0.0,0.0,0.0,0.0,0.0,0.0,0.0,0.0,-0.8373,-0.7099,-0.5919,-0.5812,-0.5812,-0.5739,-0.5329,-0.5024,-0.4924,-0.4812,-0.4604,-0.4604,-0.5116,-0.5105,-0.4307,0.0,0.0,0.0,0.0,-0.7786,-0.9453,-0.938,-1.0242,-1.1853,-1.1799,-1.178,-1.178,-1.1968,-1.1968,-1.1984,-1.2226,-1.2334,-1.235,-1.2587,-1.27,-1.2823,-1.3238,-1.3443,-1.3443,-1.4016,-1.44,-1.4592,-1.4592,0.0,0.0,-1.449,-1.4496,-1.4688,-1.4688,-1.452,-1.4334,-1.4334,-1.3952,-1.3562,-1.3465,-1.3707,-1.387,-1.3806,-1.4081,-1.4262,-1.4292,-1.4298,-1.4112,-1.3636,-1.3443,-1.3346,-1.2958,-1.305,-1.3093,-1.2934,-1.3714,-1.459,-1.5278,-1.7219,-1.884,-1.9768,0.0,0.0,-2.1514,-2.0934,-2.0784,-2.1436,-2.0976,-2.107,-2.1796,-2.1902,-2.2064,-2.2493,-2.1759,-2.1832,-2.2726,-2.2639,-2.2375,-2.1924,-2.157,-2.1259,0.0,0.0,0.0,0.0,0.0,0.0,0.0,0.0,0.0,0.0,0.0,0.0,0.0,0.0,0.0,-0.8979,-0.763,-0.6285,-0.453,-0.4276,-0.4285,-0.4418,-0.4081,-0.3749,-0.3551,-0.3599,-0.3662,-0.3662,-0.3743,-0.3741,-0.3372,-0.3837,-0.4057,-0.3941,-0.5114,-0.6087,-0.6566,-0.7488,-0.8106,-0.8528,0.0,0.0,-1.0138,-1.1035,-1.1483,-1.1499,-1.1736,-1.1838,-1.1855,-1.2091,-1.2301,-1.2501,-1.2785,-1.2958,-1.2958,-1.3443,-1.3732,-1.3829,-1.4208,-1.4394,-1.4496,-1.4592,-1.4688,-1.4688,-1.4688,-1.4651,0.0,-1.4321,-1.4032,-1.3734,-1.3543,-1.3522,-1.3549,-1.3572,-1.3755,-1.4039,-1.425,-1.4112,-1.3835,-1.3539,-1.3346,-1.3147,-1.305,-1.3244,-1.3409,-1.3408,-1.3855,-1.4351,-1.4527,-1.5637,-1.6629,-1.7366,-1.836,-1.9411,-2.0665,-2.0782,-2.1126,-2.1961,-2.2026,-2.2067,-2.2064,-2.224,-2.2318,-2.2406,-2.1996,-2.1778,-2.1949,-2.1853,-2.1497,-2.1071,-2.1858,-2.1979,0.0,0.0,0.0,0.0,0.0,0.0,0.0,0.0,0.0,0.0,0.0,-1.5875,0.0,0.0,-0.9935,-0.8741,-0.6676,-0.5012,-0.4249,-0.3639,-0.3452,-0.3718,-0.3403,-0.3191,-0.3289,-0.3163,-0.3144,-0.3336,-0.3336,-0.3239,-0.3144,-0.3239,-0.3255,-0.3287,-0.396,-0.4724,-0.5578,-0.6281,-0.706,-0.7905,-0.8563,-0.8928,-0.8924,-0.9454,-0.9763,-0.9777,-1.0608,-1.0975,-1.1079,-1.1764,-1.2124,-1.2253,-1.2495,-1.2662,-1.2861,-1.3346,-1.3539,-1.3539,-1.4106,-1.4298,-1.4298,-1.4298,-1.4394,-1.4465,-1.4337,-1.4294,-1.427,-1.4135,-1.3811,-1.3513,-1.3332,-1.3327,-1.3261,-1.3302,-1.3713,-1.4036,-1.3974,-1.4017,-1.4016,-1.3727,-1.334,-1.3147,-1.3249,-1.3346,-1.3346,-1.3443,-1.3727,-1.3919,-1.41,-1.5045,-1.6092,-1.6705,-1.7713,-1.8871,-2.0395,-2.0939,-2.131,-2.1722,-2.1909,-2.1998,-2.1919,-2.2008,-2.2176,-2.2441,-2.1979,-2.1774,-2.1826,-2.173,-2.1284,-2.0662,-2.1584,-2.1618,0.0,0.0,0.0,0.0,0.0,0.0,0.0,0.0,-1.9204,-1.8669,-1.7154,-1.5539,-1.4261,-1.1346,-0.9047,-0.8548,-0.585,-0.388,-0.3882,-0.3209,-0.2826,-0.3109,-0.2836,-0.2748,-0.3223,-0.2926,-0.2826,-0.3109,-0.3108,-0.3014,-0.3015,-0.3015,-0.3021,-0.3126,-0.3126,-0.3695,-0.4931,-0.52,-0.6029,-0.7323,-0.7643,-0.7753,-0.784,-0.8063,-0.8177,-0.8277,-0.9402,-1.0009,-1.0295,-1.1333,-1.1887,-1.2097,-1.2341,-1.2674,-1.2893,-1.3329,-1.3539,-1.3539,-1.4106,-1.4298,-1.4298,-1.4004,-1.4166,-1.4279,-1.3972,-1.3999,-1.405,-1.4025,-1.3711,-1.345,-1.345,-1.3413,-1.3389,-1.3438,-1.3787,-1.4111,-1.3778,-1.3957,-1.4106,-1.3811,-1.3431,-1.3136,-1.3284,-1.308,-1.3097,-1.334,-1.3443,-1.3534,-1.3715,-1.4567,-1.5584,-1.6569,-1.7485,-1.871,-2.0554,-2.1203,-2.1482,-2.1482,-2.1651,-2.1741,-2.1741,-2.1741,-2.1909,-2.2264,-2.1836,-2.1595,-2.1532,-2.1532,-2.1061,-2.0243,-2.0805,-2.0772,-2.8676,-2.7326,-2.6222,-2.5665,-2.4491,-2.3716,0.0,0.0,-1.941,-1.848,-1.6605,-1.4762,-1.3779,-1.092,-0.8548,-0.7812,-0.5501,-0.3523,-0.2599,-0.2469,-0.235,-0.2078,-0.2112,-0.2322,-0.2322,-0.2466,-0.244,-0.235,-0.2708,-0.2798,-0.2622,-0.2802,-0.2917,-0.2966,-0.2969,-0.3087,-0.3331,-0.3743,-0.3988,-0.4262,-0.5613,-0.6355,-0.6355,-0.7386,-0.7994,-0.8181,-0.856,-0.9187,-0.9993,-1.038,-1.101,-1.1852,-1.245,-1.2881,-1.322,-1.3454,-1.3539,-1.3539,-1.4106,-1.4298,-1.4298,-1.4298,-1.4236,-1.4235,-1.4011,-1.4272,-1.4545,-1.4341,-1.4396,-1.4549,-1.4549,-1.4364,-1.4244,-1.4492,-1.4229,-1.3972,-1.4201,-1.3896,-1.3539,-1.3244,-1.3147,-1.2984,-1.2585,-1.2452,-1.2617,-1.3113,-1.3147,-1.3147,-1.3147,-1.3147,-1.3891,-1.5922,-1.6849,-1.8493,-2.1302,-2.1624,-2.1651,-2.1651,-2.1651,-2.1741,-2.1741,-2.1741,-2.1741,-2.1741,-2.1365,-2.0979,-2.067,-2.0434,-2.0048,-1.9321,-1.9636,-1.9852,-2.7962,-2.6689,-2.5724,-2.5994,-2.4984,-2.3983,-2.4292,-2.1856,-1.9184,-1.8209,-1.622,-1.4237,-1.2757,-1.0013,-0.7749,0.0,-0.427,-0.2179,-0.2182,-0.1624,-0.1256,-0.1166,-0.1175,-0.1454,-0.2092,-0.1623,-0.1615,-0.2334,-0.2153,-0.2153,-0.2334,-0.2424,-0.2523,-0.2543,-0.2544,-0.2555,-0.2578,-0.3102,-0.3451,-0.3451,-0.4493,-0.5097,-0.5277,-0.5891,-0.6684,-0.7573,-0.7665,-0.8193,-0.9074,-0.9244,-0.9809,-1.0715,-1.111,-1.1711,-1.2403,-1.3356,-1.379,-1.401,-1.4202,-1.4298,-1.4298,-1.4298,-1.4321,-1.43,-1.4147,-1.439,-1.4672,-1.4602,-1.4644,-1.4731,-1.4731,-1.4526,-1.4347,-1.4462,-1.4253,-1.4036,-1.3856,-1.3622,-1.3443,-1.3346,-1.3147,-1.2926,-1.3019,-1.3188,-1.3312,-1.3511,-1.3025,-1.2846,-1.3121,-1.3706,-1.4911,-1.701,-1.8375,-1.9647,-2.0855,-2.1425,-2.1462,-2.1049,-2.104,-2.0747,-2.0245,-2.0729,-2.0923,-2.0688,-2.0994,-2.0805,-2.0173,-2.0099,-1.9642,-1.894,-1.9404,-1.9251,-2.6111,-2.5174,-2.4526,-2.5378,-2.467,-2.3794,-2.3795,-2.1572,-1.9138,-1.7886,-1.5772,-1.352,-1.1444,-0.8886,-0.6774,-0.58,-0.3037,-0.1166,-0.1615,-0.0897,-0.0359,-0.0359,-0.0179,-0.0448,-0.1345,-0.0718,-0.0718,-0.1615,-0.1345,-0.1256,-0.1705,-0.1885,-0.1974,-0.1974,-0.2154,-0.2243,-0.2243,-0.278,-0.3136,-0.3136,-0.3853,-0.4302,-0.4482,-0.4835,-0.563,-0.6609,-0.67,-0.7228,-0.8105,-0.8105,-0.8632,-0.9607,-1.019,-1.086,-1.1833,-1.3285,-1.3866,-1.4005,-1.4082,-1.4202,-1.4298,-1.4298,-1.4345,-1.4343,-1.4347,-1.4515,-1.4817,-1.4795,-1.4888,-1.5039,-1.5039,-1.4739,-1.4546,-1.4715,-1.4469,-1.421,-1.3808,-1.3689,-1.363,-1.3539,-1.334,-1.3318,-1.3538,-1.3808,-1.3874,-1.3797,-1.3225,-1.2997,-1.3531,-1.4741,-1.6151,-1.7947,-1.9584,-2.0579,-2.0774,-2.1398,-2.1435,-2.0889,-2.0588,-2.0218,-1.9574,-1.9913,-2.0051,-1.9929,-2.0454,-2.0434,-1.9761,-1.9761,-1.9317,-1.8451,-1.8966,-1.8607,-2.2271,-2.1622,-2.1345,-2.2668,-2.279,-2.2706,-2.3214,-2.1656,-1.9532,-1.7556,-1.5145,-1.2621,-0.9918,-0.7669,-0.5609,-0.3918,-0.2055,-0.0628,-0.0448,-0.0179,0.009,0.0359,0.0538,0.0628,0.0,0.0269,0.009,0.0269,-0.0179,-0.0448,-0.0448,-0.1076,-0.1436,-0.1436,-0.1885,-0.2243,-0.2243,-0.2689,-0.2867,-0.2957,-0.3587,-0.3948,-0.3946,-0.4656,-0.5191,-0.546,-0.5641,-0.626,-0.7139,-0.7139,-0.7665,-0.8715,-1.0014,-1.0889,-1.1558,-1.2962,-1.3412,-1.3291,-1.3454,-1.3823,-1.4298,-1.4298,-1.4319,-1.4297,-1.4291,-1.4663,-1.5127,-1.512,-1.5411,-1.5818,-1.5818,-1.5411,-1.5173,-1.5637,-1.5036,-1.4266,-1.4327,-1.4292,-1.4106,-1.3636,-1.3919,-1.422,-1.396,-1.3918,-1.3827,-1.3653,-1.3737,-1.4096,-1.4549,-1.5917,-1.7113,-1.7957,-1.946,-2.0862,-2.1596,-2.1731,-2.1731,-2.1633,-2.0916,-2.0526,-2.043,-1.9704,-1.941,-1.992,-1.9938,-1.9742,-1.935,-1.935,-1.8728,-1.77,-1.7959,-1.7563,-2.133,-2.0958,-2.0957,-2.2504,-2.2194,-2.1469,-2.1464,-2.0601,-1.885,-1.5362,-1.3611,-1.1803,-0.8779,-0.6083,-0.3941,-0.3137,-0.0886,0.0628,0.0359,0.0807,0.1255,0.1523,0.1702,0.0,0.0,0.0,0.0,0.0628,0.0718,0.0628,0.0179,-0.009,-0.0448,-0.0897,-0.1076,-0.1345,-0.1705,-0.2153,-0.2422,-0.2423,-0.3406,-0.3941,-0.3941,-0.4654,-0.5191,-0.5371,-0.5463,-0.573,-0.6174,-0.6174,-0.67,-0.7588,-0.8217,-0.9315,-1.0839,-1.1873,-1.2884,-1.3661,-1.3921,-1.4106,-1.4298,-1.4298,-1.4435,-1.4558,-1.4747,-1.5126,-1.5402,-1.5497,-1.5424,-1.5351,-1.5351,-1.5192,-1.514,-1.5332,-1.4954,-1.4576,-1.4765,-1.4394,-1.4004,-1.401,-1.4202,-1.4268,-1.4177,-1.4456,-1.481,-1.4984,-1.4701,-1.4833,-1.5758,-1.6926,-1.8218,-1.9372,-2.0132,-2.0825,-2.1587,-2.1484,-2.1153,-2.0907,-2.0694,-2.0035,-1.8914,-1.9076,-1.8905,-1.826,-1.874,-1.8846,-1.8473,-1.8473,-1.8079,-1.7546,-1.787,-1.7627,-1.9775,-1.9578,-1.9708,-2.1188,-2.081,-2.0088,-2.0077,-1.9165,-1.7426,-1.4385,-1.2219,-1.0,-0.7057,-0.4346,-0.2231,-0.1418,0.0432,0.1591,0.1316,0.1865,0.242,0.2685,0.3151,0.3604,0.0,0.0,0.0,0.1613,0.1705,0.1615,0.1076,0.0807,0.0448,0.0,-0.0448,-0.0807,-0.1166,-0.1794,-0.2154,-0.2334,-0.3048,-0.3583,-0.3939,-0.4385,-0.4832,-0.528,-0.5371,-0.5463,-0.5644,-0.5644,-0.6112,-0.669,-0.7134,-0.8238,-0.9763,-1.0674,-1.2062,-1.3596,-1.4339,-1.4682,-1.4873,-1.4873,-1.4968,-1.5166,-1.5267,-1.5452,-1.5635,-1.573,-1.5597,-1.5365,-1.5365,-1.5192,-1.5147,-1.5338,-1.5055,-1.4855,-1.4962,-1.4777,-1.458,-1.449,-1.4682,-1.4873,-1.4873,-1.5166,-1.5458,-1.5737,-1.5383,-1.5417,-1.6156,-1.722,-1.8367,-1.9588,-2.0175,-2.0656,-2.1228,-2.1011,-2.062,-2.0052,-1.9748,-1.9102,-1.8029,-1.8187,-1.8021,-1.74,-1.7944,-1.8026,-1.7797,-1.787,-1.7708,-1.731,-1.7708,-1.7627,-1.7622,-1.7537,-1.7751,-1.8788,-1.868,-1.8446,-1.9066,-1.7383,-1.5377,-1.4228,-1.0894,-0.7395,0.0,0.0,-0.048,0.1098,0.1991,0.2497,0.2364,0.2876,0.3486,0.0,0.0,0.0,0.0,0.0,0.0,0.3218,0.0,0.2424,0.2243,0.1614,0.1166,0.1076,0.0,-0.0628,-0.0628,-0.1345,-0.1974,-0.2424,-0.2424,-0.2959,-0.3849,-0.3849,-0.4295,-0.4921,-0.5282,-0.5371,-0.5371,-0.5644,-0.5801,-0.5996,-0.6907,-0.7823,-0.8671,-0.9636,-1.1106,-1.2851,-1.4496,-1.5363,-1.5737,-1.5737,-1.573,-1.5737,-1.5737,-1.5737,-1.5825,-1.5832,-1.5818,-1.5805,-1.5805,-1.5411,-1.5186,-1.5651,-1.5417,-1.5026,-1.4823,-1.5261,-1.5547,-1.4885,-1.5261,-1.5832,-1.5832,-1.5832,-1.5832,-1.5832,-1.5818,-1.5812,-1.5825,-1.6655,-1.7677,-1.8696,-1.9654,-2.0321,-2.0474,-2.0412,-2.0052,-1.9239,-1.8473,-1.8029,-1.8004,-1.7185,-1.6918,-1.7392,-1.7392,-1.7392,-1.7392,-1.7538,-1.7456,-1.7139,-1.7456,-1.7456,-1.748,-1.7324,-1.7377,-1.8112,-1.744,-1.6563,-1.631,-1.5524,-1.3848,-1.0368,-0.796,-0.5601,-0.2747,0.0,0.0,0.2281,0.336,0.0,0.3875,0.4361,0.0,0.6116,0.0,0.7368,0.8491,0.8333,0.0,0.0,0.4253,0.3139,0.2778,0.251,0.2062,0.1345,0.0987,0.0628,0.009,-0.0448,-0.0897,-0.1166,-0.1705,-0.2242,-0.269,-0.3317,-0.3851,-0.4206,-0.4656,-0.4926,-0.5099,-0.5371,-0.553,-0.5734,-0.6188,-0.707,-0.8097,-0.8796,-0.9947,-1.1253,-1.3199,-1.428,-1.4682,-1.4682,-1.4777,-1.4975,-1.5172,-1.5452,-1.5635,-1.573,-1.5577,-1.5318,-1.5318,-1.5173,-1.5133,-1.5212,-1.533,-1.536,-1.5337,-1.5261,-1.5172,-1.4981,-1.5261,-1.573,-1.6298,-1.6211,-1.6218,-1.64,-1.6199,-1.5951,-1.5798,-1.7106,-1.8146,-1.8764,-1.925,-1.9821,-2.049,-1.9641,-1.9125,-1.9213,-1.905,-1.8625,-1.802,-1.7754,-1.7408,-1.6902,-1.6894,-1.6894,-1.6894,-1.7139,-1.7212,-1.7139,-1.7221,-1.7212,-1.6789,-1.6447,-1.6138,-1.6486,-1.5605,-1.4495,-1.4027,-1.2874,-1.1101,-0.8296,-0.5508,-0.2957,-0.0912,0.1803,0.3698,0.0,0.0,0.0,0.4981,0.5253,0.5987,0.0,0.7982,0.0,0.9843,0.9933,0.942,0.0,0.5926,0.4275,0.3361,0.3121,0.2778,0.2241,0.1793,0.1166,0.0448,0.0,-0.0359,-0.0538,-0.1166,-0.1705,-0.2064,-0.2691,-0.3227,-0.3762,0.0,-0.4567,-0.4924,-0.5102,-0.5345,-0.546,-0.5756,-0.6533,-0.7333,-0.7868,-0.9004,-1.0373,-1.1439,-1.2323,-1.3301,-1.4573,-1.5064,-1.5166,-1.5363,-1.5547,-1.5642,-1.5737,-1.5806,-1.5771,-1.5771,-1.5958,-1.6044,-1.6044,-1.6168,-1.6204,-1.6015,-1.5927,-1.5933,-1.5743,-1.5927,-1.6109,-1.6494,-1.6494,-1.6358,-1.6399,-1.6146,-1.578,-1.5345,-1.6106,-1.6779,-1.7123,-1.7707,-1.8234,-1.8757,-1.849,-1.8271,-1.8146,-1.8062,-1.7887,-1.7448,-1.744,-1.7177,-1.6738,-1.673,-1.6648,-1.6566,-1.6812,-1.6894,-1.6804,-1.6894,-1.6894,-1.5821,-1.5299,-1.4671,-1.4621,-1.3644,-1.2579,-1.2157,-1.0156,-0.8089,-0.6954,-0.354,-0.0392,0.0775,0.3031,0.4772,0.5096,0.0,0.5902,0.574,0.6096,0.6905,0.8221,0.9269,1.0013,1.0559,1.0984,1.0841,0.9862,0.7827,0.5979,0.4253,0.3699,0.3382,0.3303,0.2418,0.1614,0.0807,0.0448,0.009,-0.0179,-0.0628,-0.1166,-0.1705,-0.1974,-0.2602,-0.3408,0.0,0.0,-0.4572,-0.4835,-0.5075,-0.5179,-0.5548,-0.6045,-0.676,-0.7069,-0.8206,-0.9702,-0.9694,-1.0467,-1.1828,-1.4364,-1.5337,-1.5534,-1.5534,-1.573,-1.5927,-1.5927,-1.6305,-1.6683,-1.6683,-1.6958,-1.7326,-1.7326,-1.7326,-1.7138,-1.677,-1.6777,-1.6878,-1.6683,-1.6581,-1.6574,-1.6626,-1.6619,-1.6514,-1.6106,-1.5951,-1.547,-1.4655,-1.4655,-1.4847,-1.5095,-1.5765,-1.6329,-1.6553,-1.7267,-1.7381,-1.6672,-1.6656,-1.6574,-1.6566,-1.6566,-1.6566,-1.6566,-1.6566,-1.6566,-1.6402,-1.6566,-1.6566,-1.6394,-1.6566,-1.6656,-1.5041,-1.4748,-1.4458,-1.3738,-1.2801,-1.1839,-1.0988,-0.9029,-0.6777,-0.4734,-0.2221,0.0209,0.2211,0.3653,0.4895,0.5909,0.6343,0.6558,0.6482,0.7907,0.911,0.0,1.1145,1.2333,1.3081,1.3041,0.0,0.0,0.0,0.9012,0.6291,0.5039,0.4112,0.3667,0.3198,0.2868,0.2689,0.1883,0.1345,0.1076,0.0448,-0.0179,-0.0897,-0.1345,-0.1884,-0.2512,-0.3317,0.0,-0.3855,-0.448,-0.4809,-0.4901,-0.5191,-0.5881,-0.6751,-0.6775,-0.7438,-0.8531,-0.9801,-1.0386,-1.0774,-1.1633,-1.2984,-1.4238,-1.4238,-1.5311,-1.6487,-1.6487,-1.669,-1.6885,-1.6885,-1.7153,-1.7326,-1.7326,-1.7326,-1.7232,-1.6951,-1.6574,-1.6386,-1.6581,-1.6386,-1.6397,-1.6798,-1.667,-1.638,-1.6067,-1.5803,-1.5269,-1.4427,-1.4967,-1.537,-1.5089,-1.5297,-1.5813,-1.653,-1.6126,-1.5959,-1.617,-1.617,-1.5997,-1.5643,-1.5816,-1.5899,-1.5899,-1.6079,-1.617,-1.617,-1.6319,-1.6394,-1.6394,-1.6245,-1.617,-1.4665,-1.3955,-1.3188,-1.2742,-1.1741,-1.0509,-0.92,-0.7482,-0.5538,-0.3368,-0.0898,0.1291,0.268,0.4275,0.558,0.6154,0.6668,0.7098,0.758,0.8544,0.9725,1.0975,1.197,1.2855,1.3733,1.3875,1.3669,0.0,0.0,1.03,0.7148,0.5767,0.4888,0.4346,0.4092,0.3787,0.335,0.2675,0.2153,0.1615,0.1076,0.0448,-0.0179,-0.0628,-0.1166,-0.1615,-0.2242,0.0,-0.3406,-0.3765,-0.4146,-0.4552,-0.4876,-0.5359,-0.5885,-0.6623,-0.7318,-0.7932,-0.9114,-0.9706,-0.9801,-1.0087,-1.1541,-1.3386,-1.3974,-1.4752,-1.5534,-1.6015,-1.6595,-1.6979,-1.6979,-1.7441,-1.7948,-1.8125,-1.8202,-1.8295,-1.7956,-1.7659,-1.7439,-1.7447,-1.7085,-1.6867,-1.7078,-1.6788,-1.632,-1.6009,-1.5749,-1.5326,-1.4381,-1.5063,-1.5226,-1.4456,-1.4843,-1.543,-1.6095,-1.5974,-1.5982,-1.6087,-1.5831,-1.565,-1.5394,-1.5477,-1.5567,-1.5733,-1.5582,-1.5673,-1.5906,-1.5567,-1.5394,-1.5484,-1.5166,-1.509,-1.3954,-1.2894,-1.1688,-1.1279,-1.0392,-0.918,-0.7434,-0.6105,-0.464,-0.251,-0.0077,0.1918,0.2802,0.4466,0.588,0.6194,0.6654,0.7293,0.8346,0.8976,1.004,1.1822,1.2457,0.0,1.3722,1.4099,0.0,0.0,0.0,0.0,0.7659,0.6546,0.5729,0.5077,0.493,0.4558,0.3791,0.3418,0.3005,0.2387,0.1866,0.1336,0.0801,0.0268,-0.0269,-0.0807,-0.1076,0.0,0.0,-0.3047,-0.3494,-0.4037,-0.447,-0.4844,-0.5334,-0.6376,-0.7091,-0.7627,-0.8579,-0.906,-0.9347,-0.9701,-1.0997,-1.263,-1.3511,-1.419,-1.4771,-1.5534,-1.6494,-1.7167,-1.7167,-1.7822,-1.8572,-1.8921,-1.9149,-1.9299,-1.8828,-1.8692,-1.8615,-1.8423,-1.7959,-1.7573,-1.7486,-1.7044,-1.6583,-1.6267,-1.6044,-1.5694,-1.4838,-1.5372,-1.544,-1.4538,-1.4873,-1.5289,-1.5696,-1.5959,-1.5982,-1.5831,-1.5484,-1.5228,-1.5151,-1.5079,-1.5126,-1.5299,-1.4975,-1.4975,-1.5299,-1.4615,-1.4398,-1.4573,-1.4243,-1.4082,-1.2176,-1.1365,-1.0366,-0.8844,-0.859,-0.821,-0.628,-0.5424,-0.4397,-0.2124,-0.0301,0.1382,0.2898,0.3778,0.4726,0.607,0.6258,0.6715,0.8284,0.9666,1.0926,1.1896,0.0,0.0,1.3572,1.3719,0.0,0.0,0.0,0.0,0.8161,0.7642,0.6791,0.5451,0.5482,0.5293,0.4878,0.4548,0.4382,0.43,0.3533,0.2785,0.2089,0.1511,0.0897,0.0179,-0.0448,0.0,0.0,-0.2419,-0.2957,-0.3136,-0.4039,-0.4874,-0.5703,-0.5902,-0.6435,-0.7415,-0.8922,-0.944,-0.9702,-1.1135,-1.1622,-1.1653,-1.2047,-1.3776,-1.5704,-1.5798,-1.6669,-1.7636,-1.7636,-1.8102,-1.8664,-1.9181,-1.9505,-1.958,-1.9341,-1.9056,-1.8901,-1.8648,-1.8346,-1.8121,-1.7877,-1.7785,-1.7662,-1.7204,-1.7147,-1.6804,-1.5959,-1.6609,-1.7017,-1.6698,-1.5838,-1.5418,-1.5696,-1.5372,-1.5047,-1.4817,-1.4817,-1.4573,-1.425,-1.398,-1.3824,-1.3906,-1.3824,-1.3824,-1.3906,-1.4011,-1.4153,-1.4166,-1.4153,-1.4062,-1.1831,-1.0804,-0.9649,-0.8939,-0.8338,-0.7453,-0.5649,-0.4795,-0.3669,-0.1148,0.0509,0.1967,0.334,0.4289,0.5123,0.5819,0.5953,0.0,0.8169,0.9487,1.0828,1.2312,1.3622,0.0,0.0,0.0,0.0,0.0,0.0,0.0,1.0914,0.9418,0.8326,0.7643,0.6947,0.6468,0.6062,0.5732,0.5438,0.5108,0.4568,0.391,0.3145,0.2661,0.2171,0.1494,0.1143,0.0,0.0,-0.0716,-0.1163,-0.17,-0.2776,-0.3461,-0.4018,-0.5482,-0.628,-0.6851,-0.802,-0.9328,-1.0668,-1.1355,-1.2409,-1.3398,-1.3573,-1.4682,-1.6056,-1.6704,-1.7363,-1.7924,-1.7924,-1.8562,-1.9281,-1.9341,-1.9913,-2.0258,-1.9751,-1.958,-1.9434,-1.9272,-1.8676,-1.8237,-1.8155,-1.8175,-1.7949,-1.7415,-1.7757,-1.7847,-1.7074,-1.7917,-1.8638,-1.8939,-1.7228,-1.6265,-1.669,-1.5718,-1.4985,-1.4734,-1.4489,-1.425,-1.4088,-1.3712,-1.3546,-1.3702,-1.3131,-1.3046,-1.344,-1.3162,-1.3137,-1.3406,-1.3309,-1.3294,-1.1243,-1.0258,-0.9065,-0.8431,-0.7768,-0.671,-0.4766,-0.4021,-0.3032,-0.042,0.1181,0.2481,0.3738,0.4812,0.5557,0.0,0.0,0.6373,0.8143,0.9125,1.0457,1.2354,0.0,1.3734,0.0,1.4083,0.0,0.0,0.0,0.0,0.0,1.1508,1.0093,0.9422,0.8735,0.8108,0.7708,0.724,0.6795,0.6471,0.5758,0.5036,0.447,0.4012,0.3481,0.3026,0.0,0.0,0.0,0.1289,0.0859,0.0258,-0.0859,-0.1727,-0.244,-0.4126,-0.523,-0.5917,-0.6987,-0.8467,-1.008,-1.1132,-1.2748,-1.4488,-1.5375,-1.5995,-1.6644,-1.7673,-1.8297,-1.8658,-1.8742,-1.9453,-2.0197,-2.0077,-2.0654,-2.108,-2.0595,-2.0473,-2.0357,-2.0203,-1.965,-1.9126,-1.918,-1.9146,-1.9033,-1.8661,-1.9118,-1.9003,-1.7667,-1.9175,-1.9866,-1.8695,-1.7804,-1.7401,-1.7641,-1.6057,-1.4915,-1.4573,-1.425,-1.3964,-1.3787,-1.3346,-1.3063,-1.3039,-1.238,-1.2286,-1.2752,-1.2388,-1.2404,-1.282,-1.2673,-1.2626,-0.9977,-0.9477,-0.8552,-0.661,-0.6362,-0.5952,-0.3478,-0.3086,-0.2517,-0.0115,0.1459,0.277,0.3997,0.5005,0.5724,0.5764,0.5672,0.0,0.8137,0.8782,0.9776,0.0,0.0,1.2329,1.298,0.0,0.0,0.0,0.0,0.0,0.0,1.3753,1.2331,1.045,1.0605,1.0525,1.0054,0.9269,0.8807,0.8651,0.727,0.6392,0.5949,0.5405,0.4996,0.0,0.0,0.0,0.0,0.3346,0.2955,0.2876,0.1937,0.0306,-0.1497,-0.1459,-0.2709,-0.4657,-0.6073,-0.6652,-0.7177,-1.0525,-1.2598,-1.4289,-1.6889,-1.7559,-1.7561,-1.8442,-1.9425,-2.0275,-2.0515,-2.0822,-2.1178,-2.1573,-2.1881,-2.2115,-2.2115,-2.1857,-2.1653,-2.1523,-2.1305,-2.114,-2.1188,-2.1193,-2.1263,-2.1403,-2.1472,-2.0357,-1.7269,-2.0336,-2.0739,-1.5343,-1.7243,-1.8681,-1.8196,-1.6273,-1.4838,-1.4173,-1.4088,-1.3787,-1.2997,-1.2724,-1.228,-1.1605,-1.1528,-1.1534,-1.1534,-1.1799,-1.2059,-1.2312,-1.2318,-1.2457,-0.7885,-0.7115,-0.6318,-0.539,-0.4665,-0.3854,-0.2475,-0.1992,-0.1215,0.1045,0.2054,0.3053,0.4654,0.5365,0.5729,0.5764,0.5559,0.0,0.0,0.0,0.0,1.1913,1.3046,1.3719,0.0,0.0,0.0,0.0,0.0,0.0,0.0,1.4269,1.3506,1.2464,1.181,1.1366,1.1205,1.0586,1.024,1.0162,0.9275,0.87,0.8264,0.7416,0.0,0.0,0.0,0.0,0.0,0.408,0.3858,0.3782,0.2589,0.1018,-0.0639,-0.148,-0.2837,-0.4394,-0.4713,-0.5906,-0.7433,-0.843,-1.0942,-1.3887,-1.5365,-1.6938,-1.8359,-1.8718,-1.9049,-1.9361,-1.9426,-1.9462,-1.9555,-1.9505,-1.9519,-1.9529,-1.9413,-1.9101,-1.8859,-1.8781,-1.8633,-1.8508,-1.8484,-1.8884,-1.884,-1.7637,-1.8,-1.7723,-1.5959,-1.6948,-1.7456,-1.6558,-1.6427,-1.6422,-1.6451,-1.522,-1.4341,-1.4088,-1.3464,-1.3054,-1.2801,-1.1798,-1.1294,-1.1355,-1.103,-1.0942,-1.1244,-1.1522,-1.1884,-1.2312,-1.2312,-1.2451,-0.6977,-0.6188,-0.5362,-0.4617,-0.3797,-0.2805,-0.1323,-0.0695,0.0156,0.2226,0.2976,0.3701,0.5114,0.5606,0.5766,0.581,0.5668,0.6111,0.0,0.0,0.0,1.2087,0.0,0.0,0.0,0.0,0.0,0.0,0.0,0.0,0.0,1.4243,1.4005,1.3653,1.3011,1.2579,1.2579,1.1922,1.149,1.1276,1.051,1.0044,0.9691,0.8525,0.0,0.0,0.0,0.0,0.0,0.4922,0.4703,0.4564,0.3513,0.2057,0.0371,-0.0664,-0.2156,-0.3695,-0.3869,-0.4965,-0.6314,-0.6955,-0.9644,-1.2845,-1.3736,-1.6262,-1.8864,-1.9427,-1.939,-1.9256,-1.9309,-1.9347,-1.9202,-1.8995,-1.8906,-1.8846,-1.8684,-1.8471,-1.8268,-1.8115,-1.8064,-1.795,-1.7911,-1.8276,-1.8044,-1.6491,-1.693,-1.6711,-1.4688,-1.574,-1.6286,-1.5318,-1.5479,-1.5405,-1.4927,-1.4377,-1.4088,-1.4088,-1.3118,-1.2328,-1.2068,-1.1022,-1.0451,-1.044,-1.0296,-1.0363,-1.0663,-1.1083,-1.1534,-1.2023,-1.1869,-1.1969,0.0,-0.6273,-0.5238,-0.405,-0.342,-0.2495,-0.0212,0.0598,0.0,0.3249,0.4008,0.4574,0.5338,0.5706,0.5918,0.5873,0.5906,0.6627,0.0,0.942,0.0,0.0,1.3454,0.0,0.0,0.0,0.0,0.0,0.0,0.0,0.0,1.3826,1.3876,1.4082,1.4057,1.4073,1.4123,1.3162,1.2531,1.2201,1.1171,1.0634,1.0418,0.9142,0.0,0.0,0.0,0.0,0.0,0.5822,0.5453,0.5083,0.4653,0.3229,0.1327,0.0679,-0.0835,-0.2657,-0.3539,-0.3808,-0.4102,-0.6047,-0.8716,-1.1373,-1.2274,-1.5289,-1.871,-2.0077,-2.0025,-1.9584,-1.9866,-1.9854,-1.979,-1.9546,-1.9382,-1.9298,-1.9298,-1.9252,-1.9135,-1.8844,-1.88,-1.88,-1.8711,-1.8711,-1.8336,-1.7282,-1.7561,-1.6692,-1.3446,-1.5964,-1.6474,-1.2267,-1.4364,-1.5293,-1.3459,-1.3803,-1.4038,-1.3957,-1.2754,-1.1653,-1.0928,-1.0195,-0.9581,-0.9003,-0.9539,-0.9841,-0.9922,-1.0517,-1.1028,-1.1379,-1.105,-1.1126,-0.5427,0.0,-0.2466,-0.1689,-0.1328,-0.0877,0.0,0.0491,0.1068,0.2812,0.3394,0.3918,0.5144,0.5653,0.5868,0.578,0.5808,0.6627,0.8601,0.0,0.0,1.3691,1.4167,0.0,0.0,0.0,0.0,0.0,0.0,0.0,0.0,1.3786,1.383,1.3894,1.3743,1.387,1.4247,1.3687,1.3379,1.3371,1.2889,1.2401,1.1944,1.0821,0.0,0.0,0.0,0.0,0.7359,0.6142,0.5269,0.4717,0.435,0.2757,0.0664,0.0676,-0.0342,-0.1897,-0.2815,-0.2888,-0.3042,-0.5802,-0.7738,-0.9409,-1.1447,-1.3445,-1.5326,-1.6728,-1.6942,-1.6957,-1.7877,-1.7688,-1.7262,-1.7188,-1.6853,-1.6506,-1.6407,-1.6322,-1.6216,-1.593,-1.5937,-1.5923,-1.5882,-1.5902,-1.5578,-1.4507,-1.4109,-1.3503,-1.2334,-1.2633,-1.2704,-1.2088,-1.2905,-1.2646,-1.0563,-1.2455,-1.3339,-1.2401,-1.1554,-1.0493,-0.9156,-0.8489,-0.8286,-0.8775,-0.9226,-0.9609,-0.9922,-0.9737,-1.0007,-1.0584,-1.0158,-1.0471,-0.4213,-0.2716,-0.1571,-0.1106,-0.0513,0.0141,0.0854,0.1171,0.1758,0.3321,0.3785,0.4221,0.5226,0.5738,0.6011,0.6032,0.6202,0.0,0.0,0.0,1.3378,1.3962,1.4071,0.0,0.0,0.0,0.0,0.0,0.0,0.0,0.0,1.3501,1.3588,1.3588,1.35,1.3646,1.3929,1.3672,1.358,1.3588,1.3395,1.304,1.2547,1.1631,1.1024,0.0,0.0,0.0,0.6838,0.5681,0.4415,0.3221,0.2867,0.1769,0.0366,0.0132,-0.0468,-0.1357,-0.2572,-0.3073,-0.3428,-0.4997,-0.584,-0.6706,-0.8883,-1.0253,-1.1707,-1.5095,-1.5683,-1.5559,-1.6834,-1.6766,-1.6312,-1.6172,-1.5862,-1.5551,-1.5418,-1.5358,-1.5222,-1.4963,-1.4918,-1.4935,-1.4871,-1.4887,-1.4457,-1.3183,-1.2969,-1.2613,-1.1658,-1.1551,-1.171,-1.2054,-1.2255,-1.1569,-0.9578,-1.0783,-1.1198,-1.0069,-0.9111,-0.842,-0.7957,-0.7414,-0.7403,-0.8169,-0.8241,-0.8546,-0.9074,-0.877,-0.8909,-0.9566,-0.9092,-0.9208,-0.3352,-0.2225,-0.1552,-0.1218,-0.0283,0.0746,0.1444,0.1873,0.2497,0.3829,0.4303,0.4626,0.5315,0.589,0.0,0.6476,0.0,0.0,1.0013,1.1942,1.3339,1.3807,0.0,0.0,0.0,0.0,0.0,0.0,0.0,0.0,0.0,1.3233,1.3302,1.3302,1.3459,1.3511,1.3511,1.3511,1.3433,1.3278,1.3218,1.2991,1.2505,1.1794,1.1236,0.0,0.0,0.0,0.6396,0.5253,0.3739,0.2047,0.1422,0.0855,0.0312,-0.0386,-0.0632,-0.0826,-0.2312,-0.3398,-0.4113,-0.4091,-0.4112,-0.4471,-0.6293,-0.7284,-0.8849,-1.4059,-1.4929,-1.4598,-1.6,-1.6167,-1.5946,-1.5653,-1.5593,-1.5521,-1.5272,-1.5168,-1.5005,-1.4663,-1.4659,-1.4729,-1.4668,-1.48,-1.4475,-1.3136,-1.3268,-1.3023,-1.1707,-1.1807,-1.2012,-1.2054,-1.2091,-1.1185,-0.899,-0.8787,-0.8199,-0.6744,-0.6271,-0.6414,-0.7036,-0.6599,-0.6685,-0.7326,-0.7073,-0.7222,-0.7931,-0.7625,-0.7783,-0.8313,-0.7778,-0.7712,-0.3482,-0.2093,-0.1213,-0.0536,0.0224,0.0905,0.1197,0.1341,0.166,0.2605,0.329,0.4047,0.4915,0.5809,0.655,0.0,0.0,1.0615,0.0,0.0,1.4205,0.0,0.0,0.0,0.0,0.0,0.0,0.0,0.0,0.0,0.0,1.3407,1.345,1.345,1.3511,1.3511,1.3511,1.3511,1.3416,1.3182,1.3007,1.247,1.1743,1.1526,1.1407,0.0,0.0,0.9118,0.8931,0.6338,0.4754,0.3847,0.2239,0.1152,0.0447,0.0133,0.013,0.0041,-0.1229,-0.239,-0.3351,-0.3858,-0.4543,-0.5399,-0.6606,-0.7705,-0.9121,-1.1998,-1.2867,-1.3136,-1.4035,-1.4529,-1.4758,-1.4726,-1.5124,-1.5301,-1.4486,-1.4285,-1.4041,-1.3262,-1.3584,-1.3976,-1.3976,-1.4759,-1.5316,-1.5081,-1.4388,-1.383,-1.3594,-1.2607,-1.1912,-1.1927,-1.1991,-1.0417,-0.644,-0.6086,-0.4777,-0.1631,-0.4377,-0.5999,-0.5889,-0.56,-0.5806,-0.6395,-0.5885,-0.6112,-0.7092,-0.6479,-0.6395,-0.685,-0.6237,-0.6325,-0.3067,-0.1673,-0.0803,-0.0337,0.0759,0.1835,0.2359,0.2556,0.2776,0.3315,0.0,0.0,0.0,0.0,0.7217,0.7598,0.0,1.0706,1.0661,0.0,0.0,0.0,0.0,0.0,0.0,0.0,0.0,0.0,0.0,0.0,0.0,0.0,1.3477,1.3464,1.3456,1.3409,1.3371,1.3363,1.3217,1.2971,1.27,1.2261,1.1584,1.1776,1.1651,1.1274,0.0,0.9468,0.8657,0.6973,0.5222,0.3471,0.2371,0.1275,0.0173,-0.0169,-0.0526,-0.0961,-0.165,-0.2471,-0.329,-0.3663,-0.4049,-0.4565,-0.5535,-0.6441,-0.7533,-0.9402,-1.1034,-1.2476,-1.3536,-1.4127,-1.4337,-1.3945,-1.47,-1.5111,-1.3756,-1.3785,-1.3842,-1.2914,-1.3025,-1.3247,-1.3247,-1.4184,-1.4827,-1.4557,-1.4231,-1.3907,-1.3597,-1.2561,-1.1869,-1.1891,-1.1927,-1.0666,-0.7491,-0.6102,-0.3976,-0.0666,-0.2484,-0.3859,-0.412,-0.4075,-0.4242,-0.4806,-0.4456,-0.4604,-0.5181,-0.4734,-0.503,-0.5845,-0.5173,-0.5623,-0.2662,-0.1542,-0.0762,-0.0239,0.0928,0.2233,0.3138,0.0,0.0,0.0,0.0,0.0,0.0,0.6767,0.0,0.8237,0.9383,0.0,0.0,0.0,0.0,0.0,0.0,0.0,0.0,0.0,0.0,0.0,0.0,0.0,0.0,0.0,1.3374,1.3233,1.3224,1.3184,1.3086,1.2832,1.2725,1.2649,1.2406,1.2018,1.1511,1.1789,1.1604,1.1032,1.0582,0.9635,0.8383,0.7621,0.5824,0.351,0.2792,0.1502,0.0,-0.0511,-0.109,-0.1663,-0.2144,-0.2624,-0.3093,-0.3467,-0.3532,-0.3634,-0.4569,-0.5431,-0.6371,-0.7794,-0.9827,-1.1783,-1.2718,-1.3375,-1.3653,-1.3041,-1.3882,-1.4414,-1.2858,-1.3025,-1.3235,-1.228,-1.2321,-1.2526,-1.2526,-1.3664,-1.4373,-1.3789,-1.3949,-1.3913,-1.3281,-1.2371,-1.1826,-1.1869,-1.1869,-1.0852,-0.8339,-0.5718,-0.3112,-0.0581,-0.1216,-0.203,-0.2694,-0.2628,-0.2874,-0.3458,-0.3171,-0.318,-0.3491,-0.3272,-0.3702,-0.464,-0.4073,-0.4583,-0.2682,-0.201,-0.1421,-0.013,0.0474,0.108,0.2375,0.2515,0.0,0.3612,0.0,0.0,0.0,0.7136,0.8243,0.8521,0.9279,0.0,0.0,0.0,0.0,0.0,0.0,0.0,0.0,0.0,0.0,0.0,0.0,0.0,0.0,0.0,0.0,1.2764,1.2711,1.265,1.2622,1.1859,1.1729,1.2246,1.2105,1.1739,1.1116,1.1039,1.0971,1.0871,1.0435,1.0102,0.9769,0.8329,0.6932,0.5539,0.392,0.2023,0.0117,-0.0485,-0.0694,-0.0831,-0.1918,-0.2245,-0.2335,-0.3229,-0.3405,-0.3539,-0.4728,-0.5897,-0.7095,-0.8379,-0.9647,-1.0593,-1.048,-1.1213,-1.1934,-1.1747,-1.2334,-1.2623,-1.1643,-1.1562,-1.1441,-1.0546,-1.1095,-1.1694,-1.1694,-1.3557,-1.4755,-1.3855,-1.4201,-1.423,-1.3326,-1.2371,-1.1805,-1.1805,-1.1805,-1.032,-0.6706,-0.3019,-0.0648,0.0,-0.104,-0.1812,-0.2153,-0.1886,-0.1981,-0.2665,-0.2178,-0.2204,-0.284,-0.2693,-0.262,-0.2691,-0.2552,-0.2623,-0.2589,-0.195,-0.1388,-0.0427,0.0173,0.1033,0.0,0.3862,0.4182,0.4353,0.5103,0.0,0.0,0.0,0.877,0.8599,0.9392,0.0,0.0,0.0,0.0,0.0,0.0,0.0,0.0,0.0,0.0,0.0,0.0,0.0,0.0,0.0,0.0,1.2507,1.2197,1.2042,1.1968,1.1645,1.1517,1.1563,1.1616,1.1323,1.078,1.1111,1.1048,1.0688,1.0359,1.0074,0.9807,0.9033,0.7981,0.6623,0.4435,0.211,0.0,0.0,-0.045,-0.1108,-0.1688,-0.204,-0.2371,-0.2841,-0.3142,-0.339,-0.3846,-0.4523,-0.5432,-0.6751,-0.7782,-0.879,-1.0059,-1.0936,-1.1361,-1.0858,-1.1589,-1.2017,-1.0676,-1.0806,-1.0978,-1.0276,-1.0468,-1.0974,-1.1838,-1.3291,-1.4479,-1.4819,-1.5177,-1.5064,-1.413,-1.3235,-1.2453,-1.1856,-1.1805,-1.0258,-0.6399,-0.4865,-0.2961,-0.0372,-0.0424,-0.0524,-0.0433,-0.067,-0.104,-0.1324,-0.1799,-0.2151,-0.2438,-0.2589,-0.2977,-0.3595,-0.3182,-0.3562,-0.2703,-0.2074,-0.1548,-0.061,0.009,0.114,0.3351,0.4347,0.4815,0.4969,0.5931,0.6951,0.7531,0.0,0.0,0.0,0.0,0.0,0.0,0.0,0.0,0.0,0.0,0.0,0.0,0.0,0.0,0.0,0.0,0.0,0.0,0.0,0.0,0.0,1.1872,1.1564,1.14,1.1263,1.1145,1.1084,1.1172,1.1012,1.0624,1.0962,1.0867,1.0445,1.0213,0.9929,0.97,0.9379,0.8286,0.6575,0.4475,0.2257,0.0211,0.0339,-0.0268,-0.1211,-0.1509,-0.1942,-0.2408,-0.2676,-0.3043,-0.3377,-0.3377,-0.3876,-0.4613,-0.5593,-0.6707,-0.7973,-0.9458,-1.0392,-1.0769,-1.0174,-1.0754,-1.1102,-0.9911,-1.0114,-1.0399,-0.9956,-1.034,-1.1007,-1.1922,-1.3396,-1.4587,-1.5079,-1.5304,-1.5081,-1.4147,-1.3259,-1.2477,-1.1813,-1.1076,-0.9414,-0.6533,-0.5859,-0.4296,-0.1229,-0.1035,-0.0687,0.0165,-0.0386,-0.0725,-0.0742,-0.1532,-0.1917,-0.1917,-0.2122,-0.2607,-0.3366,-0.2987,-0.3456,-0.3142,-0.2548,-0.1986,-0.0609,0.0,0.0,0.2928,0.3437,0.3997,0.5303,0.6623,0.7581,0.7909,0.8546,0.0,0.0,0.0,0.0,0.0,0.0,0.0,0.0,0.0,0.0,0.0,0.0,0.0,0.0,0.0,0.0,0.0,0.0,0.0,0.0,1.165,1.139,1.0908,1.0488,1.0458,1.0794,1.0867,1.0795,1.0597,1.0409,1.0228,1.0083,0.9956,0.9727,0.9498,0.9306,0.7736,0.5397,0.4111,0.2471,0.0768,0.0501,-0.0134,-0.0976,-0.1509,-0.1942,-0.2371,-0.2768,-0.3167,-0.3499,-0.3569,-0.43,-0.5133,-0.527,-0.6807,-0.8382,-0.8409,-0.9248,-1.0021,-0.9762,-0.9762,-0.9698,-0.9354,-0.9405,-0.9485,-0.9408,-1.069,-1.1799,-1.1813,-1.392,-1.5254,-1.4364,-1.4327,-1.4062,-1.3115,-1.2179,-1.1637,-1.1703,-0.9491,-0.7731,-0.6997,-0.5336,-0.3813,-0.2528,-0.3173,-0.269,-0.0709,-0.1072,-0.122,-0.1117,-0.1267,-0.1289,-0.1289,-0.129,-0.1291,-0.1291,-0.1515,-0.1681,-0.2609,-0.1704,-0.0837,-0.0142,0.0,0.0,0.0,0.3773,0.0,0.0,0.6398,0.7378,0.7373,0.0,0.0,0.0,0.0,0.0,0.0,0.0,0.0,0.0,0.0,0.0,0.0,0.0,0.0,0.0,0.0,0.0,0.0,0.0,0.0,0.0,1.1302,1.0898,1.0469,1.0264,1.0224,1.031,1.027,1.0226,1.0205,1.0591,1.0516,1.0013,1.0017,0.9902,0.9596,0.9172,0.8022,0.6456,0.5497,0.3827,0.1854,0.1363,0.0401,-0.0639,-0.0907,-0.1507,-0.2203,-0.2405,-0.2966,-0.3565,-0.3602,-0.4006,-0.4682,-0.5662,-0.6644,-0.7645,-0.8646,-0.9251,-0.9607,-0.9564,-0.9499,-0.9393,-0.9217,-0.919,-0.9244,-0.9381,-0.9914,-1.0885,-1.2635,-1.368,-1.4692,-1.6046,-1.5759,-1.4829,-1.3268,-1.2216,-1.1717,-1.2066,-1.1174,-1.0102,-0.9034,-0.8115,-0.671,-0.4643,-0.4497,-0.3618,-0.1655,-0.1895,-0.1878,-0.1461,-0.1813,-0.1978,-0.203,-0.208,-0.213,-0.2128,-0.2187,-0.227,-0.2463,-0.1617,-0.0638,0.0431,0.1504,0.2559,0.3489,0.0,0.0,0.0,0.6377,0.7465,0.7533,0.8915,0.0,0.0,0.0,0.0,0.0,0.0,0.0,0.0,0.0,0.0,0.0,0.0,0.0,0.0,0.0,0.0,0.0,0.0,0.0,0.0,1.1045,1.0713,1.0283,1.0205,1.0157,1.0079,1.0127,1.0145,1.0236,1.0433,1.0376,1.0092,0.983,0.9564,0.9257,0.8873,0.7905,0.6666,0.5935,0.4373,0.2413,0.1727,0.08,-0.0202,-0.0504,-0.1139,-0.1804,-0.1973,-0.2636,-0.3467,-0.3774,-0.4189,-0.4757,-0.583,-0.6631,-0.7405,-0.8245,-0.886,-0.9274,-0.9393,-0.9339,-0.9232,-0.9092,-0.9065,-0.9162,-0.9504,-1.0096,-1.121,-1.3237,-1.4135,-1.5149,-1.6855,-1.6031,-1.4538,-1.2697,-1.197,-1.1505,-1.129,-1.1139,-1.0426,-0.8861,-0.8643,-0.7839,-0.6034,-0.5815,-0.5,-0.3372,-0.2808,-0.2383,-0.2019,-0.2258,-0.2386,-0.2386,-0.2397,-0.2451,-0.2609,-0.2492,-0.256,-0.2558,-0.1886,-0.0912,0.1022,0.1709,0.0,0.4123,0.4568,0.4725,0.5013,0.0,0.7641,0.8072,0.9034,0.0,0.0,0.0,0.0,0.0,0.0,0.0,0.0,0.0,0.0,0.0,0.0,0.0,0.0,0.0,0.0,0.0,0.0,0.0,1.0996,1.1008,1.0833,1.0283,1.04,1.0322,0.0,1.0205,1.0388,1.0577,1.0127,1.0043,1.0251,0.9514,0.9047,0.8724,0.8529,0.7655,0.6404,0.58,0.4418,0.2642,0.189,0.1101,0.0336,-0.0235,-0.0805,-0.1338,-0.154,-0.2272,-0.3261,-0.4056,-0.4627,-0.5148,-0.5914,-0.678,-0.7483,-0.754,-0.8273,-0.9003,-0.9193,-0.9205,-0.9162,-0.901,-0.8994,-0.9151,-0.9702,-1.0853,-1.2195,-1.3567,-1.4876,-1.6032,-1.6847,-1.5446,-1.3651,-1.185,-1.16,-1.1139,-0.992,-1.0004,-0.9366,-0.7498,-0.776,-0.7684,-0.6865,-0.6952,-0.6498,-0.5324,-0.3782,-0.2862,-0.265,-0.2508,-0.2465,-0.2462,-0.2283,-0.2359,-0.2728,-0.2488,-0.2601,-0.1936,-0.1128,0.0,0.1177,0.2717,0.3996,0.4391,0.4543,0.4567,0.4622,0.5561,0.6643,0.7512,0.0,0.0,0.0,0.0,0.0,0.0,0.0,0.0,0.0,0.0,0.0,0.0,0.0,0.0,0.0,0.0,0.0,0.0,0.0,0.0,1.1469,1.1919,1.1573,1.0332,1.1043,1.0964,0.0,1.0098,1.0238,1.0586,1.0584,1.0479,1.0242,0.9587,0.9208,0.9056,0.8765,0.8216,0.7452,0.6564,0.5138,0.3534,0.2863,0.1694,0.0437,0.0101,-0.0536,-0.1271,-0.1575,-0.2308,-0.3261,-0.4056,-0.4627,-0.5273,-0.664,-0.7093,-0.7337,-0.7954,-0.8372,-0.8623,-0.8728,-0.8933,-0.9081,-0.8933,-0.8905,-0.9101,-0.9689,-1.0161,-1.1012,-1.2739,-1.3875,-1.4892,-1.587,-1.5018,-1.3891,-1.2757,-1.1969,-1.1254,-1.0557,-0.9999,-0.9483,-0.9101,-0.8558,-0.809,-0.7733,-0.7369,-0.6539,-0.5203,-0.4553,-0.3798,-0.2918,-0.2429,-0.2231,-0.2265,-0.2015,-0.1975,-0.2183,-0.2128,-0.2128,-0.1758,-0.1214,0.0,0.1216,0.0,0.4519,0.4519,0.4519,0.4519,0.4519,0.529,0.6151,0.0,0.0,0.0,0.0,0.0,0.0,0.0,0.0,0.0,0.0,0.0,0.0,0.0,0.0,0.0,0.0,0.0,0.0,0.0,1.2347,1.2121,1.2234,1.2521,1.2453,1.1879,1.2356,1.2316,1.168,1.1368,1.1172,1.1051,1.0774,1.0522,1.0293,0.9717,0.9377,0.9177,0.9128,0.8638,0.785,0.7026,0.5725,0.4215,0.3354,0.2285,0.1171,0.0636,0.0067,-0.0468,-0.0905,-0.1571,-0.2458,-0.3961,-0.4685,-0.5418,-0.7229,-0.7608,-0.7579,-0.8013,-0.8099,-0.8127,-0.8251,-0.8645,-0.8999,-0.8944,-0.8916,-0.9143,-1.002,-1.0294,-1.11,-1.3321,-1.4751,-1.5446,-1.5089,-1.4608,-1.3806,-1.2402,-1.1962,-1.1423,-1.0499,-1.0278,-0.9917,-0.9321,-0.8644,-0.8168,-0.801,-0.7493,-0.6577,-0.5208,-0.4948,-0.4264,-0.3056,-0.2655,-0.2444,-0.2474,-0.2238,-0.2273,-0.2507,-0.2418,-0.2452,-0.1663,-0.136,-0.0547,0.1319,0.3016,0.0,0.4457,0.4519,0.4519,0.4519,0.5177,0.0,0.0,0.0,0.0,0.0,0.0,0.0,0.0,0.0,0.0,0.0,0.0,0.0,0.0,0.0,0.0,0.0,0.0,0.0,1.2741,1.2579,1.2624,1.2977,1.3061,1.3267,1.3547,1.3761,1.3679,1.3406,1.2899,1.2276,1.1543,1.1031,1.0671,1.0368,0.9929,0.9594,0.9337,0.9487,0.9017,0.8176,0.74,0.6212,0.4838,0.3732,0.2816,0.1968,0.117,0.0735,0.0434,-0.0134,-0.067,-0.1528,-0.3515,-0.4549,-0.5437,-0.7269,-0.783,-0.784,-0.784,-0.7763,-0.7744,-0.7898,-0.841,-0.885,-0.89,-0.896,-0.9345,-1.0392,-1.08,-1.178,-1.4277,-1.5799,-1.6233,-1.4766,-1.4405,-1.3705,-1.1977,-1.197,-1.1632,-1.0368,-1.0614,-1.0324,-0.8963,-0.8433,-0.8071,-0.7856,-0.7408,-0.663,-0.5404,-0.5195,-0.4525,-0.3309,-0.3,-0.2862,-0.2862,-0.269,-0.2817,-0.3147,-0.2989,-0.3048,-0.1139,0.0,0.0473,0.0,0.2698,0.3599,0.0,0.0,0.4519,0.0,0.4588,0.0,0.0,0.0,0.0,0.0,0.0,0.0,0.0,0.0,0.0,0.0,0.0,0.0,0.0,0.0,0.0,0.0,0.0,0.0,1.326,1.2513,1.2449,1.3203,1.3739,1.3837,1.3447,1.4328,1.4328,1.3406,1.326,1.2584,1.1421,1.1926,1.1608,1.0701,1.008,0.9823,0.9902,0.9783,0.9534,0.9095,0.7891,0.6723,0.5511,0.4318,0.3118,0.2004,0.1438,0.1003,0.0568,-0.0101,-0.0603,-0.1132,-0.2185,-0.3605,-0.5031,-0.5936,-0.691,-0.7618,-0.7569,-0.7618,-0.7782,-0.8091,-0.8365,-0.854,-0.8505,-0.9012,-0.9728,-1.0465,-1.1454,-1.2723,-1.4422,-1.4911,-1.5222,-1.5567,-1.49,-1.4,-1.294,-1.2381,-1.1752,-1.0821,-1.0767,-1.0221,-0.8766,-0.8265,-0.7801,-0.7263,-0.7109,-0.6705,-0.6,-0.5421,-0.4771,-0.4069,-0.3409,-0.3096,-0.3152,-0.3124,-0.318,-0.3362,-0.333,-0.3348,-0.1261,-0.058,0.0384,0.0,0.2186,0.3093,0.3984,0.4242,0.4242,0.4301,0.0,0.0,0.0,0.0,0.0,0.0,0.0,0.0,0.0,0.0,0.0,0.0,0.0,0.0,0.0,0.0,0.0,0.0,0.0,1.2616,1.3494,1.3099,1.324,1.3956,1.4552,1.4888,1.491,1.5672,1.5314,1.3783,1.3378,1.2592,1.1519,1.2118,1.1814,1.0794,1.057,1.0309,1.0049,1.0205,0.9991,0.9491,0.8714,0.7407,0.5865,0.5177,0.406,0.2834,0.2037,0.1669,0.1403,0.0302,-0.0101,-0.04,-0.1863,-0.3162,-0.4419,-0.574,-0.6819,-0.7539,-0.751,-0.7471,-0.7452,-0.7608,-0.8199,-0.8722,-0.8678,-0.918,-0.9932,-1.087,-1.2088,-1.3188,-1.3851,-1.4384,-1.4674,-1.4585,-1.4209,-1.3662,-1.2838,-1.2716,-1.2574,-1.2244,-1.1839,-1.1043,-0.972,-0.8868,-0.8001,-0.7046,-0.6957,-0.6668,-0.6077,-0.5757,-0.5143,-0.4165,-0.3417,-0.305,-0.3077,-0.3077,-0.3109,-0.3163,-0.324,-0.3462,-0.1173,0.0,0.0,0.0742,0.1635,0.258,0.0,0.0,0.4024,0.0,0.0,0.0,0.0,0.0,0.0,0.0,0.0,0.0,0.0,0.0,0.0,0.0,0.0,0.0,0.0,0.0,0.0,0.0,0.0,1.2466,1.3542,1.3621,1.3884,1.4468,1.4812,1.5189,1.5659,1.607,1.5519,1.4083,1.3705,1.2934,1.1792,1.2478,1.2198,1.1084,1.1101,1.0864,1.0508,1.0623,1.0429,0.9959,0.9166,0.7869,0.6331,0.5621,0.4675,0.3565,0.2501,0.2203,0.207,0.067,0.0336,0.0167,-0.1605,-0.2815,-0.3909,-0.558,-0.6725,-0.7421,-0.7421,-0.7324,-0.7255,-0.7403,-0.8196,-0.9027,-0.9449,-0.9843,-1.0414,-1.1424,-1.2421,-1.3171,-1.3365,-1.4145,-1.4507,-1.3743,-1.388,-1.3731,-1.2713,-1.295,-1.3227,-1.3345,-1.2925,-1.2177,-1.103,-1.0155,-0.9004,-0.7455,-0.7365,-0.702,-0.6247,-0.6194,-0.5718,-0.4782,-0.4156,-0.3601,-0.3077,-0.3077,-0.3175,-0.3363,-0.3459,-0.383,0.0,-0.0602,0.0,0.0246,0.1106,0.1933,0.0,0.0,0.0,0.0,0.0,0.0,0.0,0.0,0.0,0.0,0.0,0.0,0.0,0.0,0.0,0.0,0.0,0.0,0.0,0.0,0.0,0.0,0.0,1.2466,1.3542,1.3621,1.3847,1.4373,1.4015,1.4026,1.4459,1.4514,1.4338,1.4029,1.4538,1.3885,1.2207,1.3362,1.3209,1.1913,1.1552,1.1429,1.1499,1.1064,1.0926,1.0836,0.8982,0.787,0.7138,0.5383,0.4436,0.3826,0.2669,0.2305,0.2106,0.0873,0.0504,0.0268,-0.1053,-0.237,-0.3668,-0.4983,-0.6241,-0.7225,-0.7225,-0.7196,-0.7373,-0.8004,-0.8524,-0.9331,-1.0936,-1.1283,-1.1468,-1.2054,-1.2195,-1.2494,-1.3265,-1.4379,-1.4825,-1.3836,-1.4655,-1.4763,-1.2999,-1.302,-1.3261,-1.3473,-1.3736,-1.3486,-1.2484,-1.2335,-1.1251,-0.8757,-0.8603,-0.8082,-0.6891,-0.6734,-0.6626,-0.6565,-0.634,-0.5258,-0.3291,-0.3291,-0.3633,-0.4325,-0.4325,-0.4688,0.0,0.0,0.0,0.01,0.0593,0.1184,0.2511,0.2943,0.3207,0.0,0.0,0.0,0.0,0.0,0.0,0.0,0.0,0.0,0.0,0.0,0.0,0.0,0.0,0.0,0.0,0.0,0.0,0.0,0.0,0.0,1.2533,1.3219,1.3705,1.3894,1.4085,1.4283,1.4541,1.3741,1.3291,1.3107,1.3167,1.2827,1.2246,1.3168,1.333,1.2874,1.278,1.2373,1.1792,1.1644,1.1245,1.0572,0.9791,0.8431,0.6787,0.593,0.5019,0.4156,0.3453,0.2958,0.2458,0.1466,0.0533,-0.0366,-0.126,-0.2805,-0.4386,-0.5084,-0.6235,-0.7196,-0.7196,-0.7196,-0.7521,-0.8862,-0.9679,-1.0515,-1.1659,-1.1918,-1.1976,-1.2153,-1.2195,-1.2293,-1.2582,-1.2989,-1.3345,-1.3542,-1.3717,-1.3797,-1.3712,-1.3564,-1.3494,-1.362,-1.3803,-1.3499,-1.2402,-1.2429,-1.204,-1.0958,-0.9749,-0.9438,-1.0278,-0.9093,-0.851,-0.868,-0.802,-0.6892,-0.53,-0.4991,-0.5005,-0.5297,-0.5029,-0.5276,-0.2774,0.0,0.0,0.0,-0.0049,0.0589,0.1701,0.0,0.2675,0.0,0.0,0.0,0.0,0.0,0.0,0.0,0.0,0.0,0.0,0.0,0.0,0.0,0.0,0.0,0.0,0.0,0.0,0.0,0.0,0.0,1.1714,1.2545,1.3044,1.3263,1.3651,1.3902,1.3937,1.3141,1.2719,1.2788,1.2655,1.2572,1.2582,1.3192,1.3515,1.3589,1.3464,1.3043,1.2422,1.2163,1.1504,1.0607,1.0176,0.8674,0.6673,0.6272,0.5436,0.4447,0.3881,0.3282,0.2583,0.1422,0.0231,-0.0928,-0.2142,-0.3552,-0.4884,-0.5614,-0.6471,-0.7246,-0.7492,-0.7819,-0.8425,-0.978,-1.0586,-1.1254,-1.2024,-1.2195,-1.221,-1.221,-1.221,-1.2313,-1.264,-1.303,-1.3537,-1.4174,-1.4138,-1.4123,-1.4376,-1.4195,-1.3965,-1.3736,-1.4079,-1.4061,-1.3401,-1.3516,-1.35,-1.3267,-1.2073,-1.1776,-1.2633,-1.1297,-1.0642,-1.0809,-1.0039,-0.9208,-0.834,-0.6997,-0.6639,-0.723,-0.6672,-0.6731,0.0,0.0,0.0,0.0,0.0,0.0,0.0,0.0,0.2408,0.0,0.0,0.0,0.0,0.0,0.0,0.0,0.0,0.0,0.0,0.0,0.0,0.0,0.0,0.0,0.0,0.0,0.0,0.0,0.0,0.9172,1.1213,1.1491,1.191,1.2559,1.2614,1.2614,1.2614,1.2614,1.2779,1.3113,1.3276,1.3314,1.3218,1.3467,1.3763,1.3999,1.3531,1.3429,1.3453,1.2596,1.1762,1.0993,1.0024,0.8557,0.6898,0.6403,0.5618,0.471,0.3978,0.3253,0.2389,0.0689,-0.0362,-0.1387,-0.3616,-0.454,-0.5108,-0.6441,-0.6987,-0.7364,-0.8122,-0.9062,-1.0007,-1.0727,-1.1127,-1.149,-1.2071,-1.22,-1.221,-1.2246,-1.2262,-1.2572,-1.356,-1.4732,-1.5569,-1.5788,-1.6081,-1.5921,-1.4968,-1.4963,-1.4714,-1.3856,-1.4647,-1.5332,-1.5619,-1.5732,-1.5752,-1.5607,-1.5551,-1.4977,-1.3823,-1.3209,-1.2895,-1.2895,-1.2436,-1.2216,-1.2261,-0.9209,-0.8543,-1.0123,-0.9237,-0.9076,-0.6626,0.0,0.0,0.0,0.0,0.0,0.0,0.0,0.0,0.0,0.0,0.0,0.0,0.0,0.0,0.0,0.0,0.0,0.0,0.0,0.0,0.0,0.0,0.0,0.0,0.0,0.0,0.0,0.7751,0.8474,0.9051,1.0674,1.1668,1.1864,1.2365,1.2614,1.2614,1.2513,1.2619,1.2868,1.3125,1.3314,1.3515,1.3773,1.3926,1.401,1.4057,1.4141,1.4111,1.3319,1.2016,1.051,1.0447,0.8772,0.641,0.6263,0.5618,0.478,0.4576,0.3216,0.1531,0.104,-0.0876,-0.3147,-0.404,-0.5041,-0.6021,-0.6617,-0.6987,-0.7364,-0.8122,-0.9409,-1.0579,-1.0791,-1.1395,-1.1997,-1.2159,-1.22,-1.2427,-1.3202,-1.3318,-1.3613,-1.4677,-1.5121,-1.5536,-1.6067,-1.5942,-1.5837,-1.6001,-1.5975,-1.5825,-1.5547,-1.555,-1.5827,-1.6479,-1.6175,-1.6507,-1.7795,-1.6611,-1.6328,-1.7396,-1.5989,-1.5217,-1.5264,-1.4466,-1.4083,-1.4147,-1.1631,-1.0673,-1.1159,-0.9946,-0.9471,0.0,0.0,0.0,0.0,0.0,0.0,-0.0889,-0.0471,0.0,0.0,0.0,0.0,0.0,0.0,0.0,0.0,0.0,0.0,0.0,0.0,0.0,0.0,0.0,0.0,0.0,0.4345,0.0,0.5015,0.6049,0.7069,0.799,0.9723,1.0917,1.1425,1.1817,1.2295,1.2866,1.2772,1.2856,1.3135,1.3392,1.3621,1.3773,1.4057,1.415,1.4197,1.4337,1.4419,1.44,1.3249,1.1973,1.0681,1.0637,0.8875,0.6306,0.63,0.5674,0.4806,0.4608,0.3179,0.1333,0.0712,-0.1295,-0.3616,-0.4512,-0.5456,-0.6245,-0.6626,-0.7405,-0.8321,-0.9177,-1.0312,-1.1238,-1.1365,-1.1775,-1.2153,-1.2153,-1.2525,-1.305,-1.3654,-1.3739,-1.4227,-1.5701,-1.5967,-1.6241,-1.7084,-1.6713,-1.6426,-1.6755,-1.6852,-1.6717,-1.6281,-1.6872,-1.7218,-1.7034,-1.7102,-1.7526,-1.8329,-1.7677,-1.7761,-1.8885,-1.7852,-1.7288,-1.7335,-1.6429,-1.5817,-1.5476,-1.3355,-1.2369,-1.2417,-1.1971,-1.1586,0.0,0.0,0.0,0.0,0.0,0.0,-0.2717,-0.184,-0.1227,0.0,0.0,0.0,0.0,0.0,0.0,0.0,0.0,0.0,0.0,0.0,0.0,0.0,0.0,0.0,0.2055,0.2668,0.3093,0.3062,0.3901,0.5303,0.7345,0.8506,0.9673,1.086,1.1053,1.1724,1.2914,1.3022,1.3195,1.349,1.3836,1.402,1.4067,1.4291,1.4373,1.4373,1.4373,1.4398,1.4288,1.2813,1.1814,1.1151,1.0653,0.881,0.649,0.6446,0.5772,0.482,0.4403,0.3094,0.1407,-0.0065,-0.1758,-0.3505,-0.5124,-0.5804,-0.6176,-0.6669,-0.8105,-0.973,-1.0643,-1.1336,-1.1869,-1.2112,-1.222,-1.2266,-1.2266,-1.3161,-1.3986,-1.4051,-1.419,-1.4874,-1.6752,-1.7159,-1.7498,-1.8358,-1.7885,-1.7409,-1.7374,-1.7736,-1.7686,-1.6888,-1.8545,-1.9206,-1.7916,-1.8515,-1.8747,-1.8249,-1.8718,-1.9053,-1.9148,-1.8904,-1.8827,-1.8896,-1.8043,-1.7219,-1.6442,-1.4772,-1.3893,-1.3779,-1.4485,-1.4307,0.0,0.0,0.0,0.0,0.0,0.0,-0.6319,-0.5132,-0.4011,0.0,0.0,0.0,0.0,0.0,0.0,0.0,0.0,0.0,0.0,0.0,0.0,0.0,0.0,0.0,0.2647,0.2523,0.2713,0.3486,0.344,0.3937,0.524,0.6619,0.791,0.9012,1.0105,1.0849,1.1113,1.1918,1.2454,1.2731,1.3585,1.4114,1.4337,1.4384,1.4373,1.4373,1.4373,1.3971,1.3233,1.2865,1.2202,1.1209,0.9912,0.8193,0.6527,0.6593,0.5806,0.4628,0.4564,0.2845,0.0519,-0.0511,-0.2443,-0.4605,-0.5921,-0.6337,-0.6626,-0.7742,-0.9136,-1.0374,-1.0745,-1.1387,-1.197,-1.2033,-1.2733,-1.3403,-1.3403,-1.428,-1.5318,-1.6112,-1.6802,-1.7473,-1.8069,-1.8723,-1.8985,-1.8475,-1.8283,-1.8239,-1.8394,-1.9269,-1.9879,-1.9933,-2.0577,-2.1183,-2.1578,-2.0625,-2.0253,-2.0815,-1.9748,-1.9368,-2.0015,-1.8749,-1.8297,-1.8885,-1.8048,-1.7516,-1.7355,-1.6973,-1.6086,-1.4728,-1.4835,-1.4405,0.0,0.0,0.0,-1.3171,0.0,0.0,0.0,-0.8567,-0.7619,-0.6212,0.0,0.0,0.0,0.0,0.0,0.0,0.0,0.0,0.0,0.0,0.0,0.0,0.0,0.0,0.1411,0.0901,0.1088,0.2461,0.2506,0.298,0.4121,0.5042,0.6288,0.7987,0.8711,0.9631,1.0695,1.1266,1.1882,1.26,1.3165,1.3776,1.4373,1.4373,1.4139,1.3694,1.3893,1.3481,1.2579,1.1974,1.1574,1.1221,0.9657,0.81,0.6678,0.644,0.5612,0.4565,0.3966,0.2424,0.049,-0.116,-0.2887,-0.461,-0.5983,-0.7115,-0.8168,-0.9202,-1.0315,-1.1342,-1.1899,-1.2014,-1.2152,-1.2713,-1.3251,-1.3774,-1.4295,-1.5629,-1.6867,-1.727,-1.8802,-1.9848,-1.9202,-1.9222,-1.9282,-1.9208,-1.8948,-1.8789,-1.8925,-1.9531,-2.0018,-2.0177,-2.0926,-2.1235,-2.0842,-2.05,-2.0134,-1.9735,-1.933,-1.9285,-1.967,-1.927,-1.9219,-1.9593,-1.919,-1.8785,-1.8348,-1.8823,-1.813,-1.6356,-1.6311,-1.6086,0.0,0.0,0.0,0.0,0.0,-1.3934,0.0,0.0,0.0,0.0,0.0,0.0,0.0,0.0,0.0,0.0,0.0,0.0,0.0,0.0,0.0,0.0,0.0,0.0,0.0,-0.0785,-0.0668,0.0564,0.0985,0.1795,0.3076,0.3577,0.4802,0.7059,0.7259,0.825,1.0101,1.0454,1.1088,1.2158,1.2483,1.3076,1.3943,1.3903,1.3461,1.2882,1.3135,1.2755,1.194,1.0915,1.0647,1.075,0.9326,0.8031,0.6919,0.6245,0.5377,0.4314,0.3306,0.194,0.0323,-0.1822,-0.3397,-0.4757,-0.6098,-0.795,-0.9689,-1.0332,-1.1259,-1.2269,-1.3151,-1.2845,-1.2603,-1.373,-1.4242,-1.4684,-1.5491,-1.7122,-1.8349,-1.8185,-1.9886,-2.1057,-2.017,-1.977,-1.9759,-2.0246,-1.9914,-1.9641,-1.9752,-2.0043,-2.0292,-2.0402,-2.1437,-2.1637,-2.0504,-2.0807,-2.0553,-1.938,-1.9483,-1.9676,-1.9846,-2.0481,-2.0731,-2.0565,-2.0781,-2.0467,-1.96,-2.0355,-1.9695,-1.7722,-1.7881,-1.7913,0.0,0.0,0.0,0.0,-1.7339,0.0,0.0,0.0,-1.4577,-1.302,0.0,0.0,0.0,0.0,0.0,0.0,0.0,0.0,0.0,0.0,0.0,0.0,0.0,0.0,0.0,-0.1185,-0.1411,-0.1932,-0.1346,-0.0326,0.1144,0.2132,0.3532,0.54,0.6121,0.6859,0.7679,0.8594,0.9426,1.0234,1.1132,1.1836,1.2365,1.199,1.2009,1.2371,1.2069,1.143,1.0624,1.0452,1.0004,0.9234,0.8292,0.7709,0.7231,0.6398,0.5039,0.3579,0.3207,0.1329,-0.1118,-0.2148,-0.4227,-0.6427,-0.708,-0.8639,-1.018,-1.0161,-1.1388,-1.2863,-1.3489,-1.3526,-1.3716,-1.485,-1.6386,-1.7637,-1.7727,-1.8701,-1.9514,-1.9493,-1.9167,-1.9379,-2.0851,-2.1612,-2.1893,-2.1565,-2.1451,-2.1493,-2.1745,-2.2406,-2.299,-2.329,-2.414,-2.4988,-2.5744,-2.4551,-2.4029,-2.467,-2.2632,-2.1745,-2.2539,-2.265,-2.2335,-2.1555,-2.2309,-2.2289,-2.1401,-2.151,-2.0256,-1.7811,-1.8581,-1.8525,0.0,0.0,0.0,0.0,0.0,0.0,-1.9156,0.0,-1.8066,0.0,0.0,0.0,0.0,0.0,0.0,0.0,-0.9485,0.0,0.0,0.0,0.0,0.0,0.0,0.0,0.0,0.0,0.0,0.0,0.0,-0.1556,-0.0441,0.059,0.2037,0.3979,0.4724,0.5601,0.6658,0.7454,0.833,0.9213,1.0233,1.1055,1.1762,1.2037,1.188,1.1486,1.1798,1.1313,1.0322,1.0301,1.0097,0.9698,0.8581,0.7836,0.725,0.6593,0.5262,0.3589,0.2287,0.0653,-0.1192,-0.3369,-0.5501,-0.7375,-0.8156,-0.9907,-1.1642,-1.1705,-1.2578,-1.3611,-1.4136,-1.3876,-1.395,-1.5789,-1.7134,-1.8044,-1.8225,-1.9367,-2.0375,-2.0527,-2.0659,-2.127,-2.2886,-2.2117,-2.1587,-2.2483,-2.2357,-2.2205,-2.2324,-2.2626,-2.2899,-2.3077,-2.3468,-2.4128,-2.5159,-2.4594,-2.4607,-2.5547,-2.4099,-2.3143,-2.3017,-2.3045,-2.2871,-2.246,-2.2849,-2.2883,-2.2514,-2.251,-2.1944,-2.0854,-2.0215,-1.9726,-1.9489,0.0,0.0,0.0,0.0,0.0,0.0,0.0,0.0,0.0,0.0,0.0,0.0,0.0,0.0,0.0,0.0,-1.2316,0.0,0.0,0.0,0.0,0.0,0.0,0.0,0.0,0.0,0.0,0.0,0.0,-0.1903,-0.0667,0.0911,0.2791,0.3633,0.4668,0.5936,0.6698,0.7559,0.8558,0.9567,1.0444,1.1238,1.1677,1.1509,1.0876,1.1345,1.105,1.0181,1.01,1.0069,0.9976,0.901,0.798,0.6876,0.6371,0.476,0.2618,0.1103,-0.0561,-0.2454,-0.5301,-0.7164,-0.8481,-0.9649,-1.1399,-1.3049,-1.3194,-1.3855,-1.46,-1.5168,-1.4805,-1.4812,-1.6855,-1.7887,-1.8481,-1.8766,-1.9765,-2.0667,-2.093,-2.1476,-2.23,-2.3619,-2.2603,-2.2089,-2.354,-2.3431,-2.3202,-2.3213,-2.3213,-2.3336,-2.3694,-2.3774,-2.4197,-2.5215,-2.5074,-2.5236,-2.5936,-2.5173,-2.4606,-2.4453,-2.4037,-2.3892,-2.4089,-2.3907,-2.3688,-2.34,-2.342,-2.3275,-2.2965,-2.1764,-2.1072,0.0,0.0,0.0,-2.1145,0.0,0.0,0.0,0.0,-2.2111,0.0,0.0,0.0,0.0,0.0,0.0,0.0,0.0,0.0,0.0,0.0,0.0,0.0,0.0,0.0,0.0,0.0,0.0,0.0,0.0,0.0,-0.3342,-0.1408,0.0328,0.1894,0.3045,0.4157,0.5303,0.6307,0.7237,0.8107,0.9148,0.9924,1.0508,1.0195,1.0331,1.0685,1.0326,1.0089,0.9922,0.9792,0.9595,0.9413,0.9399,0.8013,0.5967,0.5511,0.2998,-0.0162,-0.0243,-0.2575,-0.5892,-0.8145,-0.9251,-1.0052,-1.176,-1.3108,-1.4085,-1.4151,-1.4877,-1.5829,-1.6622,-1.671,-1.6901,-1.8143,-1.9064,-1.9688,-1.9897,-1.999,-2.0101,-2.0366,-2.0503,-2.0905,-2.1984,-2.34,-2.4511,-2.4879,-2.4921,-2.493,-2.5011,-2.5034,-2.5414,-2.6448,-2.6563,-2.6988,-2.7981,-2.7304,-2.6841,-2.6944,-2.6133,-2.6408,-2.8053,-2.6506,-2.6015,-2.6856,-2.6054,-2.5133,-2.4158,-2.4241,-2.3722,-2.2728,-2.2916,-2.2565,0.0,0.0,-2.477,-2.3604,0.0,0.0,0.0,0.0,0.0,0.0,0.0,0.0,0.0,0.0,0.0,0.0,0.0,0.0,0.0,0.0,0.0,0.0,0.0,0.0,0.0,0.0,0.0,0.0,-0.6967,0.0,0.0,-0.3427,-0.1987,-0.0402,0.1269,0.2588,0.3559,0.5158,0.6246,0.6865,0.8565,0.9554,0.9866,1.0689,1.1057,1.1079,1.104,1.0763,1.028,1.033,0.9589,0.8349,0.8082,0.6533,0.4608,0.5847,0.3796,0.0064,-0.2528,-0.5381,-0.8093,-0.9323,-1.0541,-1.1746,-1.2955,-1.3867,-1.4594,-1.5021,-1.5351,-1.5751,-1.6559,-1.6724,-1.7173,-1.9107,-1.9735,-1.997,-2.0261,-2.0296,-2.0509,-2.1368,-2.154,-2.2077,-2.3719,-2.4504,-2.4917,-2.4926,-2.5013,-2.5072,-2.5096,-2.5691,-2.6025,-2.5863,-2.6366,-2.7109,-2.8107,-2.8508,-2.8202,-2.7069,-2.6727,-2.6562,-2.6581,-2.6009,-2.5831,-2.613,-2.5843,-2.552,-2.5184,-2.5163,-2.4976,-2.4623,-2.4665,-2.3888,-2.5138,-2.5894,0.0,-2.5185,-2.5458,0.0,-2.4695,0.0,0.0,0.0,0.0,0.0,0.0,0.0,0.0,0.0,0.0,0.0,0.0,-1.827,0.0,0.0,0.0,0.0,0.0,0.0,0.0,-0.9069,-0.8567,0.0,0.0,0.0,-0.3542,-0.1943,-0.0292,0.1195,0.2519,0.4312,0.5621,0.6463,0.8242,0.9175,0.945,1.0306,1.0713,1.0643,1.0605,1.0364,0.9918,0.9838,0.8982,0.7605,0.6666,0.4986,0.3335,0.4577,0.2344,-0.1739,-0.5138,-0.7786,-0.9815,-1.0696,-1.202,-1.344,-1.4435,-1.5074,-1.5593,-1.6128,-1.6328,-1.6545,-1.7195,-1.7663,-1.8332,-1.9795,-2.0391,-2.0679,-2.0997,-2.1047,-2.1242,-2.2084,-2.2512,-2.3139,-2.4391,-2.4927,-2.5133,-2.4994,-2.5088,-2.5177,-2.5236,-2.5813,-2.6149,-2.5989,-2.647,-2.7188,-2.8147,-2.8789,-2.8784,-2.7948,-2.7305,-2.6973,-2.7012,-2.6115,-2.578,-2.6123,-2.579,-2.562,-2.56,-2.5557,-2.5495,-2.5428,-2.5395,-2.4769]}]]